Time,TemperatureF,DewpointF,PressureIn,WindDirection,WindDirectionDegrees,WindSpeedMPH,WindSpeedGustMPH,Humidity,HourlyPrecipIn,Conditions,Clouds,dailyrainin,SoftwareType,DateUTC
2013-02-12 00:00:00,36.7,35.7,29.72,WNW,284,3.0,8.0,96,0.00,,,0.16,VWS V14.01,2013-02-12 05:00:00,
2013-02-12 00:01:00,36.7,35.7,29.72,SW,230,4.0,4.0,96,0.00,,,0.00,VWS V14.01,2013-02-12 05:01:00,
2013-02-12 00:02:00,36.7,35.7,29.72,West,262,6.0,6.0,96,0.00,,,0.00,VWS V14.01,2013-02-12 05:02:00,
2013-02-12 00:03:00,36.8,35.8,29.72,WSW,237,4.0,6.0,96,0.00,,,0.00,VWS V14.01,2013-02-12 05:03:00,
2013-02-12 00:04:00,36.8,35.8,29.72,SW,219,2.0,6.0,96,0.00,,,0.00,VWS V14.01,2013-02-12 05:04:00,
2013-02-12 00:05:00,36.9,35.9,29.72,West,263,6.0,9.0,96,0.00,,,0.00,VWS V14.01,2013-02-12 05:05:00,
2013-02-12 00:06:00,37.0,36.0,29.72,WSW,252,4.0,9.0,96,0.00,,,0.00,VWS V14.01,2013-02-12 05:06:00,
2013-02-12 00:07:00,37.1,36.1,29.72,SSW,213,3.0,10.0,96,0.00,,,0.00,VWS V14.01,2013-02-12 05:07:00,
2013-02-12 00:08:00,37.1,36.1,29.72,SW,225,6.0,10.0,96,0.00,,,0.00,VWS V14.01,2013-02-12 05:08:00,
2013-02-12 00:09:00,37.2,36.4,29.72,WSW,250,7.0,10.0,97,0.00,,,0.00,VWS V14.01,2013-02-12 05:09:00,
2013-02-12 00:10:00,37.2,36.4,29.72,WNW,300,4.0,10.0,97,0.00,,,0.00,VWS V14.01,2013-02-12 05:10:00,
2013-02-12 00:11:00,37.2,36.4,29.72,WSW,240,4.0,5.0,97,0.00,,,0.00,VWS V14.01,2013-02-12 05:11:00,
2013-02-12 00:12:00,37.2,36.4,29.72,WSW,258,0.0,7.0,97,0.00,,,0.00,VWS V14.01,2013-02-12 05:12:00,
2013-02-12 00:13:00,37.3,36.3,29.72,WSW,254,5.0,8.0,96,0.00,,,0.00,VWS V14.01,2013-02-12 05:13:00,
2013-02-12 00:14:00,37.3,36.3,29.72,WSW,240,3.0,10.0,96,0.00,,,0.00,VWS V14.01,2013-02-12 05:14:00,
2013-02-12 00:15:00,37.3,36.3,29.73,West,263,6.0,10.0,96,0.00,,,0.00,VWS V14.01,2013-02-12 05:15:00,
2013-02-12 00:16:00,37.3,36.3,29.73,SSW,213,4.0,10.0,96,0.00,,,0.00,VWS V14.01,2013-02-12 05:16:00,
2013-02-12 00:17:00,37.3,36.3,29.73,West,261,1.0,10.0,96,0.00,,,0.00,VWS V14.01,2013-02-12 05:17:00,
2013-02-12 00:18:00,37.3,36.3,29.73,WSW,240,2.0,10.0,96,0.00,,,0.00,VWS V14.01,2013-02-12 05:18:00,
2013-02-12 00:19:00,37.3,36.3,29.73,SSE,148,2.0,10.0,96,0.00,,,0.00,VWS V14.01,2013-02-12 05:19:00,
2013-02-12 00:20:00,37.2,36.2,29.73,SW,227,4.0,10.0,96,0.00,,,0.00,VWS V14.01,2013-02-12 05:20:00,
2013-02-12 00:21:00,37.2,36.2,29.73,WSW,247,9.0,9.0,96,0.00,,,0.00,VWS V14.01,2013-02-12 05:21:00,
2013-02-12 00:22:00,37.2,36.2,29.73,West,267,5.0,9.0,96,0.00,,,0.00,VWS V14.01,2013-02-12 05:22:00,
2013-02-12 00:23:00,37.1,36.1,29.73,WSW,241,3.0,9.0,96,0.00,,,0.00,VWS V14.01,2013-02-12 05:23:00,
2013-02-12 00:24:00,37.1,36.1,29.73,West,264,6.0,9.0,96,0.00,,,0.00,VWS V14.01,2013-02-12 05:24:00,
2013-02-12 00:25:00,37.1,36.1,29.73,West,267,2.0,9.0,96,0.00,,,0.00,VWS V14.01,2013-02-12 05:25:00,
2013-02-12 00:26:00,37.1,36.1,29.73,WSW,258,6.0,9.0,96,0.00,,,0.00,VWS V14.01,2013-02-12 05:26:00,
2013-02-12 00:27:00,37.1,36.1,29.73,West,275,3.0,9.0,96,0.00,,,0.00,VWS V14.01,2013-02-12 05:27:00,
2013-02-12 00:28:00,37.1,36.1,29.73,SW,227,6.0,9.0,96,0.00,,,0.00,VWS V14.01,2013-02-12 05:28:00,
2013-02-12 00:29:00,37.0,36.0,29.73,West,278,4.0,9.0,96,0.00,,,0.00,VWS V14.01,2013-02-12 05:29:00,
2013-02-12 00:30:00,37.0,36.0,29.73,South,174,2.0,9.0,96,0.00,,,0.00,VWS V14.01,2013-02-12 05:30:00,
2013-02-12 00:31:00,36.9,35.9,29.73,West,273,14.0,14.0,96,0.00,,,0.00,VWS V14.01,2013-02-12 05:31:00,
2013-02-12 00:32:00,36.9,35.9,29.73,West,278,3.0,14.0,96,0.00,,,0.00,VWS V14.01,2013-02-12 05:32:00,
2013-02-12 00:33:00,36.9,35.9,29.73,WNW,290,0.0,14.0,96,0.00,,,0.00,VWS V14.01,2013-02-12 05:33:00,
2013-02-12 00:34:00,36.9,35.9,29.73,WSW,256,6.0,14.0,96,0.00,,,0.00,VWS V14.01,2013-02-12 05:34:00,
2013-02-12 00:35:00,36.8,35.8,29.73,West,265,9.0,14.0,96,0.00,,,0.00,VWS V14.01,2013-02-12 05:35:00,
2013-02-12 00:36:00,36.8,35.8,29.73,WNW,292,3.0,14.0,96,0.00,,,0.00,VWS V14.01,2013-02-12 05:36:00,
2013-02-12 00:37:00,36.8,35.8,29.73,WSW,244,6.0,14.0,96,0.00,,,0.00,VWS V14.01,2013-02-12 05:37:00,
2013-02-12 00:38:00,36.8,35.8,29.73,West,271,3.0,14.0,96,0.00,,,0.00,VWS V14.01,2013-02-12 05:38:00,
2013-02-12 00:39:00,36.8,35.8,29.73,SW,234,2.0,14.0,96,0.00,,,0.00,VWS V14.01,2013-02-12 05:39:00,
2013-02-12 00:40:00,36.8,35.8,29.73,WNW,294,2.0,14.0,96,0.00,,,0.00,VWS V14.01,2013-02-12 05:40:00,
2013-02-12 00:41:00,36.7,35.7,29.73,West,275,9.0,9.0,96,0.00,,,0.00,VWS V14.01,2013-02-12 05:41:00,
2013-02-12 00:42:00,36.7,35.7,29.73,WNW,296,1.0,9.0,96,0.00,,,0.00,VWS V14.01,2013-02-12 05:42:00,
2013-02-12 00:43:00,36.6,35.6,29.73,SW,227,6.0,10.0,96,0.00,,,0.00,VWS V14.01,2013-02-12 05:43:00,
2013-02-12 00:44:00,36.6,35.6,29.73,SSW,212,3.0,11.0,96,0.00,,,0.00,VWS V14.01,2013-02-12 05:44:00,
2013-02-12 00:45:00,36.6,35.6,29.73,SW,220,5.0,19.0,96,0.00,,,0.00,VWS V14.01,2013-02-12 05:45:00,
2013-02-12 00:46:00,36.5,35.5,29.73,WSW,253,4.0,19.0,96,0.00,,,0.00,VWS V14.01,2013-02-12 05:46:00,
2013-02-12 00:47:00,36.4,35.4,29.73,West,270,7.0,19.0,96,0.00,,,0.00,VWS V14.01,2013-02-12 05:47:00,
2013-02-12 00:48:00,36.4,35.4,29.73,West,265,5.0,19.0,96,0.00,,,0.00,VWS V14.01,2013-02-12 05:48:00,
2013-02-12 00:49:00,36.4,35.4,29.73,SW,223,4.0,19.0,96,0.00,,,0.00,VWS V14.01,2013-02-12 05:49:00,
2013-02-12 00:50:00,36.3,35.3,29.73,WNW,300,5.0,19.0,96,0.00,,,0.00,VWS V14.01,2013-02-12 05:50:00,
2013-02-12 00:51:00,36.3,35.3,29.73,SW,219,4.0,10.0,96,0.00,,,0.00,VWS V14.01,2013-02-12 05:51:00,
2013-02-12 00:52:00,36.3,35.0,29.73,West,266,2.0,10.0,95,0.00,,,0.00,VWS V14.01,2013-02-12 05:52:00,
2013-02-12 00:53:00,36.2,34.9,29.73,SSW,205,1.0,10.0,95,0.00,,,0.00,VWS V14.01,2013-02-12 05:53:00,
2013-02-12 00:54:00,36.2,34.9,29.73,WSW,254,12.0,12.0,95,0.00,,,0.00,VWS V14.01,2013-02-12 05:54:00,
2013-02-12 00:55:00,36.2,34.9,29.73,NW,315,8.0,12.0,95,0.00,,,0.00,VWS V14.01,2013-02-12 05:55:00,
2013-02-12 00:56:00,36.2,34.9,29.73,West,265,10.0,15.0,95,0.00,,,0.00,VWS V14.01,2013-02-12 05:56:00,
2013-02-12 00:57:00,36.2,34.9,29.73,West,273,7.0,15.0,95,0.00,,,0.00,VWS V14.01,2013-02-12 05:57:00,
2013-02-12 00:58:00,36.2,34.9,29.73,West,266,3.0,15.0,95,0.00,,,0.00,VWS V14.01,2013-02-12 05:58:00,
2013-02-12 00:59:00,36.2,34.9,29.73,SW,228,3.0,15.0,95,0.00,,,0.00,VWS V14.01,2013-02-12 05:59:00,
2013-02-12 01:00:00,36.2,34.9,29.72,West,259,6.0,15.0,95,0.00,,,0.00,VWS V14.01,2013-02-12 06:00:00,
2013-02-12 01:01:00,36.1,34.8,29.72,South,170,3.0,7.0,95,0.00,,,0.00,VWS V14.01,2013-02-12 06:01:00,
2013-02-12 01:02:00,36.1,34.8,29.72,WSW,245,1.0,7.0,95,0.00,,,0.00,VWS V14.01,2013-02-12 06:02:00,
2013-02-12 01:03:00,36.1,34.8,29.72,WSW,251,6.0,10.0,95,0.00,,,0.00,VWS V14.01,2013-02-12 06:03:00,
2013-02-12 01:04:00,36.2,34.9,29.72,North,355,2.0,10.0,95,0.00,,,0.00,VWS V14.01,2013-02-12 06:04:00,
2013-02-12 01:05:00,36.2,34.9,29.72,SSW,207,2.0,10.0,95,0.00,,,0.00,VWS V14.01,2013-02-12 06:05:00,
2013-02-12 01:06:00,36.2,34.9,29.72,SSE,153,3.0,10.0,95,0.00,,,0.00,VWS V14.01,2013-02-12 06:06:00,
2013-02-12 01:07:00,36.2,34.6,29.72,NNW,327,5.0,10.0,94,0.00,,,0.00,VWS V14.01,2013-02-12 06:07:00,
2013-02-12 01:08:00,36.2,34.6,29.72,WSW,238,5.0,10.0,94,0.00,,,0.00,VWS V14.01,2013-02-12 06:08:00,
2013-02-12 01:09:00,36.2,34.6,29.72,WSW,254,2.0,10.0,94,0.00,,,0.00,VWS V14.01,2013-02-12 06:09:00,
2013-02-12 01:10:00,36.2,34.6,29.72,WSW,249,9.0,10.0,94,0.00,,,0.00,VWS V14.01,2013-02-12 06:10:00,
2013-02-12 01:11:00,36.2,34.6,29.72,West,271,8.0,13.0,94,0.00,,,0.00,VWS V14.01,2013-02-12 06:11:00,
2013-02-12 01:12:00,36.2,34.6,29.72,West,277,4.0,13.0,94,0.00,,,0.00,VWS V14.01,2013-02-12 06:12:00,
2013-02-12 01:13:00,36.2,34.4,29.72,WSW,257,2.0,13.0,93,0.00,,,0.00,VWS V14.01,2013-02-12 06:13:00,
2013-02-12 01:14:00,36.2,34.4,29.72,NNW,327,9.0,13.0,93,0.00,,,0.00,VWS V14.01,2013-02-12 06:14:00,
2013-02-12 01:15:00,36.3,34.5,29.73,South,179,2.0,13.0,93,0.00,,,0.00,VWS V14.01,2013-02-12 06:15:00,
2013-02-12 01:16:00,36.3,34.5,29.73,SSW,196,2.0,13.0,93,0.00,,,0.00,VWS V14.01,2013-02-12 06:16:00,
2013-02-12 01:17:00,36.3,34.2,29.73,SSW,196,3.0,13.0,92,0.00,,,0.00,VWS V14.01,2013-02-12 06:17:00,
2013-02-12 01:18:00,36.4,34.3,29.73,WNW,298,3.0,13.0,92,0.00,,,0.00,VWS V14.01,2013-02-12 06:18:00,
2013-02-12 01:19:00,36.3,34.2,29.73,SSW,206,3.0,13.0,92,0.00,,,0.00,VWS V14.01,2013-02-12 06:19:00,
2013-02-12 01:20:00,36.3,33.9,29.73,WSW,251,4.0,13.0,91,0.00,,,0.00,VWS V14.01,2013-02-12 06:20:00,
2013-02-12 01:21:00,36.3,33.9,29.73,SW,227,12.0,12.0,91,0.00,,,0.00,VWS V14.01,2013-02-12 06:21:00,
2013-02-12 01:22:00,36.3,33.9,29.73,West,261,7.0,12.0,91,0.00,,,0.00,VWS V14.01,2013-02-12 06:22:00,
2013-02-12 01:23:00,36.4,33.8,29.73,SW,230,0.0,12.0,90,0.00,,,0.00,VWS V14.01,2013-02-12 06:23:00,
2013-02-12 01:24:00,36.4,33.8,29.73,WSW,238,2.0,12.0,90,0.00,,,0.00,VWS V14.01,2013-02-12 06:24:00,
2013-02-12 01:25:00,36.4,33.8,29.73,West,259,9.0,12.0,90,0.00,,,0.00,VWS V14.01,2013-02-12 06:25:00,
2013-02-12 01:26:00,36.4,33.5,29.73,WNW,292,5.0,12.0,89,0.00,,,0.00,VWS V14.01,2013-02-12 06:26:00,
2013-02-12 01:27:00,36.4,33.5,29.73,NW,304,3.0,12.0,89,0.00,,,0.00,VWS V14.01,2013-02-12 06:27:00,
2013-02-12 01:28:00,36.4,33.5,29.73,SSE,151,2.0,12.0,89,0.00,,,0.00,VWS V14.01,2013-02-12 06:28:00,
2013-02-12 01:29:00,36.4,33.2,29.73,South,188,2.0,12.0,88,0.00,,,0.00,VWS V14.01,2013-02-12 06:29:00,
2013-02-12 01:30:00,36.4,33.2,29.73,West,275,5.0,12.0,88,0.00,,,0.00,VWS V14.01,2013-02-12 06:30:00,
2013-02-12 01:31:00,36.4,32.9,29.73,NW,306,4.0,6.0,87,0.00,,,0.00,VWS V14.01,2013-02-12 06:31:00,
2013-02-12 01:32:00,36.4,32.9,29.73,SSE,153,2.0,6.0,87,0.00,,,0.00,VWS V14.01,2013-02-12 06:32:00,
2013-02-12 01:33:00,36.5,32.7,29.73,WSW,257,2.0,6.0,86,0.00,,,0.00,VWS V14.01,2013-02-12 06:33:00,
2013-02-12 01:34:00,36.5,32.7,29.73,SSW,204,3.0,6.0,86,0.00,,,0.00,VWS V14.01,2013-02-12 06:34:00,
2013-02-12 01:35:00,36.5,32.4,29.73,SSW,204,2.0,6.0,85,0.00,,,0.00,VWS V14.01,2013-02-12 06:35:00,
2013-02-12 01:36:00,36.5,32.4,29.73,WNW,296,1.0,6.0,85,0.00,,,0.00,VWS V14.01,2013-02-12 06:36:00,
2013-02-12 01:37:00,36.5,32.4,29.73,SW,219,4.0,6.0,85,0.00,,,0.00,VWS V14.01,2013-02-12 06:37:00,
2013-02-12 01:38:00,36.4,32.3,29.73,NNW,338,0.0,6.0,85,0.00,,,0.00,VWS V14.01,2013-02-12 06:38:00,
2013-02-12 01:39:00,36.4,32.0,29.73,NW,316,11.0,11.0,84,0.00,,,0.00,VWS V14.01,2013-02-12 06:39:00,
2013-02-12 01:40:00,36.4,32.0,29.73,SSW,199,0.0,11.0,84,0.00,,,0.00,VWS V14.01,2013-02-12 06:40:00,
2013-02-12 01:41:00,36.4,32.0,29.73,SSW,199,1.0,6.0,84,0.00,,,0.00,VWS V14.01,2013-02-12 06:41:00,
2013-02-12 01:42:00,36.4,31.7,29.73,SW,216,4.0,7.0,83,0.00,,,0.00,VWS V14.01,2013-02-12 06:42:00,
2013-02-12 01:43:00,36.4,31.7,29.73,South,173,3.0,7.0,83,0.00,,,0.00,VWS V14.01,2013-02-12 06:43:00,
2013-02-12 01:44:00,36.4,31.7,29.73,WNW,284,11.0,11.0,83,0.00,,,0.00,VWS V14.01,2013-02-12 06:44:00,
2013-02-12 01:45:00,36.4,31.4,29.74,WSW,248,0.0,11.0,82,0.00,,,0.00,VWS V14.01,2013-02-12 06:45:00,
2013-02-12 01:46:00,36.4,31.4,29.74,WNW,282,4.0,11.0,82,0.00,,,0.00,VWS V14.01,2013-02-12 06:46:00,
2013-02-12 01:47:00,36.4,31.1,29.74,NW,312,0.0,11.0,81,0.00,,,0.00,VWS V14.01,2013-02-12 06:47:00,
2013-02-12 01:48:00,36.4,31.1,29.74,WSW,255,2.0,11.0,81,0.00,,,0.00,VWS V14.01,2013-02-12 06:48:00,
2013-02-12 01:49:00,36.4,31.1,29.74,ENE,74,4.0,11.0,81,0.00,,,0.00,VWS V14.01,2013-02-12 06:49:00,
2013-02-12 01:50:00,36.4,31.1,29.74,SSE,165,2.0,11.0,81,0.00,,,0.00,VWS V14.01,2013-02-12 06:50:00,
2013-02-12 01:51:00,36.4,31.1,29.74,NW,307,2.0,13.0,81,0.00,,,0.00,VWS V14.01,2013-02-12 06:51:00,
2013-02-12 01:52:00,36.5,30.9,29.74,West,271,4.0,13.0,80,0.00,,,0.00,VWS V14.01,2013-02-12 06:52:00,
2013-02-12 01:53:00,36.5,30.9,29.74,West,276,4.0,13.0,80,0.00,,,0.00,VWS V14.01,2013-02-12 06:53:00,
2013-02-12 01:54:00,36.5,30.6,29.74,SSW,205,2.0,13.0,79,0.00,,,0.00,VWS V14.01,2013-02-12 06:54:00,
2013-02-12 01:55:00,36.6,30.7,29.74,WSW,238,3.0,13.0,79,0.00,,,0.00,VWS V14.01,2013-02-12 06:55:00,
2013-02-12 01:56:00,36.6,30.7,29.74,SW,235,5.0,13.0,79,0.00,,,0.00,VWS V14.01,2013-02-12 06:56:00,
2013-02-12 01:57:00,36.6,30.7,29.74,WNW,291,9.0,13.0,79,0.00,,,0.00,VWS V14.01,2013-02-12 06:57:00,
2013-02-12 01:58:00,36.6,30.4,29.74,WSW,240,4.0,13.0,78,0.00,,,0.00,VWS V14.01,2013-02-12 06:58:00,
2013-02-12 01:59:00,36.6,30.4,29.74,WSW,257,5.0,13.0,78,0.00,,,0.00,VWS V14.01,2013-02-12 06:59:00,
2013-02-12 02:00:00,36.6,30.4,29.75,North,5,0.0,13.0,78,0.00,,,0.00,VWS V14.01,2013-02-12 07:00:00,
2013-02-12 02:01:00,36.7,30.5,29.75,WSW,242,9.0,10.0,78,0.00,,,0.00,VWS V14.01,2013-02-12 07:01:00,
2013-02-12 02:02:00,36.7,30.5,29.75,WSW,255,1.0,10.0,78,0.00,,,0.00,VWS V14.01,2013-02-12 07:02:00,
2013-02-12 02:03:00,36.7,30.5,29.75,NNW,332,2.0,10.0,78,0.00,,,0.00,VWS V14.01,2013-02-12 07:03:00,
2013-02-12 02:04:00,36.7,30.2,29.75,SE,125,4.0,10.0,77,0.00,,,0.00,VWS V14.01,2013-02-12 07:04:00,
2013-02-12 02:05:00,36.8,30.3,29.75,WSW,244,5.0,10.0,77,0.00,,,0.00,VWS V14.01,2013-02-12 07:05:00,
2013-02-12 02:06:00,36.8,30.3,29.75,South,191,2.0,10.0,77,0.00,,,0.00,VWS V14.01,2013-02-12 07:06:00,
2013-02-12 02:07:00,36.8,30.3,29.75,NW,309,7.0,10.0,77,0.00,,,0.00,VWS V14.01,2013-02-12 07:07:00,
2013-02-12 02:08:00,36.9,30.4,29.75,NW,323,7.0,12.0,77,0.00,,,0.00,VWS V14.01,2013-02-12 07:08:00,
2013-02-12 02:09:00,36.9,30.4,29.75,WSW,239,6.0,12.0,77,0.00,,,0.00,VWS V14.01,2013-02-12 07:09:00,
2013-02-12 02:10:00,36.9,30.0,29.75,West,277,7.0,12.0,76,0.00,,,0.00,VWS V14.01,2013-02-12 07:10:00,
2013-02-12 02:11:00,36.9,30.0,29.75,WNW,300,12.0,12.0,76,0.00,,,0.00,VWS V14.01,2013-02-12 07:11:00,
2013-02-12 02:12:00,37.0,30.1,29.75,WSW,250,7.0,12.0,76,0.00,,,0.00,VWS V14.01,2013-02-12 07:12:00,
2013-02-12 02:13:00,37.0,30.1,29.75,South,172,3.0,12.0,76,0.00,,,0.00,VWS V14.01,2013-02-12 07:13:00,
2013-02-12 02:14:00,37.0,30.1,29.75,ESE,121,1.0,12.0,76,0.00,,,0.00,VWS V14.01,2013-02-12 07:14:00,
2013-02-12 02:15:00,37.0,30.1,29.75,SW,229,8.0,12.0,76,0.00,,,0.00,VWS V14.01,2013-02-12 07:15:00,
2013-02-12 02:16:00,37.0,29.8,29.75,WNW,298,7.0,12.0,75,0.00,,,0.00,VWS V14.01,2013-02-12 07:16:00,
2013-02-12 02:17:00,37.0,29.8,29.75,West,275,2.0,12.0,75,0.00,,,0.00,VWS V14.01,2013-02-12 07:17:00,
2013-02-12 02:18:00,37.1,29.9,29.75,WNW,293,6.0,12.0,75,0.00,,,0.00,VWS V14.01,2013-02-12 07:18:00,
2013-02-12 02:19:00,37.1,29.9,29.75,SSW,210,2.0,12.0,75,0.00,,,0.00,VWS V14.01,2013-02-12 07:19:00,
2013-02-12 02:20:00,37.1,29.9,29.75,SW,223,0.0,12.0,75,0.00,,,0.00,VWS V14.01,2013-02-12 07:20:00,
2013-02-12 02:21:00,37.1,29.9,29.75,WNW,283,7.0,10.0,75,0.00,,,0.00,VWS V14.01,2013-02-12 07:21:00,
2013-02-12 02:22:00,37.1,29.6,29.75,WSW,246,4.0,12.0,74,0.00,,,0.00,VWS V14.01,2013-02-12 07:22:00,
2013-02-12 02:23:00,37.1,29.6,29.75,SSW,203,1.0,12.0,74,0.00,,,0.00,VWS V14.01,2013-02-12 07:23:00,
2013-02-12 02:24:00,37.1,29.9,29.75,WSW,248,0.0,12.0,75,0.00,,,0.00,VWS V14.01,2013-02-12 07:24:00,
2013-02-12 02:25:00,37.1,29.6,29.75,WSW,250,3.0,12.0,74,0.00,,,0.00,VWS V14.01,2013-02-12 07:25:00,
2013-02-12 02:26:00,37.1,29.9,29.75,West,277,3.0,12.0,75,0.00,,,0.00,VWS V14.01,2013-02-12 07:26:00,
2013-02-12 02:27:00,37.1,29.9,29.75,SW,214,2.0,12.0,75,0.00,,,0.00,VWS V14.01,2013-02-12 07:27:00,
2013-02-12 02:28:00,37.1,29.9,29.75,SE,133,2.0,12.0,75,0.00,,,0.00,VWS V14.01,2013-02-12 07:28:00,
2013-02-12 02:29:00,37.1,29.6,29.75,East,94,0.0,12.0,74,0.00,,,0.00,VWS V14.01,2013-02-12 07:29:00,
2013-02-12 02:30:00,37.1,29.6,29.76,NW,310,7.0,12.0,74,0.00,,,0.00,VWS V14.01,2013-02-12 07:30:00,
2013-02-12 02:31:00,37.1,29.6,29.76,West,271,6.0,11.0,74,0.00,,,0.00,VWS V14.01,2013-02-12 07:31:00,
2013-02-12 02:32:00,37.1,29.6,29.76,WSW,252,5.0,11.0,74,0.00,,,0.00,VWS V14.01,2013-02-12 07:32:00,
2013-02-12 02:33:00,37.1,29.6,29.76,West,280,3.0,11.0,74,0.00,,,0.00,VWS V14.01,2013-02-12 07:33:00,
2013-02-12 02:34:00,37.1,29.6,29.76,SSW,194,3.0,11.0,74,0.00,,,0.00,VWS V14.01,2013-02-12 07:34:00,
2013-02-12 02:35:00,37.1,29.6,29.76,NW,316,4.0,11.0,74,0.00,,,0.00,VWS V14.01,2013-02-12 07:35:00,
2013-02-12 02:36:00,37.1,29.6,29.76,NNW,337,5.0,11.0,74,0.00,,,0.00,VWS V14.01,2013-02-12 07:36:00,
2013-02-12 02:37:00,37.1,29.6,29.76,SSW,209,6.0,11.0,74,0.00,,,0.00,VWS V14.01,2013-02-12 07:37:00,
2013-02-12 02:38:00,37.1,29.6,29.76,SW,215,3.0,11.0,74,0.00,,,0.00,VWS V14.01,2013-02-12 07:38:00,
2013-02-12 02:39:00,37.2,29.7,29.76,NW,313,3.0,11.0,74,0.00,,,0.00,VWS V14.01,2013-02-12 07:39:00,
2013-02-12 02:40:00,37.1,29.6,29.76,NW,315,0.0,11.0,74,0.00,,,0.00,VWS V14.01,2013-02-12 07:40:00,
2013-02-12 02:41:00,37.2,29.7,29.76,West,270,5.0,7.0,74,0.00,,,0.00,VWS V14.01,2013-02-12 07:41:00,
2013-02-12 02:42:00,37.2,29.7,29.76,WNW,283,4.0,7.0,74,0.00,,,0.00,VWS V14.01,2013-02-12 07:42:00,
2013-02-12 02:43:00,37.2,29.7,29.76,WSW,242,0.0,7.0,74,0.00,,,0.00,VWS V14.01,2013-02-12 07:43:00,
2013-02-12 02:44:00,37.2,29.4,29.76,West,264,3.0,7.0,73,0.00,,,0.00,VWS V14.01,2013-02-12 07:44:00,
2013-02-12 02:45:00,37.2,29.7,29.76,West,278,12.0,12.0,74,0.00,,,0.00,VWS V14.01,2013-02-12 07:45:00,
2013-02-12 02:46:00,37.2,29.4,29.76,WSW,253,4.0,12.0,73,0.00,,,0.00,VWS V14.01,2013-02-12 07:46:00,
2013-02-12 02:47:00,37.2,29.4,29.76,West,265,6.0,12.0,73,0.00,,,0.00,VWS V14.01,2013-02-12 07:47:00,
2013-02-12 02:48:00,37.2,29.4,29.76,WSW,254,3.0,12.0,73,0.00,,,0.00,VWS V14.01,2013-02-12 07:48:00,
2013-02-12 02:49:00,37.2,29.4,29.76,NW,314,9.0,12.0,73,0.00,,,0.00,VWS V14.01,2013-02-12 07:49:00,
2013-02-12 02:50:00,37.2,29.4,29.76,WSW,239,4.0,12.0,73,0.00,,,0.00,VWS V14.01,2013-02-12 07:50:00,
2013-02-12 02:51:00,37.2,29.4,29.76,WSW,257,2.0,3.0,73,0.00,,,0.00,VWS V14.01,2013-02-12 07:51:00,
2013-02-12 02:52:00,37.2,29.4,29.76,WNW,293,4.0,4.0,73,0.00,,,0.00,VWS V14.01,2013-02-12 07:52:00,
2013-02-12 02:53:00,37.2,29.4,29.76,WNW,294,3.0,5.0,73,0.00,,,0.00,VWS V14.01,2013-02-12 07:53:00,
2013-02-12 02:54:00,37.1,29.3,29.76,WNW,286,5.0,10.0,73,0.00,,,0.00,VWS V14.01,2013-02-12 07:54:00,
2013-02-12 02:55:00,37.1,29.3,29.76,SW,219,6.0,12.0,73,0.00,,,0.00,VWS V14.01,2013-02-12 07:55:00,
2013-02-12 02:56:00,37.1,29.3,29.76,WSW,257,8.0,12.0,73,0.00,,,0.00,VWS V14.01,2013-02-12 07:56:00,
2013-02-12 02:57:00,37.1,29.3,29.76,NNW,346,0.0,12.0,73,0.00,,,0.00,VWS V14.01,2013-02-12 07:57:00,
2013-02-12 02:58:00,37.1,29.3,29.76,WNW,292,4.0,12.0,73,0.00,,,0.00,VWS V14.01,2013-02-12 07:58:00,
2013-02-12 02:59:00,37.2,29.4,29.76,SW,230,6.0,12.0,73,0.00,,,0.00,VWS V14.01,2013-02-12 07:59:00,
2013-02-12 03:00:00,37.1,29.3,29.75,SW,227,3.0,12.0,73,0.00,,,0.00,VWS V14.01,2013-02-12 08:00:00,
2013-02-12 03:01:00,37.1,29.3,29.75,WSW,252,0.0,3.0,73,0.00,,,0.00,VWS V14.01,2013-02-12 08:01:00,
2013-02-12 03:02:00,37.2,29.4,29.75,WNW,295,4.0,11.0,73,0.00,,,0.00,VWS V14.01,2013-02-12 08:02:00,
2013-02-12 03:03:00,37.1,28.9,29.75,West,265,5.0,11.0,72,0.00,,,0.00,VWS V14.01,2013-02-12 08:03:00,
2013-02-12 03:04:00,37.1,28.9,29.75,WSW,238,5.0,11.0,72,0.00,,,0.00,VWS V14.01,2013-02-12 08:04:00,
2013-02-12 03:05:00,37.1,28.9,29.75,WSW,245,2.0,12.0,72,0.00,,,0.00,VWS V14.01,2013-02-12 08:05:00,
2013-02-12 03:06:00,37.2,29.0,29.75,West,267,2.0,12.0,72,0.00,,,0.00,VWS V14.01,2013-02-12 08:06:00,
2013-02-12 03:07:00,37.1,28.9,29.75,WSW,250,4.0,12.0,72,0.00,,,0.00,VWS V14.01,2013-02-12 08:07:00,
2013-02-12 03:08:00,37.1,28.9,29.75,West,272,4.0,12.0,72,0.00,,,0.00,VWS V14.01,2013-02-12 08:08:00,
2013-02-12 03:09:00,37.1,28.9,29.75,West,269,0.0,12.0,72,0.00,,,0.00,VWS V14.01,2013-02-12 08:09:00,
2013-02-12 03:10:00,37.1,28.9,29.75,WSW,254,2.0,12.0,72,0.00,,,0.00,VWS V14.01,2013-02-12 08:10:00,
2013-02-12 03:11:00,37.1,29.3,29.75,WSW,253,1.0,1.0,73,0.00,,,0.00,VWS V14.01,2013-02-12 08:11:00,
2013-02-12 03:12:00,37.1,29.3,29.75,WSW,253,0.0,3.0,73,0.00,,,0.00,VWS V14.01,2013-02-12 08:12:00,
2013-02-12 03:13:00,37.1,29.3,29.75,NW,310,2.0,7.0,73,0.00,,,0.00,VWS V14.01,2013-02-12 08:13:00,
2013-02-12 03:14:00,37.1,29.3,29.75,NW,310,1.0,7.0,73,0.00,,,0.00,VWS V14.01,2013-02-12 08:14:00,
2013-02-12 03:15:00,37.1,29.3,29.76,WSW,248,4.0,7.0,73,0.00,,,0.00,VWS V14.01,2013-02-12 08:15:00,
2013-02-12 03:16:00,37.0,29.2,29.76,SSW,202,2.0,7.0,73,0.00,,,0.00,VWS V14.01,2013-02-12 08:16:00,
2013-02-12 03:17:00,37.0,29.2,29.76,West,261,3.0,7.0,73,0.00,,,0.00,VWS V14.01,2013-02-12 08:17:00,
2013-02-12 03:18:00,37.0,29.2,29.76,West,261,1.0,7.0,73,0.00,,,0.00,VWS V14.01,2013-02-12 08:18:00,
2013-02-12 03:19:00,37.0,29.2,29.76,SSW,209,4.0,7.0,73,0.00,,,0.00,VWS V14.01,2013-02-12 08:19:00,
2013-02-12 03:20:00,37.0,29.2,29.76,WSW,254,3.0,7.0,73,0.00,,,0.00,VWS V14.01,2013-02-12 08:20:00,
2013-02-12 03:21:00,37.0,29.2,29.76,WSW,254,1.0,3.0,73,0.00,,,0.00,VWS V14.01,2013-02-12 08:21:00,
2013-02-12 03:22:00,37.0,29.2,29.76,West,271,6.0,6.0,73,0.00,,,0.00,VWS V14.01,2013-02-12 08:22:00,
2013-02-12 03:23:00,37.0,29.2,29.76,WSW,253,2.0,6.0,73,0.00,,,0.00,VWS V14.01,2013-02-12 08:23:00,
2013-02-12 03:24:00,37.0,29.2,29.76,West,261,3.0,6.0,73,0.00,,,0.00,VWS V14.01,2013-02-12 08:24:00,
2013-02-12 03:25:00,37.0,29.2,29.76,West,265,1.0,6.0,73,0.00,,,0.00,VWS V14.01,2013-02-12 08:25:00,
2013-02-12 03:26:00,37.0,29.2,29.76,WNW,296,6.0,6.0,73,0.00,,,0.00,VWS V14.01,2013-02-12 08:26:00,
2013-02-12 03:27:00,37.0,29.2,29.76,West,277,6.0,6.0,73,0.00,,,0.00,VWS V14.01,2013-02-12 08:27:00,
2013-02-12 03:28:00,37.0,29.2,29.76,SW,224,2.0,6.0,73,0.00,,,0.00,VWS V14.01,2013-02-12 08:28:00,
2013-02-12 03:29:00,37.0,29.2,29.76,WNW,290,4.0,11.0,73,0.00,,,0.00,VWS V14.01,2013-02-12 08:29:00,
2013-02-12 03:30:00,37.0,29.2,29.76,West,266,7.0,11.0,73,0.00,,,0.00,VWS V14.01,2013-02-12 08:30:00,
2013-02-12 03:31:00,37.0,29.2,29.76,WSW,250,1.0,7.0,73,0.00,,,0.00,VWS V14.01,2013-02-12 08:31:00,
2013-02-12 03:32:00,37.0,29.2,29.76,West,261,6.0,7.0,73,0.00,,,0.00,VWS V14.01,2013-02-12 08:32:00,
2013-02-12 03:33:00,37.0,29.2,29.76,WSW,249,7.0,7.0,73,0.00,,,0.00,VWS V14.01,2013-02-12 08:33:00,
2013-02-12 03:34:00,37.0,29.2,29.76,West,263,5.0,7.0,73,0.00,,,0.00,VWS V14.01,2013-02-12 08:34:00,
2013-02-12 03:35:00,37.0,29.2,29.76,West,264,7.0,9.0,73,0.00,,,0.00,VWS V14.01,2013-02-12 08:35:00,
2013-02-12 03:36:00,37.0,29.2,29.76,West,274,4.0,9.0,73,0.00,,,0.00,VWS V14.01,2013-02-12 08:36:00,
2013-02-12 03:37:00,37.1,29.3,29.76,WSW,246,0.0,9.0,73,0.00,,,0.00,VWS V14.01,2013-02-12 08:37:00,
2013-02-12 03:38:00,37.1,29.3,29.76,West,267,5.0,9.0,73,0.00,,,0.00,VWS V14.01,2013-02-12 08:38:00,
2013-02-12 03:39:00,37.1,29.3,29.76,West,263,11.0,11.0,73,0.00,,,0.00,VWS V14.01,2013-02-12 08:39:00,
2013-02-12 03:40:00,37.1,29.3,29.76,WSW,252,4.0,11.0,73,0.00,,,0.00,VWS V14.01,2013-02-12 08:40:00,
2013-02-12 03:41:00,37.1,29.3,29.76,WSW,255,2.0,7.0,73,0.00,,,0.00,VWS V14.01,2013-02-12 08:41:00,
2013-02-12 03:42:00,37.1,28.9,29.76,West,265,5.0,7.0,72,0.00,,,0.00,VWS V14.01,2013-02-12 08:42:00,
2013-02-12 03:43:00,37.1,29.3,29.76,West,265,0.0,7.0,73,0.00,,,0.00,VWS V14.01,2013-02-12 08:43:00,
2013-02-12 03:44:00,37.1,29.3,29.76,West,271,4.0,7.0,73,0.00,,,0.00,VWS V14.01,2013-02-12 08:44:00,
2013-02-12 03:45:00,37.1,29.3,29.77,WNW,301,4.0,10.0,73,0.00,,,0.00,VWS V14.01,2013-02-12 08:45:00,
2013-02-12 03:46:00,37.1,29.3,29.77,SW,229,0.0,10.0,73,0.00,,,0.00,VWS V14.01,2013-02-12 08:46:00,
2013-02-12 03:47:00,37.1,29.3,29.77,West,274,0.0,10.0,73,0.00,,,0.00,VWS V14.01,2013-02-12 08:47:00,
2013-02-12 03:48:00,37.1,29.3,29.77,West,271,5.0,10.0,73,0.00,,,0.00,VWS V14.01,2013-02-12 08:48:00,
2013-02-12 03:49:00,37.1,29.3,29.77,West,274,0.0,10.0,73,0.00,,,0.00,VWS V14.01,2013-02-12 08:49:00,
2013-02-12 03:50:00,37.1,29.3,29.77,West,270,5.0,10.0,73,0.00,,,0.00,VWS V14.01,2013-02-12 08:50:00,
2013-02-12 03:51:00,37.1,28.9,29.77,WSW,250,2.0,4.0,72,0.00,,,0.00,VWS V14.01,2013-02-12 08:51:00,
2013-02-12 03:52:00,37.1,28.9,29.77,WSW,250,0.0,4.0,72,0.00,,,0.00,VWS V14.01,2013-02-12 08:52:00,
2013-02-12 03:53:00,37.1,28.9,29.77,WSW,250,2.0,4.0,72,0.00,,,0.00,VWS V14.01,2013-02-12 08:53:00,
2013-02-12 03:54:00,37.1,29.3,29.77,WSW,251,2.0,4.0,73,0.00,,,0.00,VWS V14.01,2013-02-12 08:54:00,
2013-02-12 03:55:00,37.1,29.3,29.77,WSW,242,4.0,4.0,73,0.00,,,0.00,VWS V14.01,2013-02-12 08:55:00,
2013-02-12 03:56:00,37.1,29.3,29.77,WSW,242,0.0,4.0,73,0.00,,,0.00,VWS V14.01,2013-02-12 08:56:00,
2013-02-12 03:57:00,37.1,29.3,29.77,West,269,2.0,5.0,73,0.00,,,0.00,VWS V14.01,2013-02-12 08:57:00,
2013-02-12 03:58:00,37.1,29.3,29.77,WSW,252,4.0,5.0,73,0.00,,,0.00,VWS V14.01,2013-02-12 08:58:00,
2013-02-12 03:59:00,37.1,29.3,29.77,West,279,2.0,5.0,73,0.00,,,0.00,VWS V14.01,2013-02-12 08:59:00,
2013-02-12 04:00:00,37.1,29.3,29.77,West,279,0.0,5.0,73,0.00,,,0.00,VWS V14.01,2013-02-12 09:00:00,
2013-02-12 04:01:00,37.1,29.3,29.77,West,266,8.0,10.0,73,0.00,,,0.00,VWS V14.01,2013-02-12 09:01:00,
2013-02-12 04:02:00,37.1,29.3,29.77,SW,232,4.0,10.0,73,0.00,,,0.00,VWS V14.01,2013-02-12 09:02:00,
2013-02-12 04:03:00,37.1,29.3,29.77,SW,226,2.0,10.0,73,0.00,,,0.00,VWS V14.01,2013-02-12 09:03:00,
2013-02-12 04:04:00,37.1,29.3,29.77,WSW,254,7.0,10.0,73,0.00,,,0.00,VWS V14.01,2013-02-12 09:04:00,
2013-02-12 04:05:00,37.1,29.3,29.77,WNW,298,2.0,10.0,73,0.00,,,0.00,VWS V14.01,2013-02-12 09:05:00,
2013-02-12 04:06:00,37.0,29.2,29.77,WNW,298,1.0,10.0,73,0.00,,,0.00,VWS V14.01,2013-02-12 09:06:00,
2013-02-12 04:07:00,37.1,29.3,29.77,West,279,3.0,10.0,73,0.00,,,0.00,VWS V14.01,2013-02-12 09:07:00,
2013-02-12 04:08:00,37.1,29.3,29.77,West,259,8.0,10.0,73,0.00,,,0.00,VWS V14.01,2013-02-12 09:08:00,
2013-02-12 04:09:00,37.1,28.9,29.77,WNW,290,3.0,10.0,72,0.00,,,0.00,VWS V14.01,2013-02-12 09:09:00,
2013-02-12 04:10:00,37.1,29.3,29.77,West,261,6.0,10.0,73,0.00,,,0.00,VWS V14.01,2013-02-12 09:10:00,
2013-02-12 04:11:00,37.1,29.3,29.77,WSW,241,3.0,6.0,73,0.00,,,0.00,VWS V14.01,2013-02-12 09:11:00,
2013-02-12 04:12:00,37.1,29.3,29.77,WNW,284,3.0,6.0,73,0.00,,,0.00,VWS V14.01,2013-02-12 09:12:00,
2013-02-12 04:13:00,37.1,29.3,29.77,West,263,1.0,6.0,73,0.00,,,0.00,VWS V14.01,2013-02-12 09:13:00,
2013-02-12 04:14:00,37.1,29.3,29.77,SW,236,2.0,6.0,73,0.00,,,0.00,VWS V14.01,2013-02-12 09:14:00,
2013-02-12 04:15:00,37.1,29.3,29.77,West,271,4.0,6.0,73,0.00,,,0.00,VWS V14.01,2013-02-12 09:15:00,
2013-02-12 04:16:00,37.1,29.3,29.77,WSW,250,3.0,6.0,73,0.00,,,0.00,VWS V14.01,2013-02-12 09:16:00,
2013-02-12 04:17:00,37.1,29.3,29.77,NW,313,0.0,6.0,73,0.00,,,0.00,VWS V14.01,2013-02-12 09:17:00,
2013-02-12 04:18:00,37.1,28.9,29.77,West,266,4.0,9.0,72,0.00,,,0.00,VWS V14.01,2013-02-12 09:18:00,
2013-02-12 04:19:00,37.1,28.9,29.77,WNW,285,3.0,9.0,72,0.00,,,0.00,VWS V14.01,2013-02-12 09:19:00,
2013-02-12 04:20:00,37.1,28.9,29.77,West,263,4.0,9.0,72,0.00,,,0.00,VWS V14.01,2013-02-12 09:20:00,
2013-02-12 04:21:00,37.2,29.0,29.77,West,267,2.0,6.0,72,0.00,,,0.00,VWS V14.01,2013-02-12 09:21:00,
2013-02-12 04:22:00,37.1,28.9,29.77,WSW,246,5.0,8.0,72,0.00,,,0.00,VWS V14.01,2013-02-12 09:22:00,
2013-02-12 04:23:00,37.2,29.0,29.77,WSW,238,2.0,8.0,72,0.00,,,0.00,VWS V14.01,2013-02-12 09:23:00,
2013-02-12 04:24:00,37.2,29.0,29.77,West,278,2.0,8.0,72,0.00,,,0.00,VWS V14.01,2013-02-12 09:24:00,
2013-02-12 04:25:00,37.1,28.9,29.77,WSW,238,3.0,8.0,72,0.00,,,0.00,VWS V14.01,2013-02-12 09:25:00,
2013-02-12 04:26:00,37.2,29.0,29.77,WSW,258,2.0,8.0,72,0.00,,,0.00,VWS V14.01,2013-02-12 09:26:00,
2013-02-12 04:27:00,37.1,28.9,29.77,WSW,255,0.0,8.0,72,0.00,,,0.00,VWS V14.01,2013-02-12 09:27:00,
2013-02-12 04:28:00,37.1,28.9,29.77,WSW,255,0.0,8.0,72,0.00,,,0.00,VWS V14.01,2013-02-12 09:28:00,
2013-02-12 04:29:00,37.1,28.9,29.77,WNW,294,4.0,8.0,72,0.00,,,0.00,VWS V14.01,2013-02-12 09:29:00,
2013-02-12 04:30:00,37.1,29.3,29.78,WNW,290,5.0,12.0,73,0.00,,,0.00,VWS V14.01,2013-02-12 09:30:00,
2013-02-12 04:31:00,37.1,28.9,29.78,WNW,284,3.0,6.0,72,0.00,,,0.00,VWS V14.01,2013-02-12 09:31:00,
2013-02-12 04:32:00,37.1,28.9,29.78,WSW,254,8.0,10.0,72,0.00,,,0.00,VWS V14.01,2013-02-12 09:32:00,
2013-02-12 04:33:00,37.1,28.9,29.78,WSW,242,4.0,10.0,72,0.00,,,0.00,VWS V14.01,2013-02-12 09:33:00,
2013-02-12 04:34:00,37.1,28.9,29.78,West,272,8.0,10.0,72,0.00,,,0.00,VWS V14.01,2013-02-12 09:34:00,
2013-02-12 04:35:00,37.1,28.9,29.78,WSW,252,9.0,11.0,72,0.00,,,0.00,VWS V14.01,2013-02-12 09:35:00,
2013-02-12 04:36:00,37.1,28.9,29.78,SSW,200,5.0,11.0,72,0.00,,,0.00,VWS V14.01,2013-02-12 09:36:00,
2013-02-12 04:37:00,37.1,28.9,29.78,WSW,257,7.0,11.0,72,0.00,,,0.00,VWS V14.01,2013-02-12 09:37:00,
2013-02-12 04:38:00,37.1,28.9,29.78,West,272,0.0,11.0,72,0.00,,,0.00,VWS V14.01,2013-02-12 09:38:00,
2013-02-12 04:39:00,37.1,28.9,29.78,WSW,251,14.0,14.0,72,0.00,,,0.00,VWS V14.01,2013-02-12 09:39:00,
2013-02-12 04:40:00,37.1,28.9,29.78,WNW,300,2.0,14.0,72,0.00,,,0.00,VWS V14.01,2013-02-12 09:40:00,
2013-02-12 04:41:00,37.1,28.6,29.78,WSW,245,0.0,5.0,71,0.00,,,0.00,VWS V14.01,2013-02-12 09:41:00,
2013-02-12 04:42:00,37.1,28.9,29.78,WSW,237,0.0,5.0,72,0.00,,,0.00,VWS V14.01,2013-02-12 09:42:00,
2013-02-12 04:43:00,37.1,28.9,29.78,South,189,4.0,5.0,72,0.00,,,0.00,VWS V14.01,2013-02-12 09:43:00,
2013-02-12 04:44:00,37.1,28.9,29.78,South,188,0.0,5.0,72,0.00,,,0.00,VWS V14.01,2013-02-12 09:44:00,
2013-02-12 04:45:00,37.1,28.9,29.77,WNW,287,11.0,11.0,72,0.00,,,0.00,VWS V14.01,2013-02-12 09:45:00,
2013-02-12 04:46:00,37.1,28.9,29.77,SW,221,6.0,11.0,72,0.00,,,0.00,VWS V14.01,2013-02-12 09:46:00,
2013-02-12 04:47:00,37.1,28.9,29.77,WSW,256,7.0,11.0,72,0.00,,,0.00,VWS V14.01,2013-02-12 09:47:00,
2013-02-12 04:48:00,37.0,28.8,29.77,WSW,243,9.0,13.0,72,0.00,,,0.00,VWS V14.01,2013-02-12 09:48:00,
2013-02-12 04:49:00,37.0,28.8,29.77,SW,225,2.0,13.0,72,0.00,,,0.00,VWS V14.01,2013-02-12 09:49:00,
2013-02-12 04:50:00,37.0,28.8,29.77,WSW,254,0.0,13.0,72,0.00,,,0.00,VWS V14.01,2013-02-12 09:50:00,
2013-02-12 04:51:00,37.0,28.8,29.77,SSW,209,3.0,4.0,72,0.00,,,0.00,VWS V14.01,2013-02-12 09:51:00,
2013-02-12 04:52:00,37.0,28.8,29.77,West,262,4.0,5.0,72,0.00,,,0.00,VWS V14.01,2013-02-12 09:52:00,
2013-02-12 04:53:00,37.0,28.8,29.77,West,274,3.0,5.0,72,0.00,,,0.00,VWS V14.01,2013-02-12 09:53:00,
2013-02-12 04:54:00,37.0,28.8,29.77,SW,221,2.0,5.0,72,0.00,,,0.00,VWS V14.01,2013-02-12 09:54:00,
2013-02-12 04:55:00,37.0,28.8,29.77,WNW,301,7.0,11.0,72,0.00,,,0.00,VWS V14.01,2013-02-12 09:55:00,
2013-02-12 04:56:00,37.0,28.8,29.77,SW,225,5.0,11.0,72,0.00,,,0.00,VWS V14.01,2013-02-12 09:56:00,
2013-02-12 04:57:00,37.0,28.5,29.77,WSW,240,10.0,11.0,71,0.00,,,0.00,VWS V14.01,2013-02-12 09:57:00,
2013-02-12 04:58:00,37.0,28.5,29.77,SW,231,1.0,11.0,71,0.00,,,0.00,VWS V14.01,2013-02-12 09:58:00,
2013-02-12 04:59:00,37.0,28.5,29.77,NW,305,7.0,11.0,71,0.00,,,0.00,VWS V14.01,2013-02-12 09:59:00,
2013-02-12 05:00:00,37.0,28.5,29.78,NW,319,2.0,11.0,71,0.00,,,0.00,VWS V14.01,2013-02-12 10:00:00,
2013-02-12 05:01:00,37.0,28.5,29.78,WNW,286,3.0,8.0,71,0.00,,,0.00,VWS V14.01,2013-02-12 10:01:00,
2013-02-12 05:02:00,37.0,28.5,29.78,ESE,108,2.0,8.0,71,0.00,,,0.00,VWS V14.01,2013-02-12 10:02:00,
2013-02-12 05:03:00,37.0,28.5,29.78,WSW,244,6.0,8.0,71,0.00,,,0.00,VWS V14.01,2013-02-12 10:03:00,
2013-02-12 05:04:00,37.0,28.8,29.78,WSW,248,9.0,9.0,72,0.00,,,0.00,VWS V14.01,2013-02-12 10:04:00,
2013-02-12 05:05:00,36.9,28.4,29.78,West,275,5.0,19.0,71,0.00,,,0.00,VWS V14.01,2013-02-12 10:05:00,
2013-02-12 05:06:00,36.9,28.4,29.78,WSW,254,10.0,19.0,71,0.00,,,0.00,VWS V14.01,2013-02-12 10:06:00,
2013-02-12 05:07:00,36.9,28.4,29.78,SW,220,4.0,19.0,71,0.00,,,0.00,VWS V14.01,2013-02-12 10:07:00,
2013-02-12 05:08:00,36.9,28.4,29.78,WSW,242,1.0,19.0,71,0.00,,,0.00,VWS V14.01,2013-02-12 10:08:00,
2013-02-12 05:09:00,36.9,28.4,29.78,WSW,251,5.0,19.0,71,0.00,,,0.00,VWS V14.01,2013-02-12 10:09:00,
2013-02-12 05:10:00,36.9,28.4,29.78,WNW,300,4.0,19.0,71,0.00,,,0.00,VWS V14.01,2013-02-12 10:10:00,
2013-02-12 05:11:00,36.9,28.4,29.78,WNW,294,1.0,5.0,71,0.00,,,0.00,VWS V14.01,2013-02-12 10:11:00,
2013-02-12 05:12:00,36.9,28.4,29.78,WNW,286,0.0,5.0,71,0.00,,,0.00,VWS V14.01,2013-02-12 10:12:00,
2013-02-12 05:13:00,36.9,28.4,29.78,WSW,253,3.0,5.0,71,0.00,,,0.00,VWS V14.01,2013-02-12 10:13:00,
2013-02-12 05:14:00,36.9,28.4,29.78,West,269,1.0,6.0,71,0.00,,,0.00,VWS V14.01,2013-02-12 10:14:00,
2013-02-12 05:15:00,36.9,28.4,29.78,WSW,241,3.0,6.0,71,0.00,,,0.00,VWS V14.01,2013-02-12 10:15:00,
2013-02-12 05:16:00,36.9,28.4,29.78,West,269,5.0,9.0,71,0.00,,,0.00,VWS V14.01,2013-02-12 10:16:00,
2013-02-12 05:17:00,36.8,28.6,29.78,WSW,255,7.0,9.0,72,0.00,,,0.00,VWS V14.01,2013-02-12 10:17:00,
2013-02-12 05:18:00,36.8,28.3,29.78,West,279,4.0,9.0,71,0.00,,,0.00,VWS V14.01,2013-02-12 10:18:00,
2013-02-12 05:19:00,36.8,28.3,29.78,WSW,257,2.0,9.0,71,0.00,,,0.00,VWS V14.01,2013-02-12 10:19:00,
2013-02-12 05:20:00,36.8,28.3,29.78,West,267,4.0,9.0,71,0.00,,,0.00,VWS V14.01,2013-02-12 10:20:00,
2013-02-12 05:21:00,36.8,28.3,29.78,SSW,211,0.0,4.0,71,0.00,,,0.00,VWS V14.01,2013-02-12 10:21:00,
2013-02-12 05:22:00,36.8,28.3,29.78,West,268,4.0,4.0,71,0.00,,,0.00,VWS V14.01,2013-02-12 10:22:00,
2013-02-12 05:23:00,36.8,28.3,29.78,West,271,4.0,6.0,71,0.00,,,0.00,VWS V14.01,2013-02-12 10:23:00,
2013-02-12 05:24:00,36.8,28.3,29.78,West,269,0.0,6.0,71,0.00,,,0.00,VWS V14.01,2013-02-12 10:24:00,
2013-02-12 05:25:00,36.8,28.6,29.78,West,269,0.0,6.0,72,0.00,,,0.00,VWS V14.01,2013-02-12 10:25:00,
2013-02-12 05:26:00,36.8,28.6,29.78,West,280,7.0,9.0,72,0.00,,,0.00,VWS V14.01,2013-02-12 10:26:00,
2013-02-12 05:27:00,36.7,28.5,29.78,WNW,284,1.0,9.0,72,0.00,,,0.00,VWS V14.01,2013-02-12 10:27:00,
2013-02-12 05:28:00,36.7,28.5,29.78,West,281,4.0,9.0,72,0.00,,,0.00,VWS V14.01,2013-02-12 10:28:00,
2013-02-12 05:29:00,36.7,28.5,29.78,SW,228,5.0,9.0,72,0.00,,,0.00,VWS V14.01,2013-02-12 10:29:00,
2013-02-12 05:30:00,36.7,28.5,29.78,WSW,247,7.0,10.0,72,0.00,,,0.00,VWS V14.01,2013-02-12 10:30:00,
2013-02-12 05:31:00,36.7,28.5,29.78,NW,309,2.0,8.0,72,0.00,,,0.00,VWS V14.01,2013-02-12 10:31:00,
2013-02-12 05:32:00,36.7,28.5,29.78,WSW,249,0.0,8.0,72,0.00,,,0.00,VWS V14.01,2013-02-12 10:32:00,
2013-02-12 05:33:00,36.7,28.5,29.78,SW,215,5.0,8.0,72,0.00,,,0.00,VWS V14.01,2013-02-12 10:33:00,
2013-02-12 05:34:00,36.7,28.5,29.78,WNW,294,3.0,8.0,72,0.00,,,0.00,VWS V14.01,2013-02-12 10:34:00,
2013-02-12 05:35:00,36.6,28.4,29.78,SSW,205,5.0,9.0,72,0.00,,,0.00,VWS V14.01,2013-02-12 10:35:00,
2013-02-12 05:36:00,36.6,28.4,29.78,SW,229,8.0,9.0,72,0.00,,,0.00,VWS V14.01,2013-02-12 10:36:00,
2013-02-12 05:37:00,36.6,28.4,29.78,West,269,1.0,9.0,72,0.00,,,0.00,VWS V14.01,2013-02-12 10:37:00,
2013-02-12 05:38:00,36.6,28.4,29.78,West,269,0.0,9.0,72,0.00,,,0.00,VWS V14.01,2013-02-12 10:38:00,
2013-02-12 05:39:00,36.6,28.4,29.78,SW,225,1.0,9.0,72,0.00,,,0.00,VWS V14.01,2013-02-12 10:39:00,
2013-02-12 05:40:00,36.6,28.4,29.78,SW,225,1.0,9.0,72,0.00,,,0.00,VWS V14.01,2013-02-12 10:40:00,
2013-02-12 05:41:00,36.6,28.4,29.78,SSE,161,1.0,2.0,72,0.00,,,0.00,VWS V14.01,2013-02-12 10:41:00,
2013-02-12 05:42:00,36.6,28.4,29.78,SW,215,3.0,3.0,72,0.00,,,0.00,VWS V14.01,2013-02-12 10:42:00,
2013-02-12 05:43:00,36.6,28.4,29.78,SW,229,7.0,11.0,72,0.00,,,0.00,VWS V14.01,2013-02-12 10:43:00,
2013-02-12 05:44:00,36.6,28.4,29.78,WSW,240,2.0,11.0,72,0.00,,,0.00,VWS V14.01,2013-02-12 10:44:00,
2013-02-12 05:45:00,36.6,28.4,29.78,West,260,4.0,11.0,72,0.00,,,0.00,VWS V14.01,2013-02-12 10:45:00,
2013-02-12 05:46:00,36.6,28.4,29.78,WSW,250,5.0,11.0,72,0.00,,,0.00,VWS V14.01,2013-02-12 10:46:00,
2013-02-12 05:47:00,36.6,28.4,29.78,West,267,6.0,11.0,72,0.00,,,0.00,VWS V14.01,2013-02-12 10:47:00,
2013-02-12 05:48:00,36.6,28.4,29.78,West,265,3.0,11.0,72,0.00,,,0.00,VWS V14.01,2013-02-12 10:48:00,
2013-02-12 05:49:00,36.5,28.4,29.78,WSW,237,3.0,11.0,72,0.00,,,0.00,VWS V14.01,2013-02-12 10:49:00,
2013-02-12 05:50:00,36.6,28.4,29.78,WNW,283,7.0,11.0,72,0.00,,,0.00,VWS V14.01,2013-02-12 10:50:00,
2013-02-12 05:51:00,36.5,28.4,29.78,WSW,255,4.0,7.0,72,0.00,,,0.00,VWS V14.01,2013-02-12 10:51:00,
2013-02-12 05:52:00,36.6,28.4,29.78,WSW,238,7.0,7.0,72,0.00,,,0.00,VWS V14.01,2013-02-12 10:52:00,
2013-02-12 05:53:00,36.5,28.4,29.78,West,271,3.0,8.0,72,0.00,,,0.00,VWS V14.01,2013-02-12 10:53:00,
2013-02-12 05:54:00,36.5,28.4,29.78,West,263,2.0,8.0,72,0.00,,,0.00,VWS V14.01,2013-02-12 10:54:00,
2013-02-12 05:55:00,36.5,28.4,29.78,WNW,284,2.0,8.0,72,0.00,,,0.00,VWS V14.01,2013-02-12 10:55:00,
2013-02-12 05:56:00,36.5,28.4,29.78,SW,226,0.0,8.0,72,0.00,,,0.00,VWS V14.01,2013-02-12 10:56:00,
2013-02-12 05:57:00,36.5,28.0,29.78,WNW,284,7.0,16.0,71,0.00,,,0.00,VWS V14.01,2013-02-12 10:57:00,
2013-02-12 05:58:00,36.5,28.0,29.78,WSW,237,4.0,16.0,71,0.00,,,0.00,VWS V14.01,2013-02-12 10:58:00,
2013-02-12 05:59:00,36.5,28.0,29.78,West,272,5.0,16.0,71,0.00,,,0.00,VWS V14.01,2013-02-12 10:59:00,
2013-02-12 06:00:00,36.5,28.0,29.79,West,259,2.0,16.0,71,0.00,,,0.00,VWS V14.01,2013-02-12 11:00:00,
2013-02-12 06:01:00,36.5,28.0,29.79,NNW,335,4.0,4.0,71,0.00,,,0.00,VWS V14.01,2013-02-12 11:01:00,
2013-02-12 06:02:00,36.6,28.1,29.79,WSW,246,2.0,6.0,71,0.00,,,0.00,VWS V14.01,2013-02-12 11:02:00,
2013-02-12 06:03:00,36.6,28.1,29.79,WSW,255,3.0,6.0,71,0.00,,,0.00,VWS V14.01,2013-02-12 11:03:00,
2013-02-12 06:04:00,36.5,28.0,29.79,WSW,242,2.0,6.0,71,0.00,,,0.00,VWS V14.01,2013-02-12 11:04:00,
2013-02-12 06:05:00,36.5,28.0,29.79,WSW,250,4.0,6.0,71,0.00,,,0.00,VWS V14.01,2013-02-12 11:05:00,
2013-02-12 06:06:00,36.5,28.0,29.79,WSW,241,8.0,8.0,71,0.00,,,0.00,VWS V14.01,2013-02-12 11:06:00,
2013-02-12 06:07:00,36.5,28.0,29.79,WSW,250,4.0,12.0,71,0.00,,,0.00,VWS V14.01,2013-02-12 11:07:00,
2013-02-12 06:08:00,36.5,28.0,29.79,West,264,6.0,12.0,71,0.00,,,0.00,VWS V14.01,2013-02-12 11:08:00,
2013-02-12 06:09:00,36.5,28.0,29.79,WNW,282,6.0,12.0,71,0.00,,,0.00,VWS V14.01,2013-02-12 11:09:00,
2013-02-12 06:10:00,36.5,28.0,29.79,SSW,205,2.0,12.0,71,0.00,,,0.00,VWS V14.01,2013-02-12 11:10:00,
2013-02-12 06:11:00,36.5,28.0,29.79,West,276,3.0,5.0,71,0.00,,,0.00,VWS V14.01,2013-02-12 11:11:00,
2013-02-12 06:12:00,36.5,28.0,29.79,West,275,6.0,12.0,71,0.00,,,0.00,VWS V14.01,2013-02-12 11:12:00,
2013-02-12 06:13:00,36.5,28.0,29.79,SW,236,5.0,12.0,71,0.00,,,0.00,VWS V14.01,2013-02-12 11:13:00,
2013-02-12 06:14:00,36.5,28.0,29.79,West,266,2.0,12.0,71,0.00,,,0.00,VWS V14.01,2013-02-12 11:14:00,
2013-02-12 06:15:00,36.5,28.0,29.80,West,261,4.0,12.0,71,0.00,,,0.00,VWS V14.01,2013-02-12 11:15:00,
2013-02-12 06:16:00,36.5,28.0,29.80,WSW,242,4.0,12.0,71,0.00,,,0.00,VWS V14.01,2013-02-12 11:16:00,
2013-02-12 06:17:00,36.5,28.0,29.80,West,261,2.0,12.0,71,0.00,,,0.00,VWS V14.01,2013-02-12 11:17:00,
2013-02-12 06:18:00,36.4,27.9,29.80,SW,221,6.0,12.0,71,0.00,,,0.00,VWS V14.01,2013-02-12 11:18:00,
2013-02-12 06:19:00,36.5,28.0,29.80,WNW,288,6.0,12.0,71,0.00,,,0.00,VWS V14.01,2013-02-12 11:19:00,
2013-02-12 06:20:00,36.4,27.9,29.80,WNW,290,1.0,12.0,71,0.00,,,0.00,VWS V14.01,2013-02-12 11:20:00,
2013-02-12 06:21:00,36.5,28.0,29.80,West,261,3.0,8.0,71,0.00,,,0.00,VWS V14.01,2013-02-12 11:21:00,
2013-02-12 06:22:00,36.5,28.0,29.80,West,261,2.0,8.0,71,0.00,,,0.00,VWS V14.01,2013-02-12 11:22:00,
2013-02-12 06:23:00,36.5,28.0,29.80,WNW,288,6.0,8.0,71,0.00,,,0.00,VWS V14.01,2013-02-12 11:23:00,
2013-02-12 06:24:00,36.5,28.0,29.80,SW,219,4.0,9.0,71,0.00,,,0.00,VWS V14.01,2013-02-12 11:24:00,
2013-02-12 06:25:00,36.5,28.0,29.80,West,279,5.0,9.0,71,0.00,,,0.00,VWS V14.01,2013-02-12 11:25:00,
2013-02-12 06:26:00,36.5,28.0,29.80,WSW,239,5.0,9.0,71,0.00,,,0.00,VWS V14.01,2013-02-12 11:26:00,
2013-02-12 06:27:00,36.5,28.0,29.80,West,274,4.0,9.0,71,0.00,,,0.00,VWS V14.01,2013-02-12 11:27:00,
2013-02-12 06:28:00,36.5,27.7,29.80,WNW,286,7.0,9.0,70,0.00,,,0.00,VWS V14.01,2013-02-12 11:28:00,
2013-02-12 06:29:00,36.5,27.7,29.80,WNW,300,3.0,9.0,70,0.00,,,0.00,VWS V14.01,2013-02-12 11:29:00,
2013-02-12 06:30:00,36.5,28.0,29.81,WSW,256,6.0,9.0,71,0.00,,,0.00,VWS V14.01,2013-02-12 11:30:00,
2013-02-12 06:31:00,36.5,27.7,29.81,West,265,4.0,7.0,70,0.00,,,0.00,VWS V14.01,2013-02-12 11:31:00,
2013-02-12 06:32:00,36.5,28.0,29.81,SW,235,8.0,8.0,71,0.00,,,0.00,VWS V14.01,2013-02-12 11:32:00,
2013-02-12 06:33:00,36.5,27.7,29.81,SW,214,4.0,9.0,70,0.00,,,0.00,VWS V14.01,2013-02-12 11:33:00,
2013-02-12 06:34:00,36.5,28.0,29.81,WSW,237,11.0,11.0,71,0.00,,,0.00,VWS V14.01,2013-02-12 11:34:00,
2013-02-12 06:35:00,36.5,28.0,29.81,West,277,4.0,12.0,71,0.00,,,0.00,VWS V14.01,2013-02-12 11:35:00,
2013-02-12 06:36:00,36.5,27.7,29.81,SW,224,3.0,12.0,70,0.00,,,0.00,VWS V14.01,2013-02-12 11:36:00,
2013-02-12 06:37:00,36.5,28.0,29.81,West,266,2.0,12.0,71,0.00,,,0.00,VWS V14.01,2013-02-12 11:37:00,
2013-02-12 06:38:00,36.5,28.0,29.81,WSW,238,2.0,12.0,71,0.00,,,0.00,VWS V14.01,2013-02-12 11:38:00,
2013-02-12 06:39:00,36.4,27.6,29.81,WSW,253,8.0,12.0,70,0.00,,,0.00,VWS V14.01,2013-02-12 11:39:00,
2013-02-12 06:40:00,36.4,27.6,29.81,SW,219,2.0,12.0,70,0.00,,,0.00,VWS V14.01,2013-02-12 11:40:00,
2013-02-12 06:41:00,36.5,27.7,29.81,West,263,2.0,6.0,70,0.00,,,0.00,VWS V14.01,2013-02-12 11:41:00,
2013-02-12 06:42:00,36.4,27.6,29.81,WNW,290,4.0,6.0,70,0.00,,,0.00,VWS V14.01,2013-02-12 11:42:00,
2013-02-12 06:43:00,36.4,27.6,29.81,SSW,209,1.0,6.0,70,0.00,,,0.00,VWS V14.01,2013-02-12 11:43:00,
2013-02-12 06:44:00,36.4,27.6,29.81,SSW,209,1.0,6.0,70,0.00,,,0.00,VWS V14.01,2013-02-12 11:44:00,
2013-02-12 06:45:00,36.4,27.9,29.81,SSW,209,1.0,6.0,71,0.00,,,0.00,VWS V14.01,2013-02-12 11:45:00,
2013-02-12 06:46:00,36.4,27.9,29.81,West,269,5.0,8.0,71,0.00,,,0.00,VWS V14.01,2013-02-12 11:46:00,
2013-02-12 06:47:00,36.4,27.9,29.81,WSW,238,6.0,8.0,71,0.00,,,0.00,VWS V14.01,2013-02-12 11:47:00,
2013-02-12 06:48:00,36.4,27.9,29.81,WNW,290,4.0,8.0,71,0.00,,,0.00,VWS V14.01,2013-02-12 11:48:00,
2013-02-12 06:49:00,36.4,27.9,29.81,WSW,254,11.0,11.0,71,0.00,,,0.00,VWS V14.01,2013-02-12 11:49:00,
2013-02-12 06:50:00,36.4,27.9,29.81,West,277,0.0,11.0,71,0.00,,,0.00,VWS V14.01,2013-02-12 11:50:00,
2013-02-12 06:51:00,36.4,27.9,29.81,West,275,1.0,2.0,71,0.00,,,0.00,VWS V14.01,2013-02-12 11:51:00,
2013-02-12 06:52:00,36.4,27.9,29.81,West,272,0.0,2.0,71,0.00,,,0.00,VWS V14.01,2013-02-12 11:52:00,
2013-02-12 06:53:00,36.3,27.8,29.81,West,278,7.0,7.0,71,0.00,,,0.00,VWS V14.01,2013-02-12 11:53:00,
2013-02-12 06:54:00,36.3,27.8,29.81,WSW,240,3.0,7.0,71,0.00,,,0.00,VWS V14.01,2013-02-12 11:54:00,
2013-02-12 06:55:00,36.3,27.8,29.81,WSW,248,7.0,7.0,71,0.00,,,0.00,VWS V14.01,2013-02-12 11:55:00,
2013-02-12 06:56:00,36.3,27.8,29.81,SW,225,4.0,8.0,71,0.00,,,0.00,VWS V14.01,2013-02-12 11:56:00,
2013-02-12 06:57:00,36.3,27.8,29.81,West,259,6.0,8.0,71,0.00,,,0.00,VWS V14.01,2013-02-12 11:57:00,
2013-02-12 06:58:00,36.3,27.8,29.81,WSW,253,11.0,11.0,71,0.00,,,0.00,VWS V14.01,2013-02-12 11:58:00,
2013-02-12 06:59:00,36.3,27.8,29.81,West,267,3.0,11.0,71,0.00,,,0.00,VWS V14.01,2013-02-12 11:59:00,
2013-02-12 07:00:00,36.3,27.8,29.81,SSW,194,1.0,11.0,71,0.00,,,0.00,VWS V14.01,2013-02-12 12:00:00,
2013-02-12 07:01:00,36.3,27.8,29.81,SSW,195,0.0,2.0,71,0.00,,,0.00,VWS V14.01,2013-02-12 12:01:00,
2013-02-12 07:02:00,36.3,27.8,29.81,SSW,195,2.0,3.0,71,0.00,,,0.00,VWS V14.01,2013-02-12 12:02:00,
2013-02-12 07:03:00,36.3,27.8,29.81,SW,222,5.0,7.0,71,0.00,,,0.00,VWS V14.01,2013-02-12 12:03:00,
2013-02-12 07:04:00,36.3,27.8,29.81,WSW,255,6.0,7.0,71,0.00,,,0.00,VWS V14.01,2013-02-12 12:04:00,
2013-02-12 07:05:00,36.3,27.8,29.81,WNW,284,2.0,7.0,71,0.00,,,0.00,VWS V14.01,2013-02-12 12:05:00,
2013-02-12 07:06:00,36.3,27.8,29.81,WNW,285,4.0,8.0,71,0.00,,,0.00,VWS V14.01,2013-02-12 12:06:00,
2013-02-12 07:07:00,36.3,27.8,29.81,West,261,5.0,8.0,71,0.00,,,0.00,VWS V14.01,2013-02-12 12:07:00,
2013-02-12 07:08:00,36.3,27.8,29.81,SW,236,0.0,8.0,71,0.00,,,0.00,VWS V14.01,2013-02-12 12:08:00,
2013-02-12 07:09:00,36.3,27.8,29.81,WSW,255,2.0,8.0,71,0.00,,,0.00,VWS V14.01,2013-02-12 12:09:00,
2013-02-12 07:10:00,36.3,27.8,29.81,WSW,252,3.0,8.0,71,0.00,,,0.00,VWS V14.01,2013-02-12 12:10:00,
2013-02-12 07:11:00,36.3,27.8,29.81,West,263,9.0,9.0,71,0.00,,,0.00,VWS V14.01,2013-02-12 12:11:00,
2013-02-12 07:12:00,36.3,27.8,29.81,WSW,250,4.0,9.0,71,0.00,,,0.00,VWS V14.01,2013-02-12 12:12:00,
2013-02-12 07:13:00,36.3,27.8,29.81,West,281,3.0,9.0,71,0.00,,,0.00,VWS V14.01,2013-02-12 12:13:00,
2013-02-12 07:14:00,36.3,27.8,29.81,West,281,3.0,9.0,71,0.00,,,0.00,VWS V14.01,2013-02-12 12:14:00,
2013-02-12 07:15:00,36.3,27.8,29.82,NW,305,1.0,9.0,71,0.00,,,0.00,VWS V14.01,2013-02-12 12:15:00,
2013-02-12 07:16:00,36.3,27.8,29.82,WNW,289,6.0,9.0,71,0.00,,,0.00,VWS V14.01,2013-02-12 12:16:00,
2013-02-12 07:17:00,36.3,27.8,29.82,West,279,0.0,9.0,71,0.00,,,0.00,VWS V14.01,2013-02-12 12:17:00,
2013-02-12 07:18:00,36.3,27.8,29.82,West,269,0.0,9.0,71,0.00,,,0.00,VWS V14.01,2013-02-12 12:18:00,
2013-02-12 07:19:00,36.3,27.8,29.82,WSW,240,4.0,9.0,71,0.00,,,0.00,VWS V14.01,2013-02-12 12:19:00,
2013-02-12 07:20:00,36.3,27.8,29.82,West,279,4.0,9.0,71,0.00,,,0.00,VWS V14.01,2013-02-12 12:20:00,
2013-02-12 07:21:00,36.3,27.8,29.82,West,278,2.0,4.0,71,0.00,,,0.00,VWS V14.01,2013-02-12 12:21:00,
2013-02-12 07:22:00,36.3,27.8,29.82,WSW,252,6.0,6.0,71,0.00,,,0.00,VWS V14.01,2013-02-12 12:22:00,
2013-02-12 07:23:00,36.3,27.8,29.82,WSW,246,3.0,6.0,71,0.00,,,0.00,VWS V14.01,2013-02-12 12:23:00,
2013-02-12 07:24:00,36.3,27.8,29.82,WSW,246,3.0,6.0,71,0.00,,,0.00,VWS V14.01,2013-02-12 12:24:00,
2013-02-12 07:25:00,36.3,27.8,29.82,NW,315,0.0,6.0,71,0.00,,,0.00,VWS V14.01,2013-02-12 12:25:00,
2013-02-12 07:26:00,36.3,27.8,29.82,NW,312,1.0,6.0,71,0.00,,,0.00,VWS V14.01,2013-02-12 12:26:00,
2013-02-12 07:27:00,36.4,27.9,29.82,West,275,1.0,6.0,71,0.00,,,0.00,VWS V14.01,2013-02-12 12:27:00,
2013-02-12 07:28:00,36.3,27.8,29.82,WSW,246,1.0,6.0,71,0.00,,,0.00,VWS V14.01,2013-02-12 12:28:00,
2013-02-12 07:29:00,36.3,27.8,29.82,NW,316,5.0,8.0,71,0.00,,,0.00,VWS V14.01,2013-02-12 12:29:00,
2013-02-12 07:30:00,36.3,27.8,29.83,SSW,208,4.0,8.0,71,0.00,,,0.00,VWS V14.01,2013-02-12 12:30:00,
2013-02-12 07:31:00,36.4,27.9,29.83,West,266,9.0,9.0,71,0.00,,,0.00,VWS V14.01,2013-02-12 12:31:00,
2013-02-12 07:32:00,36.4,27.9,29.83,WSW,245,5.0,9.0,71,0.00,,,0.00,VWS V14.01,2013-02-12 12:32:00,
2013-02-12 07:33:00,36.4,27.9,29.83,West,259,5.0,9.0,71,0.00,,,0.00,VWS V14.01,2013-02-12 12:33:00,
2013-02-12 07:34:00,36.4,27.9,29.83,WSW,257,5.0,9.0,71,0.00,,,0.00,VWS V14.01,2013-02-12 12:34:00,
2013-02-12 07:35:00,36.4,27.9,29.83,WSW,257,3.0,9.0,71,0.00,,,0.00,VWS V14.01,2013-02-12 12:35:00,
2013-02-12 07:36:00,36.4,27.9,29.83,West,262,3.0,9.0,71,0.00,,,0.00,VWS V14.01,2013-02-12 12:36:00,
2013-02-12 07:37:00,36.5,28.0,29.83,West,262,1.0,9.0,71,0.00,,,0.00,VWS V14.01,2013-02-12 12:37:00,
2013-02-12 07:38:00,36.5,28.0,29.83,West,271,4.0,9.0,71,0.00,,,0.00,VWS V14.01,2013-02-12 12:38:00,
2013-02-12 07:39:00,36.5,28.0,29.83,West,264,4.0,9.0,71,0.00,,,0.00,VWS V14.01,2013-02-12 12:39:00,
2013-02-12 07:40:00,36.5,27.7,29.83,West,262,5.0,9.0,70,0.00,,,0.00,VWS V14.01,2013-02-12 12:40:00,
2013-02-12 07:41:00,36.5,28.0,29.83,West,272,2.0,6.0,71,0.00,,,0.00,VWS V14.01,2013-02-12 12:41:00,
2013-02-12 07:42:00,36.6,28.1,29.83,SW,222,5.0,6.0,71,0.00,,,0.00,VWS V14.01,2013-02-12 12:42:00,
2013-02-12 07:43:00,36.6,28.1,29.83,South,171,3.0,8.0,71,0.00,,,0.00,VWS V14.01,2013-02-12 12:43:00,
2013-02-12 07:44:00,36.6,28.1,29.83,West,259,6.0,8.0,71,0.00,,,0.00,VWS V14.01,2013-02-12 12:44:00,
2013-02-12 07:45:00,36.6,28.1,29.83,WSW,257,4.0,8.0,71,0.00,,,0.00,VWS V14.01,2013-02-12 12:45:00,
2013-02-12 07:46:00,36.7,27.9,29.83,West,263,6.0,8.0,70,0.00,,,0.00,VWS V14.01,2013-02-12 12:46:00,
2013-02-12 07:47:00,36.7,27.9,29.83,West,276,7.0,9.0,70,0.00,,,0.00,VWS V14.01,2013-02-12 12:47:00,
2013-02-12 07:48:00,36.8,28.0,29.83,WSW,254,7.0,9.0,70,0.00,,,0.00,VWS V14.01,2013-02-12 12:48:00,
2013-02-12 07:49:00,36.8,28.0,29.83,WNW,292,3.0,9.0,70,0.00,,,0.00,VWS V14.01,2013-02-12 12:49:00,
2013-02-12 07:50:00,36.9,28.0,29.83,West,277,6.0,9.0,70,0.00,,,0.00,VWS V14.01,2013-02-12 12:50:00,
2013-02-12 07:51:00,36.9,28.0,29.83,SW,230,3.0,6.0,70,0.00,,,0.00,VWS V14.01,2013-02-12 12:51:00,
2013-02-12 07:52:00,37.0,28.1,29.83,West,272,2.0,7.0,70,0.00,,,0.00,VWS V14.01,2013-02-12 12:52:00,
2013-02-12 07:53:00,37.1,28.2,29.83,WSW,249,9.0,9.0,70,0.00,,,0.00,VWS V14.01,2013-02-12 12:53:00,
2013-02-12 07:54:00,37.1,28.2,29.83,WSW,250,6.0,9.0,70,0.00,,,0.00,VWS V14.01,2013-02-12 12:54:00,
2013-02-12 07:55:00,37.2,28.3,29.83,West,269,7.0,10.0,70,0.00,,,0.00,VWS V14.01,2013-02-12 12:55:00,
2013-02-12 07:56:00,37.3,28.1,29.83,WSW,244,6.0,10.0,69,0.00,,,0.00,VWS V14.01,2013-02-12 12:56:00,
2013-02-12 07:57:00,37.3,28.1,29.83,WNW,284,0.0,10.0,69,0.00,,,0.00,VWS V14.01,2013-02-12 12:57:00,
2013-02-12 07:58:00,37.4,28.2,29.83,West,259,4.0,10.0,69,0.00,,,0.00,VWS V14.01,2013-02-12 12:58:00,
2013-02-12 07:59:00,37.4,28.2,29.83,SSW,209,5.0,10.0,69,0.00,,,0.00,VWS V14.01,2013-02-12 12:59:00,
2013-02-12 08:00:00,37.5,28.3,29.83,West,275,2.0,10.0,69,0.00,,,0.00,VWS V14.01,2013-02-12 13:00:00,
2013-02-12 08:01:00,37.6,28.4,29.83,NW,309,5.0,6.0,69,0.00,,,0.00,VWS V14.01,2013-02-12 13:01:00,
2013-02-12 08:02:00,37.6,28.4,29.83,West,263,4.0,6.0,69,0.00,,,0.00,VWS V14.01,2013-02-12 13:02:00,
2013-02-12 08:03:00,37.7,28.5,29.83,WSW,240,4.0,7.0,69,0.00,,,0.00,VWS V14.01,2013-02-12 13:03:00,
2013-02-12 08:04:00,37.7,28.5,29.83,WSW,258,1.0,7.0,69,0.00,,,0.00,VWS V14.01,2013-02-12 13:04:00,
2013-02-12 08:05:00,37.8,28.6,29.83,SW,221,4.0,7.0,69,0.00,,,0.00,VWS V14.01,2013-02-12 13:05:00,
2013-02-12 08:06:00,37.9,28.6,29.83,West,267,3.0,7.0,69,0.00,,,0.00,VWS V14.01,2013-02-12 13:06:00,
2013-02-12 08:07:00,37.9,28.6,29.83,WSW,247,9.0,9.0,69,0.00,,,0.00,VWS V14.01,2013-02-12 13:07:00,
2013-02-12 08:08:00,38.0,28.4,29.83,NNW,347,3.0,11.0,68,0.00,,,0.00,VWS V14.01,2013-02-12 13:08:00,
2013-02-12 08:09:00,38.0,28.4,29.83,WSW,246,9.0,11.0,68,0.00,,,0.00,VWS V14.01,2013-02-12 13:09:00,
2013-02-12 08:10:00,38.1,28.5,29.83,WSW,257,3.0,11.0,68,0.00,,,0.00,VWS V14.01,2013-02-12 13:10:00,
2013-02-12 08:11:00,38.2,28.6,29.83,West,277,7.0,7.0,68,0.00,,,0.00,VWS V14.01,2013-02-12 13:11:00,
2013-02-12 08:12:00,38.2,28.2,29.83,WSW,253,1.0,7.0,67,0.00,,,0.00,VWS V14.01,2013-02-12 13:12:00,
2013-02-12 08:13:00,38.3,28.3,29.83,West,273,4.0,7.0,67,0.00,,,0.00,VWS V14.01,2013-02-12 13:13:00,
2013-02-12 08:14:00,38.4,28.8,29.83,West,276,2.0,7.0,68,0.00,,,0.00,VWS V14.01,2013-02-12 13:14:00,
2013-02-12 08:15:00,38.4,28.8,29.84,West,263,7.0,9.0,68,0.00,,,0.00,VWS V14.01,2013-02-12 13:15:00,
2013-02-12 08:16:00,38.4,28.4,29.84,West,277,7.0,9.0,67,0.00,,,0.00,VWS V14.01,2013-02-12 13:16:00,
2013-02-12 08:17:00,38.5,28.5,29.84,NNW,332,1.0,9.0,67,0.00,,,0.00,VWS V14.01,2013-02-12 13:17:00,
2013-02-12 08:18:00,38.6,28.6,29.84,WNW,286,6.0,9.0,67,0.00,,,0.00,VWS V14.01,2013-02-12 13:18:00,
2013-02-12 08:19:00,38.7,28.7,29.84,WNW,292,2.0,9.0,67,0.00,,,0.00,VWS V14.01,2013-02-12 13:19:00,
2013-02-12 08:20:00,38.8,28.8,29.84,WNW,294,2.0,9.0,67,0.00,,,0.00,VWS V14.01,2013-02-12 13:20:00,
2013-02-12 08:21:00,38.9,28.9,29.84,SW,220,3.0,5.0,67,0.00,,,0.00,VWS V14.01,2013-02-12 13:21:00,
2013-02-12 08:22:00,39.0,29.0,29.84,WNW,286,8.0,9.0,67,0.00,,,0.00,VWS V14.01,2013-02-12 13:22:00,
2013-02-12 08:23:00,39.1,28.7,29.84,WSW,254,10.0,10.0,66,0.00,,,0.00,VWS V14.01,2013-02-12 13:23:00,
2013-02-12 08:24:00,39.2,28.8,29.84,West,273,11.0,12.0,66,0.00,,,0.00,VWS V14.01,2013-02-12 13:24:00,
2013-02-12 08:25:00,39.2,28.4,29.84,WSW,251,9.0,15.0,65,0.00,,,0.00,VWS V14.01,2013-02-12 13:25:00,
2013-02-12 08:26:00,39.2,28.4,29.84,West,273,8.0,15.0,65,0.00,,,0.00,VWS V14.01,2013-02-12 13:26:00,
2013-02-12 08:27:00,39.3,28.5,29.84,NW,308,3.0,15.0,65,0.00,,,0.00,VWS V14.01,2013-02-12 13:27:00,
2013-02-12 08:28:00,39.4,29.0,29.84,WSW,251,7.0,15.0,66,0.00,,,0.00,VWS V14.01,2013-02-12 13:28:00,
2013-02-12 08:29:00,39.4,29.0,29.84,WSW,250,3.0,15.0,66,0.00,,,0.00,VWS V14.01,2013-02-12 13:29:00,
2013-02-12 08:30:00,39.5,28.7,29.83,NW,310,5.0,15.0,65,0.00,,,0.00,VWS V14.01,2013-02-12 13:30:00,
2013-02-12 08:31:00,39.5,28.7,29.83,West,281,5.0,6.0,65,0.00,,,0.00,VWS V14.01,2013-02-12 13:31:00,
2013-02-12 08:32:00,39.6,28.8,29.83,West,259,6.0,6.0,65,0.00,,,0.00,VWS V14.01,2013-02-12 13:32:00,
2013-02-12 08:33:00,39.7,28.9,29.83,WSW,252,6.0,17.0,65,0.00,,,0.00,VWS V14.01,2013-02-12 13:33:00,
2013-02-12 08:34:00,39.7,28.9,29.83,WNW,297,3.0,18.0,65,0.00,,,0.00,VWS V14.01,2013-02-12 13:34:00,
2013-02-12 08:35:00,39.8,29.0,29.83,West,260,6.0,18.0,65,0.00,,,0.00,VWS V14.01,2013-02-12 13:35:00,
2013-02-12 08:36:00,39.8,29.0,29.83,WSW,240,3.0,18.0,65,0.00,,,0.00,VWS V14.01,2013-02-12 13:36:00,
2013-02-12 08:37:00,39.9,29.1,29.83,WSW,245,4.0,18.0,65,0.00,,,0.00,VWS V14.01,2013-02-12 13:37:00,
2013-02-12 08:38:00,39.9,29.1,29.83,West,280,6.0,18.0,65,0.00,,,0.00,VWS V14.01,2013-02-12 13:38:00,
2013-02-12 08:39:00,40.0,28.8,29.83,West,259,2.0,18.0,64,0.00,,,0.00,VWS V14.01,2013-02-12 13:39:00,
2013-02-12 08:40:00,40.0,28.8,29.83,West,265,4.0,18.0,64,0.00,,,0.00,VWS V14.01,2013-02-12 13:40:00,
2013-02-12 08:41:00,40.1,28.9,29.83,WSW,251,13.0,13.0,64,0.00,,,0.00,VWS V14.01,2013-02-12 13:41:00,
2013-02-12 08:42:00,40.1,28.9,29.83,West,264,4.0,15.0,64,0.00,,,0.00,VWS V14.01,2013-02-12 13:42:00,
2013-02-12 08:43:00,40.2,29.0,29.83,SSW,192,7.0,15.0,64,0.00,,,0.00,VWS V14.01,2013-02-12 13:43:00,
2013-02-12 08:44:00,40.2,29.0,29.83,West,277,7.0,15.0,64,0.00,,,0.00,VWS V14.01,2013-02-12 13:44:00,
2013-02-12 08:45:00,40.2,29.0,29.83,SW,234,7.0,15.0,64,0.00,,,0.00,VWS V14.01,2013-02-12 13:45:00,
2013-02-12 08:46:00,40.3,28.7,29.83,WSW,248,3.0,15.0,63,0.00,,,0.00,VWS V14.01,2013-02-12 13:46:00,
2013-02-12 08:47:00,40.3,28.7,29.83,WSW,252,7.0,15.0,63,0.00,,,0.00,VWS V14.01,2013-02-12 13:47:00,
2013-02-12 08:48:00,40.4,28.8,29.83,SSW,197,4.0,15.0,63,0.00,,,0.00,VWS V14.01,2013-02-12 13:48:00,
2013-02-12 08:49:00,40.4,28.8,29.83,WSW,257,9.0,15.0,63,0.00,,,0.00,VWS V14.01,2013-02-12 13:49:00,
2013-02-12 08:50:00,40.4,28.8,29.83,SW,225,5.0,15.0,63,0.00,,,0.00,VWS V14.01,2013-02-12 13:50:00,
2013-02-12 08:51:00,40.5,28.9,29.83,SSW,213,9.0,9.0,63,0.00,,,0.00,VWS V14.01,2013-02-12 13:51:00,
2013-02-12 08:52:00,40.5,28.9,29.83,South,183,2.0,12.0,63,0.00,,,0.00,VWS V14.01,2013-02-12 13:52:00,
2013-02-12 08:53:00,40.5,28.9,29.83,West,266,4.0,12.0,63,0.00,,,0.00,VWS V14.01,2013-02-12 13:53:00,
2013-02-12 08:54:00,40.5,28.9,29.83,West,259,6.0,13.0,63,0.00,,,0.00,VWS V14.01,2013-02-12 13:54:00,
2013-02-12 08:55:00,40.4,28.4,29.83,SW,216,4.0,13.0,62,0.00,,,0.00,VWS V14.01,2013-02-12 13:55:00,
2013-02-12 08:56:00,40.5,28.9,29.83,WSW,240,5.0,13.0,63,0.00,,,0.00,VWS V14.01,2013-02-12 13:56:00,
2013-02-12 08:57:00,40.4,28.8,29.83,West,271,8.0,13.0,63,0.00,,,0.00,VWS V14.01,2013-02-12 13:57:00,
2013-02-12 08:58:00,40.4,28.4,29.83,SSW,200,5.0,13.0,62,0.00,,,0.00,VWS V14.01,2013-02-12 13:58:00,
2013-02-12 08:59:00,40.4,28.8,29.83,West,275,7.0,13.0,63,0.00,,,0.00,VWS V14.01,2013-02-12 13:59:00,
2013-02-12 09:00:00,40.4,28.8,29.84,SW,225,5.0,13.0,63,0.00,,,0.00,VWS V14.01,2013-02-12 14:00:00,
2013-02-12 09:01:00,40.4,28.4,29.84,South,180,2.0,11.0,62,0.00,,,0.00,VWS V14.01,2013-02-12 14:01:00,
2013-02-12 09:02:00,40.3,28.3,29.84,WSW,254,2.0,12.0,62,0.00,,,0.00,VWS V14.01,2013-02-12 14:02:00,
2013-02-12 09:03:00,40.3,28.3,29.84,West,266,6.0,12.0,62,0.00,,,0.00,VWS V14.01,2013-02-12 14:03:00,
2013-02-12 09:04:00,40.3,28.3,29.84,SW,236,6.0,12.0,62,0.00,,,0.00,VWS V14.01,2013-02-12 14:04:00,
2013-02-12 09:05:00,40.2,28.2,29.84,SSE,156,2.0,12.0,62,0.00,,,0.00,VWS V14.01,2013-02-12 14:05:00,
2013-02-12 09:06:00,40.2,28.2,29.84,West,267,4.0,13.0,62,0.00,,,0.00,VWS V14.01,2013-02-12 14:06:00,
2013-02-12 09:07:00,40.2,28.2,29.84,NE,53,0.0,13.0,62,0.00,,,0.00,VWS V14.01,2013-02-12 14:07:00,
2013-02-12 09:08:00,40.1,28.1,29.84,West,265,3.0,13.0,62,0.00,,,0.00,VWS V14.01,2013-02-12 14:08:00,
2013-02-12 09:09:00,40.1,28.1,29.84,West,259,8.0,13.0,62,0.00,,,0.00,VWS V14.01,2013-02-12 14:09:00,
2013-02-12 09:10:00,40.1,28.1,29.84,West,269,8.0,13.0,62,0.00,,,0.00,VWS V14.01,2013-02-12 14:10:00,
2013-02-12 09:11:00,40.0,28.0,29.84,SW,236,7.0,8.0,62,0.00,,,0.00,VWS V14.01,2013-02-12 14:11:00,
2013-02-12 09:12:00,40.0,28.0,29.84,WSW,248,3.0,8.0,62,0.00,,,0.00,VWS V14.01,2013-02-12 14:12:00,
2013-02-12 09:13:00,40.0,28.4,29.84,West,271,5.0,8.0,63,0.00,,,0.00,VWS V14.01,2013-02-12 14:13:00,
2013-02-12 09:14:00,39.9,28.3,29.84,SW,232,0.0,8.0,63,0.00,,,0.00,VWS V14.01,2013-02-12 14:14:00,
2013-02-12 09:15:00,40.0,28.0,29.84,WSW,240,8.0,8.0,62,0.00,,,0.00,VWS V14.01,2013-02-12 14:15:00,
2013-02-12 09:16:00,40.0,28.0,29.84,WSW,240,9.0,9.0,62,0.00,,,0.00,VWS V14.01,2013-02-12 14:16:00,
2013-02-12 09:17:00,40.0,28.4,29.84,WSW,247,9.0,10.0,63,0.00,,,0.00,VWS V14.01,2013-02-12 14:17:00,
2013-02-12 09:18:00,40.0,28.0,29.84,West,267,11.0,11.0,62,0.00,,,0.00,VWS V14.01,2013-02-12 14:18:00,
2013-02-12 09:19:00,39.9,28.0,29.84,NE,40,3.0,16.0,62,0.00,,,0.00,VWS V14.01,2013-02-12 14:19:00,
2013-02-12 09:20:00,39.8,27.9,29.84,West,277,4.0,16.0,62,0.00,,,0.00,VWS V14.01,2013-02-12 14:20:00,
2013-02-12 09:21:00,39.8,27.9,29.84,SW,215,8.0,8.0,62,0.00,,,0.00,VWS V14.01,2013-02-12 14:21:00,
2013-02-12 09:22:00,39.7,27.8,29.84,WSW,248,14.0,14.0,62,0.00,,,0.00,VWS V14.01,2013-02-12 14:22:00,
2013-02-12 09:23:00,39.7,27.8,29.84,WSW,239,9.0,14.0,62,0.00,,,0.00,VWS V14.01,2013-02-12 14:23:00,
2013-02-12 09:24:00,39.6,27.7,29.84,West,267,6.0,15.0,62,0.00,,,0.00,VWS V14.01,2013-02-12 14:24:00,
2013-02-12 09:25:00,39.5,27.6,29.84,WNW,296,3.0,15.0,62,0.00,,,0.00,VWS V14.01,2013-02-12 14:25:00,
2013-02-12 09:26:00,39.5,28.0,29.84,SE,144,3.0,15.0,63,0.00,,,0.00,VWS V14.01,2013-02-12 14:26:00,
2013-02-12 09:27:00,39.5,28.0,29.84,West,264,3.0,15.0,63,0.00,,,0.00,VWS V14.01,2013-02-12 14:27:00,
2013-02-12 09:28:00,39.5,28.0,29.84,SSW,199,4.0,15.0,63,0.00,,,0.00,VWS V14.01,2013-02-12 14:28:00,
2013-02-12 09:29:00,39.6,28.1,29.84,West,259,1.0,15.0,63,0.00,,,0.00,VWS V14.01,2013-02-12 14:29:00,
2013-02-12 09:30:00,39.7,28.1,29.85,West,264,7.0,15.0,63,0.00,,,0.00,VWS V14.01,2013-02-12 14:30:00,
2013-02-12 09:31:00,39.7,28.1,29.85,WNW,290,8.0,14.0,63,0.00,,,0.00,VWS V14.01,2013-02-12 14:31:00,
2013-02-12 09:32:00,39.7,27.8,29.85,ENE,68,1.0,14.0,62,0.00,,,0.00,VWS V14.01,2013-02-12 14:32:00,
2013-02-12 09:33:00,39.7,27.8,29.85,NW,315,7.0,15.0,62,0.00,,,0.00,VWS V14.01,2013-02-12 14:33:00,
2013-02-12 09:34:00,39.7,28.1,29.85,NNW,329,5.0,15.0,63,0.00,,,0.00,VWS V14.01,2013-02-12 14:34:00,
2013-02-12 09:35:00,39.8,28.2,29.85,West,266,6.0,15.0,63,0.00,,,0.00,VWS V14.01,2013-02-12 14:35:00,
2013-02-12 09:36:00,39.8,28.2,29.85,WSW,257,7.0,15.0,63,0.00,,,0.00,VWS V14.01,2013-02-12 14:36:00,
2013-02-12 09:37:00,39.9,28.3,29.85,SSW,208,5.0,15.0,63,0.00,,,0.00,VWS V14.01,2013-02-12 14:37:00,
2013-02-12 09:38:00,40.0,28.0,29.85,West,261,6.0,15.0,62,0.00,,,0.00,VWS V14.01,2013-02-12 14:38:00,
2013-02-12 09:39:00,40.0,28.0,29.85,WNW,290,7.0,15.0,62,0.00,,,0.00,VWS V14.01,2013-02-12 14:39:00,
2013-02-12 09:40:00,40.1,28.1,29.85,NNW,336,11.0,15.0,62,0.00,,,0.00,VWS V14.01,2013-02-12 14:40:00,
2013-02-12 09:41:00,40.2,27.8,29.85,SW,229,5.0,12.0,61,0.00,,,0.00,VWS V14.01,2013-02-12 14:41:00,
2013-02-12 09:42:00,40.2,27.8,29.85,NW,322,2.0,12.0,61,0.00,,,0.00,VWS V14.01,2013-02-12 14:42:00,
2013-02-12 09:43:00,40.3,28.3,29.85,West,259,5.0,12.0,62,0.00,,,0.00,VWS V14.01,2013-02-12 14:43:00,
2013-02-12 09:44:00,40.3,28.3,29.85,West,279,3.0,12.0,62,0.00,,,0.00,VWS V14.01,2013-02-12 14:44:00,
2013-02-12 09:45:00,40.3,27.9,29.85,SW,227,1.0,12.0,61,0.00,,,0.00,VWS V14.01,2013-02-12 14:45:00,
2013-02-12 09:46:00,40.3,27.9,29.85,West,265,9.0,12.0,61,0.00,,,0.00,VWS V14.01,2013-02-12 14:46:00,
2013-02-12 09:47:00,40.4,28.0,29.85,WSW,250,8.0,12.0,61,0.00,,,0.00,VWS V14.01,2013-02-12 14:47:00,
2013-02-12 09:48:00,40.4,28.0,29.85,WSW,257,5.0,12.0,61,0.00,,,0.00,VWS V14.01,2013-02-12 14:48:00,
2013-02-12 09:49:00,40.4,28.0,29.85,NNW,339,4.0,12.0,61,0.00,,,0.00,VWS V14.01,2013-02-12 14:49:00,
2013-02-12 09:50:00,40.4,28.0,29.85,NNE,25,2.0,12.0,61,0.00,,,0.00,VWS V14.01,2013-02-12 14:50:00,
2013-02-12 09:51:00,40.4,28.0,29.85,WSW,255,7.0,9.0,61,0.00,,,0.00,VWS V14.01,2013-02-12 14:51:00,
2013-02-12 09:52:00,40.5,28.1,29.85,SSE,153,1.0,9.0,61,0.00,,,0.00,VWS V14.01,2013-02-12 14:52:00,
2013-02-12 09:53:00,40.5,28.1,29.85,West,261,8.0,9.0,61,0.00,,,0.00,VWS V14.01,2013-02-12 14:53:00,
2013-02-12 09:54:00,40.5,28.5,29.85,NW,306,9.0,9.0,62,0.00,,,0.00,VWS V14.01,2013-02-12 14:54:00,
2013-02-12 09:55:00,40.5,28.5,29.85,West,280,11.0,11.0,62,0.00,,,0.00,VWS V14.01,2013-02-12 14:55:00,
2013-02-12 09:56:00,40.5,28.1,29.85,NW,304,3.0,11.0,61,0.00,,,0.00,VWS V14.01,2013-02-12 14:56:00,
2013-02-12 09:57:00,40.4,28.0,29.85,WSW,256,7.0,11.0,61,0.00,,,0.00,VWS V14.01,2013-02-12 14:57:00,
2013-02-12 09:58:00,40.4,28.0,29.85,East,84,3.0,11.0,61,0.00,,,0.00,VWS V14.01,2013-02-12 14:58:00,
2013-02-12 09:59:00,40.4,28.0,29.85,SSW,197,6.0,11.0,61,0.00,,,0.00,VWS V14.01,2013-02-12 14:59:00,
2013-02-12 10:00:00,40.3,27.9,29.85,SSE,152,6.0,11.0,61,0.00,,,0.00,VWS V14.01,2013-02-12 15:00:00,
2013-02-12 10:01:00,40.3,27.9,29.85,WSW,244,9.0,12.0,61,0.00,,,0.00,VWS V14.01,2013-02-12 15:01:00,
2013-02-12 10:02:00,40.2,27.8,29.85,SW,234,4.0,12.0,61,0.00,,,0.00,VWS V14.01,2013-02-12 15:02:00,
2013-02-12 10:03:00,40.2,27.8,29.85,WNW,290,5.0,12.0,61,0.00,,,0.00,VWS V14.01,2013-02-12 15:03:00,
2013-02-12 10:04:00,40.2,27.8,29.85,WSW,251,4.0,12.0,61,0.00,,,0.00,VWS V14.01,2013-02-12 15:04:00,
2013-02-12 10:05:00,40.2,27.8,29.85,WNW,284,6.0,12.0,61,0.00,,,0.00,VWS V14.01,2013-02-12 15:05:00,
2013-02-12 10:06:00,40.2,27.8,29.85,WNW,284,8.0,12.0,61,0.00,,,0.00,VWS V14.01,2013-02-12 15:06:00,
2013-02-12 10:07:00,40.2,27.8,29.85,West,277,3.0,12.0,61,0.00,,,0.00,VWS V14.01,2013-02-12 15:07:00,
2013-02-12 10:08:00,40.2,27.8,29.85,SW,225,7.0,12.0,61,0.00,,,0.00,VWS V14.01,2013-02-12 15:08:00,
2013-02-12 10:09:00,40.1,27.8,29.85,WSW,250,7.0,13.0,61,0.00,,,0.00,VWS V14.01,2013-02-12 15:09:00,
2013-02-12 10:10:00,40.0,27.6,29.85,WSW,252,8.0,14.0,61,0.00,,,0.00,VWS V14.01,2013-02-12 15:10:00,
2013-02-12 10:11:00,40.0,27.6,29.85,South,177,3.0,8.0,61,0.00,,,0.00,VWS V14.01,2013-02-12 15:11:00,
2013-02-12 10:12:00,39.9,27.6,29.85,SSW,212,7.0,8.0,61,0.00,,,0.00,VWS V14.01,2013-02-12 15:12:00,
2013-02-12 10:13:00,39.9,28.0,29.85,SW,233,3.0,10.0,62,0.00,,,0.00,VWS V14.01,2013-02-12 15:13:00,
2013-02-12 10:14:00,39.9,28.0,29.85,NE,55,1.0,10.0,62,0.00,,,0.00,VWS V14.01,2013-02-12 15:14:00,
2013-02-12 10:15:00,39.9,28.0,29.87,WSW,238,4.0,10.0,62,0.00,,,0.00,VWS V14.01,2013-02-12 15:15:00,
2013-02-12 10:16:00,39.8,27.9,29.87,WSW,258,8.0,12.0,62,0.00,,,0.00,VWS V14.01,2013-02-12 15:16:00,
2013-02-12 10:17:00,39.8,27.9,29.87,SW,236,14.0,18.0,62,0.00,,,0.00,VWS V14.01,2013-02-12 15:17:00,
2013-02-12 10:18:00,39.7,27.4,29.87,NW,325,6.0,18.0,61,0.00,,,0.00,VWS V14.01,2013-02-12 15:18:00,
2013-02-12 10:19:00,39.7,27.8,29.87,NW,318,3.0,18.0,62,0.00,,,0.00,VWS V14.01,2013-02-12 15:19:00,
2013-02-12 10:20:00,39.6,27.7,29.87,WSW,242,10.0,18.0,62,0.00,,,0.00,VWS V14.01,2013-02-12 15:20:00,
2013-02-12 10:21:00,39.5,27.6,29.87,SW,230,4.0,10.0,62,0.00,,,0.00,VWS V14.01,2013-02-12 15:21:00,
2013-02-12 10:22:00,39.5,27.6,29.87,SSW,205,8.0,10.0,62,0.00,,,0.00,VWS V14.01,2013-02-12 15:22:00,
2013-02-12 10:23:00,39.5,27.6,29.87,West,259,19.0,19.0,62,0.00,,,0.00,VWS V14.01,2013-02-12 15:23:00,
2013-02-12 10:24:00,39.4,27.5,29.87,WNW,285,7.0,19.0,62,0.00,,,0.00,VWS V14.01,2013-02-12 15:24:00,
2013-02-12 10:25:00,39.3,27.4,29.87,WSW,240,8.0,19.0,62,0.00,,,0.00,VWS V14.01,2013-02-12 15:25:00,
2013-02-12 10:26:00,39.3,27.4,29.87,NNW,341,2.0,19.0,62,0.00,,,0.00,VWS V14.01,2013-02-12 15:26:00,
2013-02-12 10:27:00,39.3,27.4,29.87,West,266,0.0,19.0,62,0.00,,,0.00,VWS V14.01,2013-02-12 15:27:00,
2013-02-12 10:28:00,39.3,27.8,29.87,West,262,5.0,19.0,63,0.00,,,0.00,VWS V14.01,2013-02-12 15:28:00,
2013-02-12 10:29:00,39.3,27.8,29.87,WNW,298,8.0,19.0,63,0.00,,,0.00,VWS V14.01,2013-02-12 15:29:00,
2013-02-12 10:30:00,39.2,27.7,29.86,North,5,5.0,19.0,63,0.00,,,0.00,VWS V14.01,2013-02-12 15:30:00,
2013-02-12 10:31:00,39.2,27.7,29.86,WSW,238,6.0,6.0,63,0.00,,,0.00,VWS V14.01,2013-02-12 15:31:00,
2013-02-12 10:32:00,39.3,27.8,29.86,SSW,211,3.0,8.0,63,0.00,,,0.00,VWS V14.01,2013-02-12 15:32:00,
2013-02-12 10:33:00,39.2,27.7,29.86,West,266,7.0,8.0,63,0.00,,,0.00,VWS V14.01,2013-02-12 15:33:00,
2013-02-12 10:34:00,39.3,27.8,29.86,West,275,4.0,8.0,63,0.00,,,0.00,VWS V14.01,2013-02-12 15:34:00,
2013-02-12 10:35:00,39.3,27.8,29.86,WSW,249,2.0,8.0,63,0.00,,,0.00,VWS V14.01,2013-02-12 15:35:00,
2013-02-12 10:36:00,39.3,27.8,29.86,SSW,211,2.0,8.0,63,0.00,,,0.00,VWS V14.01,2013-02-12 15:36:00,
2013-02-12 10:37:00,39.3,27.8,29.86,SW,227,3.0,8.0,63,0.00,,,0.00,VWS V14.01,2013-02-12 15:37:00,
2013-02-12 10:38:00,39.3,27.8,29.86,WSW,250,8.0,8.0,63,0.00,,,0.00,VWS V14.01,2013-02-12 15:38:00,
2013-02-12 10:39:00,39.3,27.8,29.86,West,273,8.0,8.0,63,0.00,,,0.00,VWS V14.01,2013-02-12 15:39:00,
2013-02-12 10:40:00,39.3,27.8,29.86,NW,322,9.0,10.0,63,0.00,,,0.00,VWS V14.01,2013-02-12 15:40:00,
2013-02-12 10:41:00,39.3,27.8,29.86,WSW,238,2.0,9.0,63,0.00,,,0.00,VWS V14.01,2013-02-12 15:41:00,
2013-02-12 10:42:00,39.3,27.8,29.86,NW,313,1.0,9.0,63,0.00,,,0.00,VWS V14.01,2013-02-12 15:42:00,
2013-02-12 10:43:00,39.3,27.8,29.86,WNW,288,3.0,9.0,63,0.00,,,0.00,VWS V14.01,2013-02-12 15:43:00,
2013-02-12 10:44:00,39.3,27.8,29.86,SSW,210,6.0,10.0,63,0.00,,,0.00,VWS V14.01,2013-02-12 15:44:00,
2013-02-12 10:45:00,39.4,27.9,29.87,West,261,9.0,10.0,63,0.00,,,0.00,VWS V14.01,2013-02-12 15:45:00,
2013-02-12 10:46:00,39.4,27.9,29.87,WSW,251,10.0,15.0,63,0.00,,,0.00,VWS V14.01,2013-02-12 15:46:00,
2013-02-12 10:47:00,39.4,27.9,29.87,SW,228,9.0,15.0,63,0.00,,,0.00,VWS V14.01,2013-02-12 15:47:00,
2013-02-12 10:48:00,39.3,27.4,29.87,WSW,238,6.0,15.0,62,0.00,,,0.00,VWS V14.01,2013-02-12 15:48:00,
2013-02-12 10:49:00,39.3,27.4,29.87,SW,232,2.0,15.0,62,0.00,,,0.00,VWS V14.01,2013-02-12 15:49:00,
2013-02-12 10:50:00,39.3,27.8,29.87,SW,233,3.0,15.0,63,0.00,,,0.00,VWS V14.01,2013-02-12 15:50:00,
2013-02-12 10:51:00,39.3,27.8,29.87,SSW,211,1.0,5.0,63,0.00,,,0.00,VWS V14.01,2013-02-12 15:51:00,
2013-02-12 10:52:00,39.3,27.8,29.87,SW,234,6.0,8.0,63,0.00,,,0.00,VWS V14.01,2013-02-12 15:52:00,
2013-02-12 10:53:00,39.2,27.7,29.87,SW,232,7.0,13.0,63,0.00,,,0.00,VWS V14.01,2013-02-12 15:53:00,
2013-02-12 10:54:00,39.2,27.7,29.87,NNE,17,2.0,15.0,63,0.00,,,0.00,VWS V14.01,2013-02-12 15:54:00,
2013-02-12 10:55:00,39.2,27.7,29.87,WSW,257,6.0,15.0,63,0.00,,,0.00,VWS V14.01,2013-02-12 15:55:00,
2013-02-12 10:56:00,39.2,27.7,29.87,WSW,248,7.0,15.0,63,0.00,,,0.00,VWS V14.01,2013-02-12 15:56:00,
2013-02-12 10:57:00,39.1,27.6,29.87,WSW,257,4.0,15.0,63,0.00,,,0.00,VWS V14.01,2013-02-12 15:57:00,
2013-02-12 10:58:00,39.1,27.6,29.87,WNW,294,3.0,15.0,63,0.00,,,0.00,VWS V14.01,2013-02-12 15:58:00,
2013-02-12 10:59:00,39.1,27.6,29.87,SW,228,4.0,15.0,63,0.00,,,0.00,VWS V14.01,2013-02-12 15:59:00,
2013-02-12 11:00:00,39.1,27.6,29.88,WNW,291,1.0,15.0,63,0.00,,,0.00,VWS V14.01,2013-02-12 16:00:00,
2013-02-12 11:01:00,39.1,27.6,29.88,West,259,10.0,10.0,63,0.00,,,0.00,VWS V14.01,2013-02-12 16:01:00,
2013-02-12 11:02:00,39.1,27.6,29.88,WNW,303,2.0,10.0,63,0.00,,,0.00,VWS V14.01,2013-02-12 16:02:00,
2013-02-12 11:03:00,39.2,27.7,29.88,WSW,257,6.0,10.0,63,0.00,,,0.00,VWS V14.01,2013-02-12 16:03:00,
2013-02-12 11:04:00,39.2,27.7,29.88,WSW,250,6.0,10.0,63,0.00,,,0.00,VWS V14.01,2013-02-12 16:04:00,
2013-02-12 11:05:00,39.2,27.7,29.88,East,93,2.0,10.0,63,0.00,,,0.00,VWS V14.01,2013-02-12 16:05:00,
2013-02-12 11:06:00,39.2,27.7,29.88,West,261,0.0,10.0,63,0.00,,,0.00,VWS V14.01,2013-02-12 16:06:00,
2013-02-12 11:07:00,39.2,27.7,29.88,WNW,301,7.0,11.0,63,0.00,,,0.00,VWS V14.01,2013-02-12 16:07:00,
2013-02-12 11:08:00,39.2,27.7,29.88,SSW,198,2.0,11.0,63,0.00,,,0.00,VWS V14.01,2013-02-12 16:08:00,
2013-02-12 11:09:00,39.3,27.8,29.88,WSW,242,6.0,11.0,63,0.00,,,0.00,VWS V14.01,2013-02-12 16:09:00,
2013-02-12 11:10:00,39.3,27.8,29.88,West,263,4.0,11.0,63,0.00,,,0.00,VWS V14.01,2013-02-12 16:10:00,
2013-02-12 11:11:00,39.3,27.8,29.88,WSW,251,1.0,5.0,63,0.00,,,0.00,VWS V14.01,2013-02-12 16:11:00,
2013-02-12 11:12:00,39.3,27.8,29.88,NNW,337,0.0,5.0,63,0.00,,,0.00,VWS V14.01,2013-02-12 16:12:00,
2013-02-12 11:13:00,39.4,27.9,29.88,WSW,254,4.0,6.0,63,0.00,,,0.00,VWS V14.01,2013-02-12 16:13:00,
2013-02-12 11:14:00,39.4,27.9,29.88,WSW,242,0.0,6.0,63,0.00,,,0.00,VWS V14.01,2013-02-12 16:14:00,
2013-02-12 11:15:00,39.4,27.9,29.88,SSW,211,3.0,6.0,63,0.00,,,0.00,VWS V14.01,2013-02-12 16:15:00,
2013-02-12 11:16:00,39.4,27.9,29.88,SSW,208,3.0,6.0,63,0.00,,,0.00,VWS V14.01,2013-02-12 16:16:00,
2013-02-12 11:17:00,39.4,27.9,29.88,West,279,4.0,11.0,63,0.00,,,0.00,VWS V14.01,2013-02-12 16:17:00,
2013-02-12 11:18:00,39.4,27.9,29.88,West,267,5.0,12.0,63,0.00,,,0.00,VWS V14.01,2013-02-12 16:18:00,
2013-02-12 11:19:00,39.4,27.9,29.88,SW,215,4.0,12.0,63,0.00,,,0.00,VWS V14.01,2013-02-12 16:19:00,
2013-02-12 11:20:00,39.4,27.9,29.88,WNW,290,7.0,12.0,63,0.00,,,0.00,VWS V14.01,2013-02-12 16:20:00,
2013-02-12 11:21:00,39.4,27.9,29.88,West,265,1.0,7.0,63,0.00,,,0.00,VWS V14.01,2013-02-12 16:21:00,
2013-02-12 11:22:00,39.4,27.9,29.88,NNW,346,5.0,10.0,63,0.00,,,0.00,VWS V14.01,2013-02-12 16:22:00,
2013-02-12 11:23:00,39.4,27.9,29.88,West,279,13.0,13.0,63,0.00,,,0.00,VWS V14.01,2013-02-12 16:23:00,
2013-02-12 11:24:00,39.3,27.8,29.88,WSW,242,4.0,13.0,63,0.00,,,0.00,VWS V14.01,2013-02-12 16:24:00,
2013-02-12 11:25:00,39.3,27.8,29.88,NW,319,2.0,13.0,63,0.00,,,0.00,VWS V14.01,2013-02-12 16:25:00,
2013-02-12 11:26:00,39.3,27.8,29.88,WNW,302,5.0,13.0,63,0.00,,,0.00,VWS V14.01,2013-02-12 16:26:00,
2013-02-12 11:27:00,39.2,27.7,29.88,NNE,17,1.0,13.0,63,0.00,,,0.00,VWS V14.01,2013-02-12 16:27:00,
2013-02-12 11:28:00,39.2,27.7,29.88,SW,232,12.0,13.0,63,0.00,,,0.00,VWS V14.01,2013-02-12 16:28:00,
2013-02-12 11:29:00,39.2,27.7,29.88,West,266,9.0,13.0,63,0.00,,,0.00,VWS V14.01,2013-02-12 16:29:00,
2013-02-12 11:30:00,39.2,27.7,29.88,WNW,296,7.0,13.0,63,0.00,,,0.00,VWS V14.01,2013-02-12 16:30:00,
2013-02-12 11:31:00,39.2,27.7,29.88,NW,312,1.0,9.0,63,0.00,,,0.00,VWS V14.01,2013-02-12 16:31:00,
2013-02-12 11:32:00,39.1,27.6,29.88,South,170,3.0,10.0,63,0.00,,,0.00,VWS V14.01,2013-02-12 16:32:00,
2013-02-12 11:33:00,39.1,27.6,29.88,South,176,3.0,10.0,63,0.00,,,0.00,VWS V14.01,2013-02-12 16:33:00,
2013-02-12 11:34:00,39.1,27.6,29.88,West,267,9.0,13.0,63,0.00,,,0.00,VWS V14.01,2013-02-12 16:34:00,
2013-02-12 11:35:00,39.1,27.6,29.88,WSW,240,5.0,13.0,63,0.00,,,0.00,VWS V14.01,2013-02-12 16:35:00,
2013-02-12 11:36:00,39.1,27.2,29.88,SSW,202,3.0,13.0,62,0.00,,,0.00,VWS V14.01,2013-02-12 16:36:00,
2013-02-12 11:37:00,39.1,27.6,29.88,WSW,258,10.0,13.0,63,0.00,,,0.00,VWS V14.01,2013-02-12 16:37:00,
2013-02-12 11:38:00,39.1,27.6,29.88,WSW,248,5.0,13.0,63,0.00,,,0.00,VWS V14.01,2013-02-12 16:38:00,
2013-02-12 11:39:00,39.1,27.6,29.88,WSW,240,5.0,13.0,63,0.00,,,0.00,VWS V14.01,2013-02-12 16:39:00,
2013-02-12 11:40:00,39.0,27.5,29.88,SW,231,2.0,13.0,63,0.00,,,0.00,VWS V14.01,2013-02-12 16:40:00,
2013-02-12 11:41:00,39.1,27.2,29.88,WSW,242,6.0,14.0,62,0.00,,,0.00,VWS V14.01,2013-02-12 16:41:00,
2013-02-12 11:42:00,39.0,27.1,29.88,West,264,7.0,14.0,62,0.00,,,0.00,VWS V14.01,2013-02-12 16:42:00,
2013-02-12 11:43:00,39.0,27.5,29.88,West,281,7.0,14.0,63,0.00,,,0.00,VWS V14.01,2013-02-12 16:43:00,
2013-02-12 11:44:00,39.0,27.5,29.88,WSW,250,12.0,14.0,63,0.00,,,0.00,VWS V14.01,2013-02-12 16:44:00,
2013-02-12 11:45:00,38.9,27.4,29.89,West,277,5.0,14.0,63,0.00,,,0.00,VWS V14.01,2013-02-12 16:45:00,
2013-02-12 11:46:00,38.9,27.4,29.89,WSW,246,10.0,14.0,63,0.00,,,0.00,VWS V14.01,2013-02-12 16:46:00,
2013-02-12 11:47:00,38.9,27.4,29.89,West,281,6.0,14.0,63,0.00,,,0.00,VWS V14.01,2013-02-12 16:47:00,
2013-02-12 11:48:00,38.9,27.4,29.89,WNW,302,0.0,14.0,63,0.00,,,0.00,VWS V14.01,2013-02-12 16:48:00,
2013-02-12 11:49:00,38.8,27.3,29.89,WSW,254,4.0,14.0,63,0.00,,,0.00,VWS V14.01,2013-02-12 16:49:00,
2013-02-12 11:50:00,38.8,27.3,29.89,WSW,238,3.0,14.0,63,0.00,,,0.00,VWS V14.01,2013-02-12 16:50:00,
2013-02-12 11:51:00,38.9,27.4,29.89,SW,232,4.0,7.0,63,0.00,,,0.00,VWS V14.01,2013-02-12 16:51:00,
2013-02-12 11:52:00,38.9,27.4,29.89,West,267,3.0,7.0,63,0.00,,,0.00,VWS V14.01,2013-02-12 16:52:00,
2013-02-12 11:53:00,38.9,27.8,29.89,SW,236,8.0,8.0,64,0.00,,,0.00,VWS V14.01,2013-02-12 16:53:00,
2013-02-12 11:54:00,38.9,27.4,29.89,West,261,9.0,11.0,63,0.00,,,0.00,VWS V14.01,2013-02-12 16:54:00,
2013-02-12 11:55:00,38.9,27.4,29.89,WSW,248,3.0,11.0,63,0.00,,,0.00,VWS V14.01,2013-02-12 16:55:00,
2013-02-12 11:56:00,38.9,27.4,29.89,West,261,8.0,11.0,63,0.00,,,0.00,VWS V14.01,2013-02-12 16:56:00,
2013-02-12 11:57:00,38.9,27.8,29.89,NW,305,3.0,12.0,64,0.00,,,0.00,VWS V14.01,2013-02-12 16:57:00,
2013-02-12 11:58:00,38.9,27.4,29.89,NW,304,4.0,12.0,63,0.00,,,0.00,VWS V14.01,2013-02-12 16:58:00,
2013-02-12 11:59:00,38.9,27.8,29.89,West,265,6.0,12.0,64,0.00,,,0.00,VWS V14.01,2013-02-12 16:59:00,
2013-02-12 12:00:00,38.9,27.8,29.89,WNW,285,3.0,12.0,64,0.00,,,0.00,VWS V14.01,2013-02-12 17:00:00,
2013-02-12 12:01:00,39.0,27.5,29.89,WSW,245,5.0,16.0,63,0.00,,,0.00,VWS V14.01,2013-02-12 17:01:00,
2013-02-12 12:02:00,39.0,27.5,29.89,WSW,247,4.0,16.0,63,0.00,,,0.00,VWS V14.01,2013-02-12 17:02:00,
2013-02-12 12:03:00,39.0,27.5,29.89,WSW,248,3.0,16.0,63,0.00,,,0.00,VWS V14.01,2013-02-12 17:03:00,
2013-02-12 12:04:00,39.1,28.0,29.89,SW,220,1.0,16.0,64,0.00,,,0.00,VWS V14.01,2013-02-12 17:04:00,
2013-02-12 12:05:00,39.1,27.6,29.89,WSW,244,8.0,18.0,63,0.00,,,0.00,VWS V14.01,2013-02-12 17:05:00,
2013-02-12 12:06:00,39.1,27.6,29.89,WSW,248,3.0,18.0,63,0.00,,,0.00,VWS V14.01,2013-02-12 17:06:00,
2013-02-12 12:07:00,39.2,27.7,29.89,WSW,254,7.0,18.0,63,0.00,,,0.00,VWS V14.01,2013-02-12 17:07:00,
2013-02-12 12:08:00,39.2,27.7,29.89,WNW,283,5.0,18.0,63,0.00,,,0.00,VWS V14.01,2013-02-12 17:08:00,
2013-02-12 12:09:00,39.2,27.7,29.89,WSW,254,3.0,18.0,63,0.00,,,0.00,VWS V14.01,2013-02-12 17:09:00,
2013-02-12 12:10:00,39.3,27.8,29.89,West,267,7.0,18.0,63,0.00,,,0.00,VWS V14.01,2013-02-12 17:10:00,
2013-02-12 12:11:00,39.3,27.8,29.89,West,266,5.0,8.0,63,0.00,,,0.00,VWS V14.01,2013-02-12 17:11:00,
2013-02-12 12:12:00,39.3,27.8,29.89,West,278,6.0,10.0,63,0.00,,,0.00,VWS V14.01,2013-02-12 17:12:00,
2013-02-12 12:13:00,39.4,27.9,29.89,West,264,6.0,10.0,63,0.00,,,0.00,VWS V14.01,2013-02-12 17:13:00,
2013-02-12 12:14:00,39.4,27.9,29.89,West,263,8.0,10.0,63,0.00,,,0.00,VWS V14.01,2013-02-12 17:14:00,
2013-02-12 12:15:00,39.4,27.5,29.89,West,273,2.0,10.0,62,0.00,,,0.00,VWS V14.01,2013-02-12 17:15:00,
2013-02-12 12:16:00,39.4,27.9,29.89,West,278,5.0,10.0,63,0.00,,,0.00,VWS V14.01,2013-02-12 17:16:00,
2013-02-12 12:17:00,39.5,28.0,29.89,SSW,196,6.0,10.0,63,0.00,,,0.00,VWS V14.01,2013-02-12 17:17:00,
2013-02-12 12:18:00,39.5,28.0,29.89,SSW,213,5.0,10.0,63,0.00,,,0.00,VWS V14.01,2013-02-12 17:18:00,
2013-02-12 12:19:00,39.6,28.1,29.89,WNW,298,9.0,10.0,63,0.00,,,0.00,VWS V14.01,2013-02-12 17:19:00,
2013-02-12 12:20:00,39.6,27.7,29.89,NW,309,5.0,10.0,62,0.00,,,0.00,VWS V14.01,2013-02-12 17:20:00,
2013-02-12 12:21:00,39.7,27.8,29.89,SW,221,2.0,12.0,62,0.00,,,0.00,VWS V14.01,2013-02-12 17:21:00,
2013-02-12 12:22:00,39.7,27.8,29.89,West,263,5.0,12.0,62,0.00,,,0.00,VWS V14.01,2013-02-12 17:22:00,
2013-02-12 12:23:00,39.8,27.9,29.89,NNW,327,7.0,12.0,62,0.00,,,0.00,VWS V14.01,2013-02-12 17:23:00,
2013-02-12 12:24:00,39.8,28.2,29.89,WNW,288,3.0,12.0,63,0.00,,,0.00,VWS V14.01,2013-02-12 17:24:00,
2013-02-12 12:25:00,40.0,28.4,29.89,West,266,3.0,12.0,63,0.00,,,0.00,VWS V14.01,2013-02-12 17:25:00,
2013-02-12 12:26:00,40.1,28.5,29.89,WNW,300,7.0,12.0,63,0.00,,,0.00,VWS V14.01,2013-02-12 17:26:00,
2013-02-12 12:27:00,40.2,28.6,29.89,West,263,12.0,12.0,63,0.00,,,0.00,VWS V14.01,2013-02-12 17:27:00,
2013-02-12 12:28:00,40.2,28.2,29.89,NNE,17,3.0,12.0,62,0.00,,,0.00,VWS V14.01,2013-02-12 17:28:00,
2013-02-12 12:29:00,40.2,28.2,29.89,West,272,11.0,12.0,62,0.00,,,0.00,VWS V14.01,2013-02-12 17:29:00,
2013-02-12 12:30:00,40.2,27.8,29.88,WSW,240,5.0,16.0,61,0.00,,,0.00,VWS V14.01,2013-02-12 17:30:00,
2013-02-12 12:31:00,40.2,27.8,29.88,SW,232,7.0,7.0,61,0.00,,,0.00,VWS V14.01,2013-02-12 17:31:00,
2013-02-12 12:32:00,40.2,27.8,29.88,West,263,3.0,7.0,61,0.00,,,0.00,VWS V14.01,2013-02-12 17:32:00,
2013-02-12 12:33:00,40.2,27.8,29.88,West,260,4.0,10.0,61,0.00,,,0.00,VWS V14.01,2013-02-12 17:33:00,
2013-02-12 12:34:00,40.1,27.8,29.88,South,182,2.0,10.0,61,0.00,,,0.00,VWS V14.01,2013-02-12 17:34:00,
2013-02-12 12:35:00,40.1,27.8,29.88,WSW,243,0.0,10.0,61,0.00,,,0.00,VWS V14.01,2013-02-12 17:35:00,
2013-02-12 12:36:00,40.1,27.8,29.88,NW,315,9.0,10.0,61,0.00,,,0.00,VWS V14.01,2013-02-12 17:36:00,
2013-02-12 12:37:00,40.1,27.8,29.88,West,264,5.0,11.0,61,0.00,,,0.00,VWS V14.01,2013-02-12 17:37:00,
2013-02-12 12:38:00,40.0,27.6,29.88,West,259,6.0,11.0,61,0.00,,,0.00,VWS V14.01,2013-02-12 17:38:00,
2013-02-12 12:39:00,40.1,27.8,29.88,West,261,7.0,12.0,61,0.00,,,0.00,VWS V14.01,2013-02-12 17:39:00,
2013-02-12 12:40:00,40.0,27.6,29.88,West,273,7.0,12.0,61,0.00,,,0.00,VWS V14.01,2013-02-12 17:40:00,
2013-02-12 12:41:00,40.0,27.6,29.88,WNW,301,7.0,16.0,61,0.00,,,0.00,VWS V14.01,2013-02-12 17:41:00,
2013-02-12 12:42:00,40.0,27.6,29.88,West,270,3.0,16.0,61,0.00,,,0.00,VWS V14.01,2013-02-12 17:42:00,
2013-02-12 12:43:00,40.0,27.6,29.88,West,277,0.0,16.0,61,0.00,,,0.00,VWS V14.01,2013-02-12 17:43:00,
2013-02-12 12:44:00,40.0,27.6,29.88,SW,227,4.0,16.0,61,0.00,,,0.00,VWS V14.01,2013-02-12 17:44:00,
2013-02-12 12:45:00,40.0,27.6,29.88,WSW,241,5.0,16.0,61,0.00,,,0.00,VWS V14.01,2013-02-12 17:45:00,
2013-02-12 12:46:00,40.0,27.6,29.88,WSW,242,7.0,16.0,61,0.00,,,0.00,VWS V14.01,2013-02-12 17:46:00,
2013-02-12 12:47:00,40.0,27.6,29.88,West,264,5.0,16.0,61,0.00,,,0.00,VWS V14.01,2013-02-12 17:47:00,
2013-02-12 12:48:00,40.0,27.2,29.88,SW,236,8.0,16.0,60,0.00,,,0.00,VWS V14.01,2013-02-12 17:48:00,
2013-02-12 12:49:00,40.1,27.4,29.88,WNW,291,4.0,16.0,60,0.00,,,0.00,VWS V14.01,2013-02-12 17:49:00,
2013-02-12 12:50:00,40.2,27.8,29.88,SE,124,2.0,16.0,61,0.00,,,0.00,VWS V14.01,2013-02-12 17:50:00,
2013-02-12 12:51:00,40.3,27.9,29.88,NW,312,3.0,10.0,61,0.00,,,0.00,VWS V14.01,2013-02-12 17:51:00,
2013-02-12 12:52:00,40.4,28.0,29.88,WSW,251,9.0,13.0,61,0.00,,,0.00,VWS V14.01,2013-02-12 17:52:00,
2013-02-12 12:53:00,40.4,27.6,29.88,WSW,241,6.0,13.0,60,0.00,,,0.00,VWS V14.01,2013-02-12 17:53:00,
2013-02-12 12:54:00,40.5,27.7,29.88,NNW,342,3.0,14.0,60,0.00,,,0.00,VWS V14.01,2013-02-12 17:54:00,
2013-02-12 12:55:00,40.6,27.8,29.88,WSW,257,2.0,14.0,60,0.00,,,0.00,VWS V14.01,2013-02-12 17:55:00,
2013-02-12 12:56:00,40.6,27.8,29.88,West,271,4.0,14.0,60,0.00,,,0.00,VWS V14.01,2013-02-12 17:56:00,
2013-02-12 12:57:00,40.7,27.9,29.88,SW,224,5.0,14.0,60,0.00,,,0.00,VWS V14.01,2013-02-12 17:57:00,
2013-02-12 12:58:00,40.7,27.9,29.88,WNW,298,7.0,14.0,60,0.00,,,0.00,VWS V14.01,2013-02-12 17:58:00,
2013-02-12 12:59:00,40.8,27.6,29.88,WSW,239,5.0,14.0,59,0.00,,,0.00,VWS V14.01,2013-02-12 17:59:00,
2013-02-12 13:00:00,40.8,27.6,29.88,WNW,284,2.0,14.0,59,0.00,,,0.00,VWS V14.01,2013-02-12 18:00:00,
2013-02-12 13:01:00,40.9,27.7,29.88,NW,321,4.0,7.0,59,0.00,,,0.00,VWS V14.01,2013-02-12 18:01:00,
2013-02-12 13:02:00,40.9,27.7,29.88,SW,223,4.0,9.0,59,0.00,,,0.00,VWS V14.01,2013-02-12 18:02:00,
2013-02-12 13:03:00,40.9,28.1,29.88,WNW,294,4.0,9.0,60,0.00,,,0.00,VWS V14.01,2013-02-12 18:03:00,
2013-02-12 13:04:00,41.0,28.2,29.88,NW,312,4.0,12.0,60,0.00,,,0.00,VWS V14.01,2013-02-12 18:04:00,
2013-02-12 13:05:00,41.0,27.8,29.88,West,269,5.0,12.0,59,0.00,,,0.00,VWS V14.01,2013-02-12 18:05:00,
2013-02-12 13:06:00,41.0,27.8,29.88,NW,319,0.0,12.0,59,0.00,,,0.00,VWS V14.01,2013-02-12 18:06:00,
2013-02-12 13:07:00,41.1,27.9,29.88,West,281,13.0,13.0,59,0.00,,,0.00,VWS V14.01,2013-02-12 18:07:00,
2013-02-12 13:08:00,41.1,27.9,29.88,WNW,284,7.0,13.0,59,0.00,,,0.00,VWS V14.01,2013-02-12 18:08:00,
2013-02-12 13:09:00,41.1,27.9,29.88,WSW,247,6.0,13.0,59,0.00,,,0.00,VWS V14.01,2013-02-12 18:09:00,
2013-02-12 13:10:00,41.0,27.8,29.88,West,259,3.0,13.0,59,0.00,,,0.00,VWS V14.01,2013-02-12 18:10:00,
2013-02-12 13:11:00,41.0,27.4,29.88,WNW,298,8.0,10.0,58,0.00,,,0.00,VWS V14.01,2013-02-12 18:11:00,
2013-02-12 13:12:00,40.9,27.3,29.88,NW,306,6.0,10.0,58,0.00,,,0.00,VWS V14.01,2013-02-12 18:12:00,
2013-02-12 13:13:00,40.9,27.3,29.88,South,186,4.0,10.0,58,0.00,,,0.00,VWS V14.01,2013-02-12 18:13:00,
2013-02-12 13:14:00,40.9,27.7,29.88,WSW,257,0.0,10.0,59,0.00,,,0.00,VWS V14.01,2013-02-12 18:14:00,
2013-02-12 13:15:00,40.8,27.6,29.88,WSW,252,3.0,10.0,59,0.00,,,0.00,VWS V14.01,2013-02-12 18:15:00,
2013-02-12 13:16:00,40.8,27.6,29.88,South,186,6.0,20.0,59,0.00,,,0.00,VWS V14.01,2013-02-12 18:16:00,
2013-02-12 13:17:00,40.7,27.5,29.88,SSW,209,11.0,20.0,59,0.00,,,0.00,VWS V14.01,2013-02-12 18:17:00,
2013-02-12 13:18:00,40.7,27.1,29.88,West,269,5.0,20.0,58,0.00,,,0.00,VWS V14.01,2013-02-12 18:18:00,
2013-02-12 13:19:00,40.6,27.4,29.88,NNW,327,7.0,20.0,59,0.00,,,0.00,VWS V14.01,2013-02-12 18:19:00,
2013-02-12 13:20:00,40.5,27.3,29.88,East,89,1.0,20.0,59,0.00,,,0.00,VWS V14.01,2013-02-12 18:20:00,
2013-02-12 13:21:00,40.5,26.9,29.88,NNE,16,2.0,10.0,58,0.00,,,0.00,VWS V14.01,2013-02-12 18:21:00,
2013-02-12 13:22:00,40.4,27.2,29.88,SW,221,2.0,10.0,59,0.00,,,0.00,VWS V14.01,2013-02-12 18:22:00,
2013-02-12 13:23:00,40.4,27.2,29.88,West,262,5.0,10.0,59,0.00,,,0.00,VWS V14.01,2013-02-12 18:23:00,
2013-02-12 13:24:00,40.3,27.1,29.88,SSW,197,2.0,10.0,59,0.00,,,0.00,VWS V14.01,2013-02-12 18:24:00,
2013-02-12 13:25:00,40.4,27.2,29.88,SW,221,5.0,10.0,59,0.00,,,0.00,VWS V14.01,2013-02-12 18:25:00,
2013-02-12 13:26:00,40.3,27.1,29.88,West,279,4.0,10.0,59,0.00,,,0.00,VWS V14.01,2013-02-12 18:26:00,
2013-02-12 13:27:00,40.3,27.5,29.88,West,268,3.0,10.0,60,0.00,,,0.00,VWS V14.01,2013-02-12 18:27:00,
2013-02-12 13:28:00,40.3,27.5,29.88,WSW,252,7.0,10.0,60,0.00,,,0.00,VWS V14.01,2013-02-12 18:28:00,
2013-02-12 13:29:00,40.3,27.1,29.88,WNW,288,5.0,10.0,59,0.00,,,0.00,VWS V14.01,2013-02-12 18:29:00,
2013-02-12 13:30:00,40.3,27.5,29.88,WSW,256,8.0,10.0,60,0.00,,,0.00,VWS V14.01,2013-02-12 18:30:00,
2013-02-12 13:31:00,40.2,27.0,29.88,WSW,248,4.0,8.0,59,0.00,,,0.00,VWS V14.01,2013-02-12 18:31:00,
2013-02-12 13:32:00,40.2,27.4,29.88,SW,235,4.0,8.0,60,0.00,,,0.00,VWS V14.01,2013-02-12 18:32:00,
2013-02-12 13:33:00,40.2,27.4,29.88,WSW,251,14.0,14.0,60,0.00,,,0.00,VWS V14.01,2013-02-12 18:33:00,
2013-02-12 13:34:00,40.1,26.9,29.88,SW,229,9.0,14.0,59,0.00,,,0.00,VWS V14.01,2013-02-12 18:34:00,
2013-02-12 13:35:00,40.1,27.4,29.88,SSE,166,5.0,14.0,60,0.00,,,0.00,VWS V14.01,2013-02-12 18:35:00,
2013-02-12 13:36:00,40.0,27.2,29.88,WNW,300,8.0,14.0,60,0.00,,,0.00,VWS V14.01,2013-02-12 18:36:00,
2013-02-12 13:37:00,39.9,27.2,29.88,NW,304,6.0,14.0,60,0.00,,,0.00,VWS V14.01,2013-02-12 18:37:00,
2013-02-12 13:38:00,39.8,27.1,29.88,NW,307,7.0,14.0,60,0.00,,,0.00,VWS V14.01,2013-02-12 18:38:00,
2013-02-12 13:39:00,39.8,27.1,29.88,SW,235,10.0,14.0,60,0.00,,,0.00,VWS V14.01,2013-02-12 18:39:00,
2013-02-12 13:40:00,39.7,27.0,29.88,WSW,246,6.0,14.0,60,0.00,,,0.00,VWS V14.01,2013-02-12 18:40:00,
2013-02-12 13:41:00,39.7,27.0,29.88,WSW,244,9.0,10.0,60,0.00,,,0.00,VWS V14.01,2013-02-12 18:41:00,
2013-02-12 13:42:00,39.6,26.9,29.88,NNW,333,5.0,10.0,60,0.00,,,0.00,VWS V14.01,2013-02-12 18:42:00,
2013-02-12 13:43:00,39.6,27.3,29.88,West,261,9.0,10.0,61,0.00,,,0.00,VWS V14.01,2013-02-12 18:43:00,
2013-02-12 13:44:00,39.6,26.9,29.88,WNW,288,0.0,10.0,60,0.00,,,0.00,VWS V14.01,2013-02-12 18:44:00,
2013-02-12 13:45:00,39.6,27.3,29.88,West,265,8.0,10.0,61,0.00,,,0.00,VWS V14.01,2013-02-12 18:45:00,
2013-02-12 13:46:00,39.5,26.8,29.88,SW,224,5.0,12.0,60,0.00,,,0.00,VWS V14.01,2013-02-12 18:46:00,
2013-02-12 13:47:00,39.5,27.2,29.88,WSW,257,3.0,12.0,61,0.00,,,0.00,VWS V14.01,2013-02-12 18:47:00,
2013-02-12 13:48:00,39.5,27.6,29.88,WSW,246,0.0,12.0,62,0.00,,,0.00,VWS V14.01,2013-02-12 18:48:00,
2013-02-12 13:49:00,39.5,27.6,29.88,SSW,213,4.0,12.0,62,0.00,,,0.00,VWS V14.01,2013-02-12 18:49:00,
2013-02-12 13:50:00,39.5,27.6,29.88,West,272,0.0,12.0,62,0.00,,,0.00,VWS V14.01,2013-02-12 18:50:00,
2013-02-12 13:51:00,39.5,27.6,29.88,WSW,254,11.0,11.0,62,0.00,,,0.00,VWS V14.01,2013-02-12 18:51:00,
2013-02-12 13:52:00,39.6,27.7,29.88,WSW,252,4.0,11.0,62,0.00,,,0.00,VWS V14.01,2013-02-12 18:52:00,
2013-02-12 13:53:00,39.5,27.6,29.88,SSW,198,0.0,11.0,62,0.00,,,0.00,VWS V14.01,2013-02-12 18:53:00,
2013-02-12 13:54:00,39.6,27.7,29.88,West,279,2.0,11.0,62,0.00,,,0.00,VWS V14.01,2013-02-12 18:54:00,
2013-02-12 13:55:00,39.6,27.7,29.88,West,278,8.0,13.0,62,0.00,,,0.00,VWS V14.01,2013-02-12 18:55:00,
2013-02-12 13:56:00,39.5,27.2,29.88,WSW,248,8.0,13.0,61,0.00,,,0.00,VWS V14.01,2013-02-12 18:56:00,
2013-02-12 13:57:00,39.5,27.2,29.88,WNW,284,5.0,13.0,61,0.00,,,0.00,VWS V14.01,2013-02-12 18:57:00,
2013-02-12 13:58:00,39.5,27.2,29.88,WNW,299,1.0,13.0,61,0.00,,,0.00,VWS V14.01,2013-02-12 18:58:00,
2013-02-12 13:59:00,39.5,27.6,29.88,WNW,294,4.0,13.0,62,0.00,,,0.00,VWS V14.01,2013-02-12 18:59:00,
2013-02-12 14:00:00,39.5,27.6,29.87,South,182,6.0,13.0,62,0.00,,,0.00,VWS V14.01,2013-02-12 19:00:00,
2013-02-12 14:01:00,39.5,27.6,29.87,West,263,4.0,5.0,62,0.00,,,0.00,VWS V14.01,2013-02-12 19:01:00,
2013-02-12 14:02:00,39.5,27.6,29.87,West,268,3.0,5.0,62,0.00,,,0.00,VWS V14.01,2013-02-12 19:02:00,
2013-02-12 14:03:00,39.5,27.6,29.87,SW,217,5.0,5.0,62,0.00,,,0.00,VWS V14.01,2013-02-12 19:03:00,
2013-02-12 14:04:00,39.5,27.6,29.87,West,261,8.0,10.0,62,0.00,,,0.00,VWS V14.01,2013-02-12 19:04:00,
2013-02-12 14:05:00,39.5,27.6,29.87,NW,313,4.0,10.0,62,0.00,,,0.00,VWS V14.01,2013-02-12 19:05:00,
2013-02-12 14:06:00,39.5,27.6,29.87,NNE,25,3.0,10.0,62,0.00,,,0.00,VWS V14.01,2013-02-12 19:06:00,
2013-02-12 14:07:00,39.5,27.6,29.87,WSW,242,1.0,10.0,62,0.00,,,0.00,VWS V14.01,2013-02-12 19:07:00,
2013-02-12 14:08:00,39.5,27.6,29.87,WSW,257,5.0,10.0,62,0.00,,,0.00,VWS V14.01,2013-02-12 19:08:00,
2013-02-12 14:09:00,39.5,27.6,29.87,SSW,209,3.0,10.0,62,0.00,,,0.00,VWS V14.01,2013-02-12 19:09:00,
2013-02-12 14:10:00,39.5,27.6,29.87,NNE,13,1.0,10.0,62,0.00,,,0.00,VWS V14.01,2013-02-12 19:10:00,
2013-02-12 14:11:00,39.5,27.6,29.87,NE,49,1.0,5.0,62,0.00,,,0.00,VWS V14.01,2013-02-12 19:11:00,
2013-02-12 14:12:00,39.5,27.2,29.87,WSW,248,3.0,6.0,61,0.00,,,0.00,VWS V14.01,2013-02-12 19:12:00,
2013-02-12 14:13:00,39.5,27.6,29.87,NW,309,5.0,9.0,62,0.00,,,0.00,VWS V14.01,2013-02-12 19:13:00,
2013-02-12 14:14:00,39.5,27.2,29.87,North,355,3.0,9.0,61,0.00,,,0.00,VWS V14.01,2013-02-12 19:14:00,
2013-02-12 14:15:00,39.5,27.2,29.87,SW,221,4.0,9.0,61,0.00,,,0.00,VWS V14.01,2013-02-12 19:15:00,
2013-02-12 14:16:00,39.5,27.6,29.87,SW,236,4.0,9.0,62,0.00,,,0.00,VWS V14.01,2013-02-12 19:16:00,
2013-02-12 14:17:00,39.5,27.6,29.87,West,259,3.0,9.0,62,0.00,,,0.00,VWS V14.01,2013-02-12 19:17:00,
2013-02-12 14:18:00,39.6,27.7,29.87,WSW,257,5.0,9.0,62,0.00,,,0.00,VWS V14.01,2013-02-12 19:18:00,
2013-02-12 14:19:00,39.6,27.7,29.87,WSW,250,5.0,9.0,62,0.00,,,0.00,VWS V14.01,2013-02-12 19:19:00,
2013-02-12 14:20:00,39.6,27.7,29.87,WNW,286,8.0,9.0,62,0.00,,,0.00,VWS V14.01,2013-02-12 19:20:00,
2013-02-12 14:21:00,39.6,27.7,29.87,West,269,6.0,6.0,62,0.00,,,0.00,VWS V14.01,2013-02-12 19:21:00,
2013-02-12 14:22:00,39.6,27.7,29.87,West,265,6.0,6.0,62,0.00,,,0.00,VWS V14.01,2013-02-12 19:22:00,
2013-02-12 14:23:00,39.6,27.7,29.87,WSW,247,11.0,11.0,62,0.00,,,0.00,VWS V14.01,2013-02-12 19:23:00,
2013-02-12 14:24:00,39.6,27.7,29.87,WSW,249,0.0,11.0,62,0.00,,,0.00,VWS V14.01,2013-02-12 19:24:00,
2013-02-12 14:25:00,39.6,27.3,29.87,NW,313,5.0,11.0,61,0.00,,,0.00,VWS V14.01,2013-02-12 19:25:00,
2013-02-12 14:26:00,39.5,27.6,29.87,West,280,2.0,11.0,62,0.00,,,0.00,VWS V14.01,2013-02-12 19:26:00,
2013-02-12 14:27:00,39.5,27.6,29.87,West,265,2.0,11.0,62,0.00,,,0.00,VWS V14.01,2013-02-12 19:27:00,
2013-02-12 14:28:00,39.5,27.6,29.87,West,263,0.0,11.0,62,0.00,,,0.00,VWS V14.01,2013-02-12 19:28:00,
2013-02-12 14:29:00,39.5,27.6,29.87,SE,143,1.0,11.0,62,0.00,,,0.00,VWS V14.01,2013-02-12 19:29:00,
2013-02-12 14:30:00,39.5,27.6,29.87,WNW,296,3.0,11.0,62,0.00,,,0.00,VWS V14.01,2013-02-12 19:30:00,
2013-02-12 14:31:00,39.5,27.6,29.87,West,279,1.0,3.0,62,0.00,,,0.00,VWS V14.01,2013-02-12 19:31:00,
2013-02-12 14:32:00,39.6,27.7,29.87,WNW,300,4.0,6.0,62,0.00,,,0.00,VWS V14.01,2013-02-12 19:32:00,
2013-02-12 14:33:00,39.6,27.7,29.87,North,9,1.0,6.0,62,0.00,,,0.00,VWS V14.01,2013-02-12 19:33:00,
2013-02-12 14:34:00,39.6,27.7,29.87,SE,138,0.0,6.0,62,0.00,,,0.00,VWS V14.01,2013-02-12 19:34:00,
2013-02-12 14:35:00,39.6,27.7,29.87,WNW,290,7.0,7.0,62,0.00,,,0.00,VWS V14.01,2013-02-12 19:35:00,
2013-02-12 14:36:00,39.6,27.7,29.87,NNW,338,3.0,8.0,62,0.00,,,0.00,VWS V14.01,2013-02-12 19:36:00,
2013-02-12 14:37:00,39.6,27.7,29.87,WNW,295,2.0,12.0,62,0.00,,,0.00,VWS V14.01,2013-02-12 19:37:00,
2013-02-12 14:38:00,39.6,27.7,29.87,SSW,210,2.0,12.0,62,0.00,,,0.00,VWS V14.01,2013-02-12 19:38:00,
2013-02-12 14:39:00,39.6,27.7,29.87,WSW,252,3.0,12.0,62,0.00,,,0.00,VWS V14.01,2013-02-12 19:39:00,
2013-02-12 14:40:00,39.6,27.7,29.87,SW,230,0.0,12.0,62,0.00,,,0.00,VWS V14.01,2013-02-12 19:40:00,
2013-02-12 14:41:00,39.7,27.8,29.87,North,5,6.0,9.0,62,0.00,,,0.00,VWS V14.01,2013-02-12 19:41:00,
2013-02-12 14:42:00,39.7,27.8,29.87,WSW,256,6.0,9.0,62,0.00,,,0.00,VWS V14.01,2013-02-12 19:42:00,
2013-02-12 14:43:00,39.7,27.8,29.87,NNW,337,9.0,11.0,62,0.00,,,0.00,VWS V14.01,2013-02-12 19:43:00,
2013-02-12 14:44:00,39.7,27.4,29.87,WNW,302,5.0,11.0,61,0.00,,,0.00,VWS V14.01,2013-02-12 19:44:00,
2013-02-12 14:45:00,39.6,27.3,29.87,West,281,3.0,11.0,61,0.00,,,0.00,VWS V14.01,2013-02-12 19:45:00,
2013-02-12 14:46:00,39.7,27.4,29.87,West,260,0.0,11.0,61,0.00,,,0.00,VWS V14.01,2013-02-12 19:46:00,
2013-02-12 14:47:00,39.7,27.8,29.87,WSW,240,2.0,11.0,62,0.00,,,0.00,VWS V14.01,2013-02-12 19:47:00,
2013-02-12 14:48:00,39.7,27.8,29.87,NW,304,3.0,11.0,62,0.00,,,0.00,VWS V14.01,2013-02-12 19:48:00,
2013-02-12 14:49:00,39.7,27.8,29.87,NW,323,1.0,11.0,62,0.00,,,0.00,VWS V14.01,2013-02-12 19:49:00,
2013-02-12 14:50:00,39.7,27.4,29.87,West,278,1.0,11.0,61,0.00,,,0.00,VWS V14.01,2013-02-12 19:50:00,
2013-02-12 14:51:00,39.7,27.4,29.87,South,171,1.0,5.0,61,0.00,,,0.00,VWS V14.01,2013-02-12 19:51:00,
2013-02-12 14:52:00,39.7,27.4,29.87,WNW,285,9.0,10.0,61,0.00,,,0.00,VWS V14.01,2013-02-12 19:52:00,
2013-02-12 14:53:00,39.6,27.3,29.87,SW,223,5.0,12.0,61,0.00,,,0.00,VWS V14.01,2013-02-12 19:53:00,
2013-02-12 14:54:00,39.6,27.3,29.87,West,261,3.0,12.0,61,0.00,,,0.00,VWS V14.01,2013-02-12 19:54:00,
2013-02-12 14:55:00,39.5,27.2,29.87,WSW,248,8.0,12.0,61,0.00,,,0.00,VWS V14.01,2013-02-12 19:55:00,
2013-02-12 14:56:00,39.6,27.3,29.87,SE,146,4.0,12.0,61,0.00,,,0.00,VWS V14.01,2013-02-12 19:56:00,
2013-02-12 14:57:00,39.5,27.6,29.87,SSW,200,4.0,12.0,62,0.00,,,0.00,VWS V14.01,2013-02-12 19:57:00,
2013-02-12 14:58:00,39.5,27.2,29.87,NNW,330,0.0,12.0,61,0.00,,,0.00,VWS V14.01,2013-02-12 19:58:00,
2013-02-12 14:59:00,39.5,27.6,29.87,SW,223,1.0,12.0,62,0.00,,,0.00,VWS V14.01,2013-02-12 19:59:00,
2013-02-12 15:00:00,39.5,27.2,29.87,SW,229,2.0,12.0,61,0.00,,,0.00,VWS V14.01,2013-02-12 20:00:00,
2013-02-12 15:01:00,39.5,27.2,29.87,West,261,3.0,6.0,61,0.00,,,0.00,VWS V14.01,2013-02-12 20:01:00,
2013-02-12 15:02:00,39.5,27.2,29.87,East,95,2.0,6.0,61,0.00,,,0.00,VWS V14.01,2013-02-12 20:02:00,
2013-02-12 15:03:00,39.5,27.2,29.87,West,263,2.0,6.0,61,0.00,,,0.00,VWS V14.01,2013-02-12 20:03:00,
2013-02-12 15:04:00,39.5,27.2,29.87,SSE,151,0.0,6.0,61,0.00,,,0.00,VWS V14.01,2013-02-12 20:04:00,
2013-02-12 15:05:00,39.5,27.2,29.87,WNW,293,6.0,6.0,61,0.00,,,0.00,VWS V14.01,2013-02-12 20:05:00,
2013-02-12 15:06:00,39.5,27.2,29.87,WSW,246,4.0,11.0,61,0.00,,,0.00,VWS V14.01,2013-02-12 20:06:00,
2013-02-12 15:07:00,39.5,27.2,29.87,NW,315,2.0,11.0,61,0.00,,,0.00,VWS V14.01,2013-02-12 20:07:00,
2013-02-12 15:08:00,39.5,27.2,29.87,WNW,289,0.0,11.0,61,0.00,,,0.00,VWS V14.01,2013-02-12 20:08:00,
2013-02-12 15:09:00,39.5,27.2,29.87,WNW,282,0.0,11.0,61,0.00,,,0.00,VWS V14.01,2013-02-12 20:09:00,
2013-02-12 15:10:00,39.5,27.6,29.87,WSW,246,4.0,11.0,62,0.00,,,0.00,VWS V14.01,2013-02-12 20:10:00,
2013-02-12 15:11:00,39.5,27.2,29.87,West,267,7.0,8.0,61,0.00,,,0.00,VWS V14.01,2013-02-12 20:11:00,
2013-02-12 15:12:00,39.4,27.1,29.87,West,277,4.0,8.0,61,0.00,,,0.00,VWS V14.01,2013-02-12 20:12:00,
2013-02-12 15:13:00,39.4,27.1,29.87,WSW,250,4.0,8.0,61,0.00,,,0.00,VWS V14.01,2013-02-12 20:13:00,
2013-02-12 15:14:00,39.4,27.5,29.87,West,259,1.0,8.0,62,0.00,,,0.00,VWS V14.01,2013-02-12 20:14:00,
2013-02-12 15:15:00,39.4,27.5,29.87,SW,236,2.0,8.0,62,0.00,,,0.00,VWS V14.01,2013-02-12 20:15:00,
2013-02-12 15:16:00,39.4,27.5,29.87,SW,228,6.0,9.0,62,0.00,,,0.00,VWS V14.01,2013-02-12 20:16:00,
2013-02-12 15:17:00,39.3,27.4,29.87,WSW,247,7.0,10.0,62,0.00,,,0.00,VWS V14.01,2013-02-12 20:17:00,
2013-02-12 15:18:00,39.3,27.4,29.87,SW,236,3.0,10.0,62,0.00,,,0.00,VWS V14.01,2013-02-12 20:18:00,
2013-02-12 15:19:00,39.3,27.4,29.87,WSW,248,10.0,10.0,62,0.00,,,0.00,VWS V14.01,2013-02-12 20:19:00,
2013-02-12 15:20:00,39.2,27.3,29.87,West,259,6.0,10.0,62,0.00,,,0.00,VWS V14.01,2013-02-12 20:20:00,
2013-02-12 15:21:00,39.2,27.3,29.87,WSW,250,6.0,6.0,62,0.00,,,0.00,VWS V14.01,2013-02-12 20:21:00,
2013-02-12 15:22:00,39.2,27.3,29.87,West,261,5.0,6.0,62,0.00,,,0.00,VWS V14.01,2013-02-12 20:22:00,
2013-02-12 15:23:00,39.1,27.2,29.87,WNW,294,1.0,8.0,62,0.00,,,0.00,VWS V14.01,2013-02-12 20:23:00,
2013-02-12 15:24:00,39.1,27.2,29.87,WNW,283,3.0,8.0,62,0.00,,,0.00,VWS V14.01,2013-02-12 20:24:00,
2013-02-12 15:25:00,39.1,27.2,29.87,WSW,247,5.0,8.0,62,0.00,,,0.00,VWS V14.01,2013-02-12 20:25:00,
2013-02-12 15:26:00,39.0,27.1,29.87,WSW,252,6.0,8.0,62,0.00,,,0.00,VWS V14.01,2013-02-12 20:26:00,
2013-02-12 15:27:00,38.9,27.0,29.87,West,273,2.0,8.0,62,0.00,,,0.00,VWS V14.01,2013-02-12 20:27:00,
2013-02-12 15:28:00,38.9,27.4,29.87,NW,310,3.0,8.0,63,0.00,,,0.00,VWS V14.01,2013-02-12 20:28:00,
2013-02-12 15:29:00,38.9,27.4,29.87,NW,309,1.0,8.0,63,0.00,,,0.00,VWS V14.01,2013-02-12 20:29:00,
2013-02-12 15:30:00,38.9,27.4,29.85,South,175,3.0,8.0,63,0.00,,,0.00,VWS V14.01,2013-02-12 20:30:00,
2013-02-12 15:31:00,38.9,27.4,29.85,SSW,198,0.0,5.0,63,0.00,,,0.00,VWS V14.01,2013-02-12 20:31:00,
2013-02-12 15:32:00,38.9,27.8,29.85,SW,228,1.0,6.0,64,0.00,,,0.00,VWS V14.01,2013-02-12 20:32:00,
2013-02-12 15:33:00,38.8,27.7,29.85,WSW,254,2.0,6.0,64,0.00,,,0.00,VWS V14.01,2013-02-12 20:33:00,
2013-02-12 15:34:00,38.8,27.7,29.85,WSW,254,0.0,6.0,64,0.00,,,0.00,VWS V14.01,2013-02-12 20:34:00,
2013-02-12 15:35:00,38.8,27.7,29.85,NW,309,3.0,6.0,64,0.00,,,0.00,VWS V14.01,2013-02-12 20:35:00,
2013-02-12 15:36:00,38.8,27.7,29.85,NNW,348,6.0,6.0,64,0.00,,,0.00,VWS V14.01,2013-02-12 20:36:00,
2013-02-12 15:37:00,38.8,27.7,29.85,West,279,2.0,6.0,64,0.00,,,0.00,VWS V14.01,2013-02-12 20:37:00,
2013-02-12 15:38:00,38.8,27.7,29.85,West,262,3.0,6.0,64,0.00,,,0.00,VWS V14.01,2013-02-12 20:38:00,
2013-02-12 15:39:00,38.8,27.7,29.85,WNW,282,3.0,6.0,64,0.00,,,0.00,VWS V14.01,2013-02-12 20:39:00,
2013-02-12 15:40:00,38.8,27.3,29.85,WNW,284,0.0,6.0,63,0.00,,,0.00,VWS V14.01,2013-02-12 20:40:00,
2013-02-12 15:41:00,38.8,27.7,29.85,WNW,284,2.0,2.0,64,0.00,,,0.00,VWS V14.01,2013-02-12 20:41:00,
2013-02-12 15:42:00,38.8,27.7,29.85,West,265,2.0,4.0,64,0.00,,,0.00,VWS V14.01,2013-02-12 20:42:00,
2013-02-12 15:43:00,38.8,27.3,29.85,West,277,0.0,4.0,63,0.00,,,0.00,VWS V14.01,2013-02-12 20:43:00,
2013-02-12 15:44:00,38.7,27.6,29.85,NNE,22,1.0,4.0,64,0.00,,,0.00,VWS V14.01,2013-02-12 20:44:00,
2013-02-12 15:45:00,38.7,27.6,29.83,West,271,0.0,4.0,64,0.00,,,0.00,VWS V14.01,2013-02-12 20:45:00,
2013-02-12 15:46:00,38.7,27.6,29.83,WSW,257,2.0,4.0,64,0.00,,,0.00,VWS V14.01,2013-02-12 20:46:00,
2013-02-12 15:47:00,38.7,27.6,29.83,WSW,253,2.0,4.0,64,0.00,,,0.00,VWS V14.01,2013-02-12 20:47:00,
2013-02-12 15:48:00,38.7,27.6,29.83,SW,229,3.0,6.0,64,0.00,,,0.00,VWS V14.01,2013-02-12 20:48:00,
2013-02-12 15:49:00,38.7,27.6,29.83,NNW,330,3.0,12.0,64,0.00,,,0.00,VWS V14.01,2013-02-12 20:49:00,
2013-02-12 15:50:00,38.6,27.5,29.83,West,271,3.0,12.0,64,0.00,,,0.00,VWS V14.01,2013-02-12 20:50:00,
2013-02-12 15:51:00,38.6,27.5,29.83,West,277,0.0,7.0,64,0.00,,,0.00,VWS V14.01,2013-02-12 20:51:00,
2013-02-12 15:52:00,38.6,27.5,29.83,WSW,247,4.0,7.0,64,0.00,,,0.00,VWS V14.01,2013-02-12 20:52:00,
2013-02-12 15:53:00,38.5,27.4,29.83,West,277,4.0,7.0,64,0.00,,,0.00,VWS V14.01,2013-02-12 20:53:00,
2013-02-12 15:54:00,38.5,27.4,29.83,West,277,1.0,7.0,64,0.00,,,0.00,VWS V14.01,2013-02-12 20:54:00,
2013-02-12 15:55:00,38.5,27.4,29.83,WSW,252,2.0,7.0,64,0.00,,,0.00,VWS V14.01,2013-02-12 20:55:00,
2013-02-12 15:56:00,38.5,27.4,29.83,NW,304,2.0,7.0,64,0.00,,,0.00,VWS V14.01,2013-02-12 20:56:00,
2013-02-12 15:57:00,38.5,27.4,29.83,WSW,244,2.0,7.0,64,0.00,,,0.00,VWS V14.01,2013-02-12 20:57:00,
2013-02-12 15:58:00,38.4,27.7,29.83,West,278,1.0,7.0,65,0.00,,,0.00,VWS V14.01,2013-02-12 20:58:00,
2013-02-12 15:59:00,38.4,27.3,29.83,West,268,3.0,7.0,64,0.00,,,0.00,VWS V14.01,2013-02-12 20:59:00,
2013-02-12 16:00:00,38.4,27.7,29.81,NNW,342,2.0,7.0,65,0.00,,,0.00,VWS V14.01,2013-02-12 21:00:00,
2013-02-12 16:01:00,38.4,27.3,29.81,NNW,339,1.0,1.0,64,0.00,,,0.00,VWS V14.01,2013-02-12 21:01:00,
2013-02-12 16:02:00,38.3,27.2,29.81,West,271,6.0,6.0,64,0.00,,,0.00,VWS V14.01,2013-02-12 21:02:00,
2013-02-12 16:03:00,38.3,27.2,29.81,WSW,252,4.0,6.0,64,0.00,,,0.00,VWS V14.01,2013-02-12 21:03:00,
2013-02-12 16:04:00,38.3,27.2,29.81,WNW,290,3.0,6.0,64,0.00,,,0.00,VWS V14.01,2013-02-12 21:04:00,
2013-02-12 16:05:00,38.3,27.2,29.81,WNW,299,1.0,6.0,64,0.00,,,0.00,VWS V14.01,2013-02-12 21:05:00,
2013-02-12 16:06:00,38.3,27.6,29.81,NW,324,2.0,6.0,65,0.00,,,0.00,VWS V14.01,2013-02-12 21:06:00,
2013-02-12 16:07:00,38.2,27.5,29.81,NNE,16,0.0,6.0,65,0.00,,,0.00,VWS V14.01,2013-02-12 21:07:00,
2013-02-12 16:08:00,38.2,27.5,29.81,NW,307,3.0,6.0,65,0.00,,,0.00,VWS V14.01,2013-02-12 21:08:00,
2013-02-12 16:09:00,38.1,27.4,29.81,West,267,1.0,6.0,65,0.00,,,0.00,VWS V14.01,2013-02-12 21:09:00,
2013-02-12 16:10:00,38.0,27.3,29.81,WNW,294,0.0,6.0,65,0.00,,,0.00,VWS V14.01,2013-02-12 21:10:00,
2013-02-12 16:11:00,38.0,27.3,29.81,WNW,294,1.0,1.0,65,0.00,,,0.00,VWS V14.01,2013-02-12 21:11:00,
2013-02-12 16:12:00,38.0,27.3,29.81,SW,228,4.0,4.0,65,0.00,,,0.00,VWS V14.01,2013-02-12 21:12:00,
2013-02-12 16:13:00,37.9,27.2,29.81,SW,232,5.0,8.0,65,0.00,,,0.00,VWS V14.01,2013-02-12 21:13:00,
2013-02-12 16:14:00,37.9,27.2,29.81,WSW,252,3.0,8.0,65,0.00,,,0.00,VWS V14.01,2013-02-12 21:14:00,
2013-02-12 16:15:00,37.9,27.2,29.81,WSW,244,1.0,8.0,65,0.00,,,0.00,VWS V14.01,2013-02-12 21:15:00,
2013-02-12 16:16:00,37.8,27.1,29.81,WNW,292,5.0,8.0,65,0.00,,,0.00,VWS V14.01,2013-02-12 21:16:00,
2013-02-12 16:17:00,37.8,27.1,29.81,WSW,253,2.0,8.0,65,0.00,,,0.00,VWS V14.01,2013-02-12 21:17:00,
2013-02-12 16:18:00,37.8,27.1,29.81,WSW,250,5.0,8.0,65,0.00,,,0.00,VWS V14.01,2013-02-12 21:18:00,
2013-02-12 16:19:00,37.7,27.0,29.81,WSW,244,5.0,8.0,65,0.00,,,0.00,VWS V14.01,2013-02-12 21:19:00,
2013-02-12 16:20:00,37.7,27.0,29.81,SW,232,2.0,8.0,65,0.00,,,0.00,VWS V14.01,2013-02-12 21:20:00,
2013-02-12 16:21:00,37.7,27.0,29.81,SW,223,4.0,6.0,65,0.00,,,0.00,VWS V14.01,2013-02-12 21:21:00,
2013-02-12 16:22:00,37.6,26.9,29.81,SW,229,2.0,6.0,65,0.00,,,0.00,VWS V14.01,2013-02-12 21:22:00,
2013-02-12 16:23:00,37.6,26.9,29.81,SW,232,2.0,6.0,65,0.00,,,0.00,VWS V14.01,2013-02-12 21:23:00,
2013-02-12 16:24:00,37.6,27.3,29.81,WNW,284,1.0,6.0,66,0.00,,,0.00,VWS V14.01,2013-02-12 21:24:00,
2013-02-12 16:25:00,37.6,27.3,29.81,WSW,251,3.0,6.0,66,0.00,,,0.00,VWS V14.01,2013-02-12 21:25:00,
2013-02-12 16:26:00,37.6,27.3,29.81,WSW,254,0.0,6.0,66,0.00,,,0.00,VWS V14.01,2013-02-12 21:26:00,
2013-02-12 16:27:00,37.6,27.3,29.81,WSW,239,2.0,6.0,66,0.00,,,0.00,VWS V14.01,2013-02-12 21:27:00,
2013-02-12 16:28:00,37.5,27.2,29.81,WNW,299,0.0,6.0,66,0.00,,,0.00,VWS V14.01,2013-02-12 21:28:00,
2013-02-12 16:29:00,37.5,27.2,29.81,WNW,299,0.0,6.0,66,0.00,,,0.00,VWS V14.01,2013-02-12 21:29:00,
2013-02-12 16:30:00,37.5,27.2,29.85,West,271,7.0,7.0,66,0.00,,,0.00,VWS V14.01,2013-02-12 21:30:00,
2013-02-12 16:31:00,37.5,27.2,29.85,NW,321,4.0,9.0,66,0.00,,,0.00,VWS V14.01,2013-02-12 21:31:00,
2013-02-12 16:32:00,37.5,27.2,29.85,NW,323,0.0,9.0,66,0.00,,,0.00,VWS V14.01,2013-02-12 21:32:00,
2013-02-12 16:33:00,37.5,27.2,29.85,NW,323,0.0,9.0,66,0.00,,,0.00,VWS V14.01,2013-02-12 21:33:00,
2013-02-12 16:34:00,37.5,27.2,29.85,WNW,283,3.0,9.0,66,0.00,,,0.00,VWS V14.01,2013-02-12 21:34:00,
2013-02-12 16:35:00,37.5,27.2,29.85,SW,220,0.0,9.0,66,0.00,,,0.00,VWS V14.01,2013-02-12 21:35:00,
2013-02-12 16:36:00,37.4,27.1,29.85,West,268,6.0,9.0,66,0.00,,,0.00,VWS V14.01,2013-02-12 21:36:00,
2013-02-12 16:37:00,37.4,27.1,29.85,West,265,6.0,9.0,66,0.00,,,0.00,VWS V14.01,2013-02-12 21:37:00,
2013-02-12 16:38:00,37.4,27.1,29.85,West,264,3.0,9.0,66,0.00,,,0.00,VWS V14.01,2013-02-12 21:38:00,
2013-02-12 16:39:00,37.4,27.1,29.85,West,265,3.0,9.0,66,0.00,,,0.00,VWS V14.01,2013-02-12 21:39:00,
2013-02-12 16:40:00,37.3,27.0,29.85,West,265,2.0,9.0,66,0.00,,,0.00,VWS V14.01,2013-02-12 21:40:00,
2013-02-12 16:41:00,37.3,27.0,29.85,West,265,2.0,2.0,66,0.00,,,0.00,VWS V14.01,2013-02-12 21:41:00,
2013-02-12 16:42:00,37.3,27.0,29.85,West,259,6.0,7.0,66,0.00,,,0.00,VWS V14.01,2013-02-12 21:42:00,
2013-02-12 16:43:00,37.3,27.0,29.85,NW,306,4.0,7.0,66,0.00,,,0.00,VWS V14.01,2013-02-12 21:43:00,
2013-02-12 16:44:00,37.2,26.9,29.85,WSW,258,7.0,7.0,66,0.00,,,0.00,VWS V14.01,2013-02-12 21:44:00,
2013-02-12 16:45:00,37.2,27.3,29.87,WSW,248,3.0,7.0,67,0.00,,,0.00,VWS V14.01,2013-02-12 21:45:00,
2013-02-12 16:46:00,37.2,27.3,29.87,WSW,248,0.0,7.0,67,0.00,,,0.00,VWS V14.01,2013-02-12 21:46:00,
2013-02-12 16:47:00,37.1,27.2,29.87,West,263,3.0,7.0,67,0.00,,,0.00,VWS V14.01,2013-02-12 21:47:00,
2013-02-12 16:48:00,37.1,27.2,29.87,West,263,0.0,7.0,67,0.00,,,0.00,VWS V14.01,2013-02-12 21:48:00,
2013-02-12 16:49:00,37.1,27.2,29.87,WNW,296,4.0,7.0,67,0.00,,,0.00,VWS V14.01,2013-02-12 21:49:00,
2013-02-12 16:50:00,37.1,27.2,29.87,WSW,251,3.0,7.0,67,0.00,,,0.00,VWS V14.01,2013-02-12 21:50:00,
2013-02-12 16:51:00,37.1,27.2,29.87,WSW,253,4.0,4.0,67,0.00,,,0.00,VWS V14.01,2013-02-12 21:51:00,
2013-02-12 16:52:00,37.1,27.2,29.87,WSW,249,1.0,4.0,67,0.00,,,0.00,VWS V14.01,2013-02-12 21:52:00,
2013-02-12 16:53:00,37.1,27.2,29.87,West,281,4.0,8.0,67,0.00,,,0.00,VWS V14.01,2013-02-12 21:53:00,
2013-02-12 16:54:00,37.1,27.2,29.87,West,266,4.0,8.0,67,0.00,,,0.00,VWS V14.01,2013-02-12 21:54:00,
2013-02-12 16:55:00,37.0,26.7,29.87,West,260,1.0,8.0,66,0.00,,,0.00,VWS V14.01,2013-02-12 21:55:00,
2013-02-12 16:56:00,37.0,27.1,29.87,West,259,5.0,8.0,67,0.00,,,0.00,VWS V14.01,2013-02-12 21:56:00,
2013-02-12 16:57:00,37.0,27.1,29.87,West,261,2.0,8.0,67,0.00,,,0.00,VWS V14.01,2013-02-12 21:57:00,
2013-02-12 16:58:00,37.0,27.1,29.87,NNW,340,0.0,8.0,67,0.00,,,0.00,VWS V14.01,2013-02-12 21:58:00,
2013-02-12 16:59:00,37.0,27.1,29.87,West,279,0.0,8.0,67,0.00,,,0.00,VWS V14.01,2013-02-12 21:59:00,
2013-02-12 17:00:00,37.0,27.1,29.87,West,277,3.0,8.0,67,0.00,,,0.00,VWS V14.01,2013-02-12 22:00:00,
2013-02-12 17:01:00,37.0,27.1,29.87,WSW,253,4.0,9.0,67,0.00,,,0.00,VWS V14.01,2013-02-12 22:01:00,
2013-02-12 17:02:00,37.0,27.1,29.87,WSW,253,4.0,9.0,67,0.00,,,0.00,VWS V14.01,2013-02-12 22:02:00,
2013-02-12 17:03:00,36.9,27.0,29.87,WNW,299,7.0,9.0,67,0.00,,,0.00,VWS V14.01,2013-02-12 22:03:00,
2013-02-12 17:04:00,36.9,27.0,29.87,WSW,257,2.0,9.0,67,0.00,,,0.00,VWS V14.01,2013-02-12 22:04:00,
2013-02-12 17:05:00,36.9,27.0,29.87,West,269,2.0,9.0,67,0.00,,,0.00,VWS V14.01,2013-02-12 22:05:00,
2013-02-12 17:06:00,36.9,27.0,29.87,WNW,284,5.0,9.0,67,0.00,,,0.00,VWS V14.01,2013-02-12 22:06:00,
2013-02-12 17:07:00,36.9,27.0,29.87,West,265,3.0,9.0,67,0.00,,,0.00,VWS V14.01,2013-02-12 22:07:00,
2013-02-12 17:08:00,36.8,26.9,29.87,West,280,0.0,9.0,67,0.00,,,0.00,VWS V14.01,2013-02-12 22:08:00,
2013-02-12 17:09:00,36.8,26.9,29.87,West,260,3.0,9.0,67,0.00,,,0.00,VWS V14.01,2013-02-12 22:09:00,
2013-02-12 17:10:00,36.8,26.9,29.87,WSW,250,4.0,9.0,67,0.00,,,0.00,VWS V14.01,2013-02-12 22:10:00,
2013-02-12 17:11:00,36.8,26.9,29.87,SW,217,3.0,6.0,67,0.00,,,0.00,VWS V14.01,2013-02-12 22:11:00,
2013-02-12 17:12:00,36.8,26.9,29.87,SW,232,4.0,6.0,67,0.00,,,0.00,VWS V14.01,2013-02-12 22:12:00,
2013-02-12 17:13:00,36.8,26.9,29.87,WSW,241,4.0,6.0,67,0.00,,,0.00,VWS V14.01,2013-02-12 22:13:00,
2013-02-12 17:14:00,36.8,26.9,29.87,WSW,257,1.0,6.0,67,0.00,,,0.00,VWS V14.01,2013-02-12 22:14:00,
2013-02-12 17:15:00,36.8,27.2,29.93,West,259,5.0,6.0,68,0.00,,,0.00,VWS V14.01,2013-02-12 22:15:00,
2013-02-12 17:16:00,36.7,27.1,29.93,WSW,255,5.0,11.0,68,0.00,,,0.00,VWS V14.01,2013-02-12 22:16:00,
2013-02-12 17:17:00,36.7,27.1,29.93,WSW,243,6.0,13.0,68,0.00,,,0.00,VWS V14.01,2013-02-12 22:17:00,
2013-02-12 17:18:00,36.7,26.8,29.93,WSW,238,2.0,13.0,67,0.00,,,0.00,VWS V14.01,2013-02-12 22:18:00,
2013-02-12 17:19:00,36.7,26.8,29.93,WSW,255,2.0,13.0,67,0.00,,,0.00,VWS V14.01,2013-02-12 22:19:00,
2013-02-12 17:20:00,36.7,26.8,29.93,West,279,4.0,13.0,67,0.00,,,0.00,VWS V14.01,2013-02-12 22:20:00,
2013-02-12 17:21:00,36.7,26.8,29.93,SW,215,4.0,6.0,67,0.00,,,0.00,VWS V14.01,2013-02-12 22:21:00,
2013-02-12 17:22:00,36.7,27.1,29.93,WSW,251,7.0,10.0,68,0.00,,,0.00,VWS V14.01,2013-02-12 22:22:00,
2013-02-12 17:23:00,36.6,27.0,29.93,West,262,15.0,15.0,68,0.00,,,0.00,VWS V14.01,2013-02-12 22:23:00,
2013-02-12 17:24:00,36.6,26.7,29.93,West,261,5.0,15.0,67,0.00,,,0.00,VWS V14.01,2013-02-12 22:24:00,
2013-02-12 17:25:00,36.6,26.7,29.93,West,262,4.0,15.0,67,0.00,,,0.00,VWS V14.01,2013-02-12 22:25:00,
2013-02-12 17:26:00,36.6,26.7,29.93,West,270,4.0,15.0,67,0.00,,,0.00,VWS V14.01,2013-02-12 22:26:00,
2013-02-12 17:27:00,36.6,26.7,29.93,West,279,4.0,15.0,67,0.00,,,0.00,VWS V14.01,2013-02-12 22:27:00,
2013-02-12 17:28:00,36.6,26.7,29.93,West,279,1.0,15.0,67,0.00,,,0.00,VWS V14.01,2013-02-12 22:28:00,
2013-02-12 17:29:00,36.6,26.7,29.93,WSW,246,3.0,15.0,67,0.00,,,0.00,VWS V14.01,2013-02-12 22:29:00,
2013-02-12 17:30:00,36.6,26.7,29.92,SW,234,2.0,15.0,67,0.00,,,0.00,VWS V14.01,2013-02-12 22:30:00,
2013-02-12 17:31:00,36.6,26.7,29.92,SW,236,3.0,3.0,67,0.00,,,0.00,VWS V14.01,2013-02-12 22:31:00,
2013-02-12 17:32:00,36.6,26.7,29.92,WNW,285,7.0,8.0,67,0.00,,,0.00,VWS V14.01,2013-02-12 22:32:00,
2013-02-12 17:33:00,36.6,26.7,29.92,WSW,250,2.0,8.0,67,0.00,,,0.00,VWS V14.01,2013-02-12 22:33:00,
2013-02-12 17:34:00,36.6,26.7,29.92,SW,233,3.0,8.0,67,0.00,,,0.00,VWS V14.01,2013-02-12 22:34:00,
2013-02-12 17:35:00,36.6,26.7,29.92,SW,235,4.0,8.0,67,0.00,,,0.00,VWS V14.01,2013-02-12 22:35:00,
2013-02-12 17:36:00,36.6,26.7,29.92,NW,321,4.0,8.0,67,0.00,,,0.00,VWS V14.01,2013-02-12 22:36:00,
2013-02-12 17:37:00,36.6,26.7,29.92,WNW,302,3.0,8.0,67,0.00,,,0.00,VWS V14.01,2013-02-12 22:37:00,
2013-02-12 17:38:00,36.5,27.0,29.92,NW,311,8.0,8.0,68,0.00,,,0.00,VWS V14.01,2013-02-12 22:38:00,
2013-02-12 17:39:00,36.6,27.0,29.92,WSW,257,5.0,8.0,68,0.00,,,0.00,VWS V14.01,2013-02-12 22:39:00,
2013-02-12 17:40:00,36.5,26.6,29.92,WSW,257,3.0,8.0,67,0.00,,,0.00,VWS V14.01,2013-02-12 22:40:00,
2013-02-12 17:41:00,36.5,26.6,29.92,WSW,246,0.0,3.0,67,0.00,,,0.00,VWS V14.01,2013-02-12 22:41:00,
2013-02-12 17:42:00,36.5,27.0,29.92,NW,322,0.0,3.0,68,0.00,,,0.00,VWS V14.01,2013-02-12 22:42:00,
2013-02-12 17:43:00,36.5,27.0,29.92,WSW,250,3.0,5.0,68,0.00,,,0.00,VWS V14.01,2013-02-12 22:43:00,
2013-02-12 17:44:00,36.5,27.0,29.92,NNW,337,7.0,8.0,68,0.00,,,0.00,VWS V14.01,2013-02-12 22:44:00,
2013-02-12 17:45:00,36.5,27.0,29.95,West,267,6.0,8.0,68,0.00,,,0.00,VWS V14.01,2013-02-12 22:45:00,
2013-02-12 17:46:00,36.5,26.6,29.95,SW,221,3.0,8.0,67,0.00,,,0.00,VWS V14.01,2013-02-12 22:46:00,
2013-02-12 17:47:00,36.5,26.6,29.95,West,261,5.0,8.0,67,0.00,,,0.00,VWS V14.01,2013-02-12 22:47:00,
2013-02-12 17:48:00,36.5,26.6,29.95,NNW,337,4.0,8.0,67,0.00,,,0.00,VWS V14.01,2013-02-12 22:48:00,
2013-02-12 17:49:00,36.4,26.5,29.95,West,277,9.0,9.0,67,0.00,,,0.00,VWS V14.01,2013-02-12 22:49:00,
2013-02-12 17:50:00,36.5,26.6,29.95,WSW,244,4.0,9.0,67,0.00,,,0.00,VWS V14.01,2013-02-12 22:50:00,
2013-02-12 17:51:00,36.4,26.5,29.95,ESE,111,3.0,4.0,67,0.00,,,0.00,VWS V14.01,2013-02-12 22:51:00,
2013-02-12 17:52:00,36.5,26.6,29.95,West,278,1.0,7.0,67,0.00,,,0.00,VWS V14.01,2013-02-12 22:52:00,
2013-02-12 17:53:00,36.4,26.9,29.95,West,278,0.0,7.0,68,0.00,,,0.00,VWS V14.01,2013-02-12 22:53:00,
2013-02-12 17:54:00,36.4,26.5,29.95,West,261,6.0,7.0,67,0.00,,,0.00,VWS V14.01,2013-02-12 22:54:00,
2013-02-12 17:55:00,36.4,26.5,29.95,WNW,296,3.0,7.0,67,0.00,,,0.00,VWS V14.01,2013-02-12 22:55:00,
2013-02-12 17:56:00,36.4,26.5,29.95,West,263,4.0,7.0,67,0.00,,,0.00,VWS V14.01,2013-02-12 22:56:00,
2013-02-12 17:57:00,36.4,26.5,29.95,WSW,249,1.0,7.0,67,0.00,,,0.00,VWS V14.01,2013-02-12 22:57:00,
2013-02-12 17:58:00,36.4,26.5,29.95,West,264,7.0,8.0,67,0.00,,,0.00,VWS V14.01,2013-02-12 22:58:00,
2013-02-12 17:59:00,36.4,26.5,29.95,WNW,285,6.0,8.0,67,0.00,,,0.00,VWS V14.01,2013-02-12 22:59:00,
2013-02-12 18:00:00,36.4,26.1,29.93,WNW,286,5.0,9.0,66,0.00,,,0.00,VWS V14.01,2013-02-12 23:00:00,
2013-02-12 18:01:00,36.4,26.1,29.93,West,269,3.0,6.0,66,0.00,,,0.00,VWS V14.01,2013-02-12 23:01:00,
2013-02-12 18:02:00,36.4,26.1,29.93,ENE,61,3.0,6.0,66,0.00,,,0.00,VWS V14.01,2013-02-12 23:02:00,
2013-02-12 18:03:00,36.4,26.5,29.93,West,278,5.0,8.0,67,0.00,,,0.00,VWS V14.01,2013-02-12 23:03:00,
2013-02-12 18:04:00,36.4,26.5,29.93,WSW,249,0.0,8.0,67,0.00,,,0.00,VWS V14.01,2013-02-12 23:04:00,
2013-02-12 18:05:00,36.4,26.5,29.93,WSW,244,5.0,8.0,67,0.00,,,0.00,VWS V14.01,2013-02-12 23:05:00,
2013-02-12 18:06:00,36.4,26.5,29.93,SW,232,5.0,13.0,67,0.00,,,0.00,VWS V14.01,2013-02-12 23:06:00,
2013-02-12 18:07:00,36.4,26.5,29.93,West,271,2.0,13.0,67,0.00,,,0.00,VWS V14.01,2013-02-12 23:07:00,
2013-02-12 18:08:00,36.4,26.5,29.93,WSW,248,4.0,13.0,67,0.00,,,0.00,VWS V14.01,2013-02-12 23:08:00,
2013-02-12 18:09:00,36.4,26.5,29.93,West,277,2.0,13.0,67,0.00,,,0.00,VWS V14.01,2013-02-12 23:09:00,
2013-02-12 18:10:00,36.3,26.4,29.93,WNW,294,11.0,13.0,67,0.00,,,0.00,VWS V14.01,2013-02-12 23:10:00,
2013-02-12 18:11:00,36.3,26.0,29.93,SSW,213,0.0,5.0,66,0.00,,,0.00,VWS V14.01,2013-02-12 23:11:00,
2013-02-12 18:12:00,36.3,26.4,29.93,West,269,2.0,6.0,67,0.00,,,0.00,VWS V14.01,2013-02-12 23:12:00,
2013-02-12 18:13:00,36.3,26.4,29.93,WSW,257,1.0,6.0,67,0.00,,,0.00,VWS V14.01,2013-02-12 23:13:00,
2013-02-12 18:14:00,36.3,26.4,29.93,WSW,257,3.0,6.0,67,0.00,,,0.00,VWS V14.01,2013-02-12 23:14:00,
2013-02-12 18:15:00,36.3,26.4,29.95,West,263,4.0,6.0,67,0.00,,,0.00,VWS V14.01,2013-02-12 23:15:00,
2013-02-12 18:16:00,36.3,26.4,29.95,WSW,250,1.0,6.0,67,0.00,,,0.00,VWS V14.01,2013-02-12 23:16:00,
2013-02-12 18:17:00,36.3,26.4,29.95,WNW,288,2.0,6.0,67,0.00,,,0.00,VWS V14.01,2013-02-12 23:17:00,
2013-02-12 18:18:00,36.3,26.4,29.95,WNW,296,4.0,6.0,67,0.00,,,0.00,VWS V14.01,2013-02-12 23:18:00,
2013-02-12 18:19:00,36.3,26.4,29.95,West,259,4.0,6.0,67,0.00,,,0.00,VWS V14.01,2013-02-12 23:19:00,
2013-02-12 18:20:00,36.3,26.4,29.95,West,278,3.0,6.0,67,0.00,,,0.00,VWS V14.01,2013-02-12 23:20:00,
2013-02-12 18:21:00,36.2,26.3,29.95,WNW,298,6.0,10.0,67,0.00,,,0.00,VWS V14.01,2013-02-12 23:21:00,
2013-02-12 18:22:00,36.2,26.3,29.95,WSW,238,7.0,10.0,67,0.00,,,0.00,VWS V14.01,2013-02-12 23:22:00,
2013-02-12 18:23:00,36.2,26.3,29.95,West,267,4.0,10.0,67,0.00,,,0.00,VWS V14.01,2013-02-12 23:23:00,
2013-02-12 18:24:00,36.2,26.3,29.95,West,276,8.0,10.0,67,0.00,,,0.00,VWS V14.01,2013-02-12 23:24:00,
2013-02-12 18:25:00,36.2,26.0,29.95,West,271,2.0,10.0,66,0.00,,,0.00,VWS V14.01,2013-02-12 23:25:00,
2013-02-12 18:26:00,36.2,26.3,29.95,NNW,329,5.0,10.0,67,0.00,,,0.00,VWS V14.01,2013-02-12 23:26:00,
2013-02-12 18:27:00,36.2,26.3,29.95,West,280,8.0,10.0,67,0.00,,,0.00,VWS V14.01,2013-02-12 23:27:00,
2013-02-12 18:28:00,36.2,26.0,29.95,West,268,6.0,10.0,66,0.00,,,0.00,VWS V14.01,2013-02-12 23:28:00,
2013-02-12 18:29:00,36.2,26.0,29.95,West,271,0.0,10.0,66,0.00,,,0.00,VWS V14.01,2013-02-12 23:29:00,
2013-02-12 18:30:00,36.2,26.3,29.94,West,281,5.0,10.0,67,0.00,,,0.00,VWS V14.01,2013-02-12 23:30:00,
2013-02-12 18:31:00,36.2,26.3,29.94,West,271,3.0,4.0,67,0.00,,,0.00,VWS V14.01,2013-02-12 23:31:00,
2013-02-12 18:32:00,36.2,26.3,29.94,NW,322,4.0,7.0,67,0.00,,,0.00,VWS V14.01,2013-02-12 23:32:00,
2013-02-12 18:33:00,36.2,26.3,29.94,WSW,239,6.0,7.0,67,0.00,,,0.00,VWS V14.01,2013-02-12 23:33:00,
2013-02-12 18:34:00,36.2,26.3,29.94,WNW,297,4.0,8.0,67,0.00,,,0.00,VWS V14.01,2013-02-12 23:34:00,
2013-02-12 18:35:00,36.2,26.3,29.94,West,269,3.0,8.0,67,0.00,,,0.00,VWS V14.01,2013-02-12 23:35:00,
2013-02-12 18:36:00,36.2,26.3,29.94,WSW,249,3.0,8.0,67,0.00,,,0.00,VWS V14.01,2013-02-12 23:36:00,
2013-02-12 18:37:00,36.2,26.3,29.94,WSW,244,3.0,8.0,67,0.00,,,0.00,VWS V14.01,2013-02-12 23:37:00,
2013-02-12 18:38:00,36.1,26.2,29.94,WSW,252,4.0,8.0,67,0.00,,,0.00,VWS V14.01,2013-02-12 23:38:00,
2013-02-12 18:39:00,36.1,26.2,29.94,West,279,4.0,8.0,67,0.00,,,0.00,VWS V14.01,2013-02-12 23:39:00,
2013-02-12 18:40:00,36.1,26.2,29.94,WSW,256,1.0,8.0,67,0.00,,,0.00,VWS V14.01,2013-02-12 23:40:00,
2013-02-12 18:41:00,36.1,26.2,29.94,NW,319,3.0,4.0,67,0.00,,,0.00,VWS V14.01,2013-02-12 23:41:00,
2013-02-12 18:42:00,36.1,26.2,29.94,WNW,294,2.0,4.0,67,0.00,,,0.00,VWS V14.01,2013-02-12 23:42:00,
2013-02-12 18:43:00,36.1,26.2,29.94,West,266,6.0,6.0,67,0.00,,,0.00,VWS V14.01,2013-02-12 23:43:00,
2013-02-12 18:44:00,36.1,26.2,29.94,WNW,301,3.0,6.0,67,0.00,,,0.00,VWS V14.01,2013-02-12 23:44:00,
2013-02-12 18:45:00,36.1,26.2,29.95,West,277,0.0,6.0,67,0.00,,,0.00,VWS V14.01,2013-02-12 23:45:00,
2013-02-12 18:46:00,36.1,26.2,29.95,WSW,251,3.0,6.0,67,0.00,,,0.00,VWS V14.01,2013-02-12 23:46:00,
2013-02-12 18:47:00,36.1,26.2,29.95,WSW,248,3.0,6.0,67,0.00,,,0.00,VWS V14.01,2013-02-12 23:47:00,
2013-02-12 18:48:00,36.1,26.2,29.95,NW,309,3.0,6.0,67,0.00,,,0.00,VWS V14.01,2013-02-12 23:48:00,
2013-02-12 18:49:00,36.0,26.1,29.95,NW,305,4.0,8.0,67,0.00,,,0.00,VWS V14.01,2013-02-12 23:49:00,
2013-02-12 18:50:00,36.0,26.1,29.95,West,277,1.0,8.0,67,0.00,,,0.00,VWS V14.01,2013-02-12 23:50:00,
2013-02-12 18:51:00,36.0,26.1,29.95,West,276,0.0,2.0,67,0.00,,,0.00,VWS V14.01,2013-02-12 23:51:00,
2013-02-12 18:52:00,36.0,26.1,29.95,WNW,283,3.0,5.0,67,0.00,,,0.00,VWS V14.01,2013-02-12 23:52:00,
2013-02-12 18:53:00,36.0,26.1,29.95,West,276,3.0,5.0,67,0.00,,,0.00,VWS V14.01,2013-02-12 23:53:00,
2013-02-12 18:54:00,36.0,26.1,29.95,WNW,290,2.0,8.0,67,0.00,,,0.00,VWS V14.01,2013-02-12 23:54:00,
2013-02-12 18:55:00,36.0,26.1,29.95,WNW,285,2.0,8.0,67,0.00,,,0.00,VWS V14.01,2013-02-12 23:55:00,
2013-02-12 18:56:00,36.0,26.1,29.95,West,266,2.0,8.0,67,0.00,,,0.00,VWS V14.01,2013-02-12 23:56:00,
2013-02-12 18:57:00,36.0,26.1,29.95,West,266,0.0,8.0,67,0.00,,,0.00,VWS V14.01,2013-02-12 23:57:00,
2013-02-12 18:58:00,36.0,26.1,29.95,WSW,246,7.0,8.0,67,0.00,,,0.00,VWS V14.01,2013-02-12 23:58:00,
2013-02-12 18:59:00,36.0,26.1,29.95,WSW,255,2.0,8.0,67,0.00,,,0.00,VWS V14.01,2013-02-12 23:59:00,
2013-02-12 19:00:00,35.9,26.0,29.95,WSW,255,0.0,8.0,67,0.00,,,0.00,VWS V14.01,2013-02-13 00:00:00,
2013-02-12 19:01:00,36.0,26.1,29.95,WSW,256,0.0,2.0,67,0.00,,,0.00,VWS V14.01,2013-02-13 00:01:00,
2013-02-12 19:02:00,35.9,26.0,29.95,WNW,298,3.0,3.0,67,0.00,,,0.00,VWS V14.01,2013-02-13 00:02:00,
2013-02-12 19:03:00,35.9,26.0,29.95,WNW,291,2.0,3.0,67,0.00,,,0.00,VWS V14.01,2013-02-13 00:03:00,
2013-02-12 19:04:00,35.9,26.4,29.95,WNW,286,0.0,3.0,68,0.00,,,0.00,VWS V14.01,2013-02-13 00:04:00,
2013-02-12 19:05:00,35.9,26.4,29.95,WNW,294,2.0,7.0,68,0.00,,,0.00,VWS V14.01,2013-02-13 00:05:00,
2013-02-12 19:06:00,35.9,26.4,29.95,SW,220,4.0,7.0,68,0.00,,,0.00,VWS V14.01,2013-02-13 00:06:00,
2013-02-12 19:07:00,35.9,26.4,29.95,NNW,343,3.0,8.0,68,0.00,,,0.00,VWS V14.01,2013-02-13 00:07:00,
2013-02-12 19:08:00,35.9,26.4,29.95,WNW,290,2.0,8.0,68,0.00,,,0.00,VWS V14.01,2013-02-13 00:08:00,
2013-02-12 19:09:00,35.8,26.3,29.95,WSW,242,4.0,8.0,68,0.00,,,0.00,VWS V14.01,2013-02-13 00:09:00,
2013-02-12 19:10:00,35.8,26.3,29.95,WNW,301,6.0,8.0,68,0.00,,,0.00,VWS V14.01,2013-02-13 00:10:00,
2013-02-12 19:11:00,35.8,26.3,29.95,WSW,248,2.0,5.0,68,0.00,,,0.00,VWS V14.01,2013-02-13 00:11:00,
2013-02-12 19:12:00,35.7,26.2,29.95,SSW,213,4.0,5.0,68,0.00,,,0.00,VWS V14.01,2013-02-13 00:12:00,
2013-02-12 19:13:00,35.7,26.2,29.95,WSW,247,5.0,8.0,68,0.00,,,0.00,VWS V14.01,2013-02-13 00:13:00,
2013-02-12 19:14:00,35.7,26.2,29.95,West,267,4.0,8.0,68,0.00,,,0.00,VWS V14.01,2013-02-13 00:14:00,
2013-02-12 19:15:00,35.7,26.2,29.94,NW,308,1.0,8.0,68,0.00,,,0.00,VWS V14.01,2013-02-13 00:15:00,
2013-02-12 19:16:00,35.7,26.2,29.94,West,280,1.0,8.0,68,0.00,,,0.00,VWS V14.01,2013-02-13 00:16:00,
2013-02-12 19:17:00,35.7,26.2,29.94,NW,311,3.0,8.0,68,0.00,,,0.00,VWS V14.01,2013-02-13 00:17:00,
2013-02-12 19:18:00,35.7,26.2,29.94,SW,235,4.0,8.0,68,0.00,,,0.00,VWS V14.01,2013-02-13 00:18:00,
2013-02-12 19:19:00,35.7,26.2,29.94,West,268,6.0,8.0,68,0.00,,,0.00,VWS V14.01,2013-02-13 00:19:00,
2013-02-12 19:20:00,35.7,26.2,29.94,WSW,256,3.0,8.0,68,0.00,,,0.00,VWS V14.01,2013-02-13 00:20:00,
2013-02-12 19:21:00,35.7,26.2,29.94,West,263,7.0,8.0,68,0.00,,,0.00,VWS V14.01,2013-02-13 00:21:00,
2013-02-12 19:22:00,35.7,26.2,29.94,WNW,283,3.0,8.0,68,0.00,,,0.00,VWS V14.01,2013-02-13 00:22:00,
2013-02-12 19:23:00,35.7,26.2,29.94,SW,216,2.0,8.0,68,0.00,,,0.00,VWS V14.01,2013-02-13 00:23:00,
2013-02-12 19:24:00,35.7,26.2,29.94,SW,220,2.0,8.0,68,0.00,,,0.00,VWS V14.01,2013-02-13 00:24:00,
2013-02-12 19:25:00,35.6,26.1,29.94,West,261,5.0,8.0,68,0.00,,,0.00,VWS V14.01,2013-02-13 00:25:00,
2013-02-12 19:26:00,35.7,26.2,29.94,SSW,205,3.0,8.0,68,0.00,,,0.00,VWS V14.01,2013-02-13 00:26:00,
2013-02-12 19:27:00,35.6,26.1,29.94,West,259,3.0,8.0,68,0.00,,,0.00,VWS V14.01,2013-02-13 00:27:00,
2013-02-12 19:28:00,35.6,26.1,29.94,WSW,244,5.0,8.0,68,0.00,,,0.00,VWS V14.01,2013-02-13 00:28:00,
2013-02-12 19:29:00,35.6,25.7,29.94,West,272,2.0,8.0,67,0.00,,,0.00,VWS V14.01,2013-02-13 00:29:00,
2013-02-12 19:30:00,35.6,26.1,29.95,West,272,0.0,8.0,68,0.00,,,0.00,VWS V14.01,2013-02-13 00:30:00,
2013-02-12 19:31:00,35.6,26.1,29.95,WSW,253,1.0,3.0,68,0.00,,,0.00,VWS V14.01,2013-02-13 00:31:00,
2013-02-12 19:32:00,35.6,26.1,29.95,WSW,254,2.0,3.0,68,0.00,,,0.00,VWS V14.01,2013-02-13 00:32:00,
2013-02-12 19:33:00,35.6,26.1,29.95,WSW,248,6.0,11.0,68,0.00,,,0.00,VWS V14.01,2013-02-13 00:33:00,
2013-02-12 19:34:00,35.6,26.1,29.95,West,259,3.0,11.0,68,0.00,,,0.00,VWS V14.01,2013-02-13 00:34:00,
2013-02-12 19:35:00,35.6,26.1,29.95,West,274,3.0,11.0,68,0.00,,,0.00,VWS V14.01,2013-02-13 00:35:00,
2013-02-12 19:36:00,35.6,26.1,29.95,WSW,252,0.0,11.0,68,0.00,,,0.00,VWS V14.01,2013-02-13 00:36:00,
2013-02-12 19:37:00,35.5,26.0,29.95,West,276,1.0,11.0,68,0.00,,,0.00,VWS V14.01,2013-02-13 00:37:00,
2013-02-12 19:38:00,35.5,26.0,29.95,West,275,0.0,11.0,68,0.00,,,0.00,VWS V14.01,2013-02-13 00:38:00,
2013-02-12 19:39:00,35.5,26.0,29.95,WNW,294,1.0,11.0,68,0.00,,,0.00,VWS V14.01,2013-02-13 00:39:00,
2013-02-12 19:40:00,35.5,26.0,29.95,WNW,294,2.0,11.0,68,0.00,,,0.00,VWS V14.01,2013-02-13 00:40:00,
2013-02-12 19:41:00,35.5,26.0,29.95,SSW,197,5.0,5.0,68,0.00,,,0.00,VWS V14.01,2013-02-13 00:41:00,
2013-02-12 19:42:00,35.5,26.0,29.95,SSW,198,1.0,5.0,68,0.00,,,0.00,VWS V14.01,2013-02-13 00:42:00,
2013-02-12 19:43:00,35.5,26.0,29.95,SW,227,2.0,5.0,68,0.00,,,0.00,VWS V14.01,2013-02-13 00:43:00,
2013-02-12 19:44:00,35.4,25.9,29.95,WSW,256,3.0,5.0,68,0.00,,,0.00,VWS V14.01,2013-02-13 00:44:00,
2013-02-12 19:45:00,35.4,25.9,29.95,West,261,1.0,5.0,68,0.00,,,0.00,VWS V14.01,2013-02-13 00:45:00,
2013-02-12 19:46:00,35.4,25.9,29.95,West,261,1.0,5.0,68,0.00,,,0.00,VWS V14.01,2013-02-13 00:46:00,
2013-02-12 19:47:00,35.4,25.9,29.95,West,263,1.0,5.0,68,0.00,,,0.00,VWS V14.01,2013-02-13 00:47:00,
2013-02-12 19:48:00,35.4,25.9,29.95,West,277,1.0,5.0,68,0.00,,,0.00,VWS V14.01,2013-02-13 00:48:00,
2013-02-12 19:49:00,35.3,25.8,29.95,SW,224,0.0,5.0,68,0.00,,,0.00,VWS V14.01,2013-02-13 00:49:00,
2013-02-12 19:50:00,35.3,25.8,29.95,WNW,293,2.0,6.0,68,0.00,,,0.00,VWS V14.01,2013-02-13 00:50:00,
2013-02-12 19:51:00,35.3,25.8,29.95,South,190,1.0,3.0,68,0.00,,,0.00,VWS V14.01,2013-02-13 00:51:00,
2013-02-12 19:52:00,35.3,25.8,29.95,SSW,196,0.0,3.0,68,0.00,,,0.00,VWS V14.01,2013-02-13 00:52:00,
2013-02-12 19:53:00,35.3,25.8,29.95,SSW,196,0.0,3.0,68,0.00,,,0.00,VWS V14.01,2013-02-13 00:53:00,
2013-02-12 19:54:00,35.2,25.7,29.95,SSW,196,0.0,3.0,68,0.00,,,0.00,VWS V14.01,2013-02-13 00:54:00,
2013-02-12 19:55:00,35.2,25.7,29.95,SW,223,1.0,4.0,68,0.00,,,0.00,VWS V14.01,2013-02-13 00:55:00,
2013-02-12 19:56:00,35.2,25.7,29.95,NW,319,2.0,4.0,68,0.00,,,0.00,VWS V14.01,2013-02-13 00:56:00,
2013-02-12 19:57:00,35.2,25.7,29.95,NW,304,3.0,4.0,68,0.00,,,0.00,VWS V14.01,2013-02-13 00:57:00,
2013-02-12 19:58:00,35.2,26.1,29.95,West,271,3.0,5.0,69,0.00,,,0.00,VWS V14.01,2013-02-13 00:58:00,
2013-02-12 19:59:00,35.2,26.1,29.95,WNW,303,3.0,5.0,69,0.00,,,0.00,VWS V14.01,2013-02-13 00:59:00,
2013-02-12 20:00:00,35.1,25.6,29.94,WSW,245,5.0,5.0,68,0.00,,,0.00,VWS V14.01,2013-02-13 01:00:00,
2013-02-12 20:01:00,35.1,25.6,29.94,WSW,240,0.0,2.0,68,0.00,,,0.00,VWS V14.01,2013-02-13 01:01:00,
2013-02-12 20:02:00,35.1,26.0,29.94,WSW,246,3.0,3.0,69,0.00,,,0.00,VWS V14.01,2013-02-13 01:02:00,
2013-02-12 20:03:00,35.0,25.9,29.94,WSW,252,3.0,4.0,69,0.00,,,0.00,VWS V14.01,2013-02-13 01:03:00,
2013-02-12 20:04:00,35.0,25.9,29.94,West,260,4.0,5.0,69,0.00,,,0.00,VWS V14.01,2013-02-13 01:04:00,
2013-02-12 20:05:00,35.0,25.9,29.94,West,262,0.0,5.0,69,0.00,,,0.00,VWS V14.01,2013-02-13 01:05:00,
2013-02-12 20:06:00,35.0,25.9,29.94,West,262,0.0,5.0,69,0.00,,,0.00,VWS V14.01,2013-02-13 01:06:00,
2013-02-12 20:07:00,34.9,25.8,29.94,West,262,0.0,5.0,69,0.00,,,0.00,VWS V14.01,2013-02-13 01:07:00,
2013-02-12 20:08:00,34.9,25.8,29.94,West,262,0.0,5.0,69,0.00,,,0.00,VWS V14.01,2013-02-13 01:08:00,
2013-02-12 20:09:00,34.9,25.8,29.94,WNW,289,4.0,5.0,69,0.00,,,0.00,VWS V14.01,2013-02-13 01:09:00,
2013-02-12 20:10:00,34.8,25.7,29.94,WSW,256,2.0,5.0,69,0.00,,,0.00,VWS V14.01,2013-02-13 01:10:00,
2013-02-12 20:11:00,34.8,25.7,29.94,West,259,1.0,4.0,69,0.00,,,0.00,VWS V14.01,2013-02-13 01:11:00,
2013-02-12 20:12:00,34.8,25.7,29.94,West,259,1.0,4.0,69,0.00,,,0.00,VWS V14.01,2013-02-13 01:12:00,
2013-02-12 20:13:00,34.8,25.7,29.94,West,263,4.0,6.0,69,0.00,,,0.00,VWS V14.01,2013-02-13 01:13:00,
2013-02-12 20:14:00,34.8,25.7,29.94,West,269,0.0,6.0,69,0.00,,,0.00,VWS V14.01,2013-02-13 01:14:00,
2013-02-12 20:15:00,34.7,25.6,29.93,West,269,0.0,6.0,69,0.00,,,0.00,VWS V14.01,2013-02-13 01:15:00,
2013-02-12 20:16:00,34.7,25.6,29.93,West,269,1.0,6.0,69,0.00,,,0.00,VWS V14.01,2013-02-13 01:16:00,
2013-02-12 20:17:00,34.6,25.5,29.93,West,261,3.0,6.0,69,0.00,,,0.00,VWS V14.01,2013-02-13 01:17:00,
2013-02-12 20:18:00,34.6,25.5,29.93,WSW,247,2.0,6.0,69,0.00,,,0.00,VWS V14.01,2013-02-13 01:18:00,
2013-02-12 20:19:00,34.6,25.5,29.93,West,264,2.0,6.0,69,0.00,,,0.00,VWS V14.01,2013-02-13 01:19:00,
2013-02-12 20:20:00,34.5,25.7,29.93,NW,311,1.0,6.0,70,0.00,,,0.00,VWS V14.01,2013-02-13 01:20:00,
2013-02-12 20:21:00,34.5,25.7,29.93,WNW,290,3.0,3.0,70,0.00,,,0.00,VWS V14.01,2013-02-13 01:21:00,
2013-02-12 20:22:00,34.5,25.7,29.93,West,270,1.0,3.0,70,0.00,,,0.00,VWS V14.01,2013-02-13 01:22:00,
2013-02-12 20:23:00,34.4,25.6,29.93,West,270,1.0,3.0,70,0.00,,,0.00,VWS V14.01,2013-02-13 01:23:00,
2013-02-12 20:24:00,34.4,25.6,29.93,WSW,248,3.0,4.0,70,0.00,,,0.00,VWS V14.01,2013-02-13 01:24:00,
2013-02-12 20:25:00,34.4,25.6,29.93,WSW,248,0.0,4.0,70,0.00,,,0.00,VWS V14.01,2013-02-13 01:25:00,
2013-02-12 20:26:00,34.4,25.6,29.93,WSW,248,1.0,4.0,70,0.00,,,0.00,VWS V14.01,2013-02-13 01:26:00,
2013-02-12 20:27:00,34.4,25.6,29.93,WNW,283,2.0,4.0,70,0.00,,,0.00,VWS V14.01,2013-02-13 01:27:00,
2013-02-12 20:28:00,34.3,25.5,29.93,WNW,283,2.0,4.0,70,0.00,,,0.00,VWS V14.01,2013-02-13 01:28:00,
2013-02-12 20:29:00,34.3,25.5,29.93,SW,229,0.0,4.0,70,0.00,,,0.00,VWS V14.01,2013-02-13 01:29:00,
2013-02-12 20:30:00,34.3,25.5,29.92,SW,235,3.0,4.0,70,0.00,,,0.00,VWS V14.01,2013-02-13 01:30:00,
2013-02-12 20:31:00,34.2,25.5,29.92,SW,236,0.0,2.0,70,0.00,,,0.00,VWS V14.01,2013-02-13 01:31:00,
2013-02-12 20:32:00,34.2,25.5,29.92,SW,236,0.0,2.0,70,0.00,,,0.00,VWS V14.01,2013-02-13 01:32:00,
2013-02-12 20:33:00,34.2,25.5,29.92,SW,236,0.0,2.0,70,0.00,,,0.00,VWS V14.01,2013-02-13 01:33:00,
2013-02-12 20:34:00,34.2,25.5,29.92,SW,236,0.0,2.0,70,0.00,,,0.00,VWS V14.01,2013-02-13 01:34:00,
2013-02-12 20:35:00,34.2,25.5,29.92,SW,236,2.0,2.0,70,0.00,,,0.00,VWS V14.01,2013-02-13 01:35:00,
2013-02-12 20:36:00,34.1,25.4,29.92,WSW,239,1.0,3.0,70,0.00,,,0.00,VWS V14.01,2013-02-13 01:36:00,
2013-02-12 20:37:00,34.1,25.7,29.92,WSW,239,0.0,3.0,71,0.00,,,0.00,VWS V14.01,2013-02-13 01:37:00,
2013-02-12 20:38:00,34.0,25.6,29.92,WSW,239,0.0,3.0,71,0.00,,,0.00,VWS V14.01,2013-02-13 01:38:00,
2013-02-12 20:39:00,34.0,25.6,29.92,WSW,239,3.0,3.0,71,0.00,,,0.00,VWS V14.01,2013-02-13 01:39:00,
2013-02-12 20:40:00,34.0,25.6,29.92,NW,317,2.0,3.0,71,0.00,,,0.00,VWS V14.01,2013-02-13 01:40:00,
2013-02-12 20:41:00,33.9,25.5,29.92,NW,306,0.0,3.0,71,0.00,,,0.00,VWS V14.01,2013-02-13 01:41:00,
2013-02-12 20:42:00,33.9,25.5,29.92,NW,306,0.0,3.0,71,0.00,,,0.00,VWS V14.01,2013-02-13 01:42:00,
2013-02-12 20:43:00,33.9,25.5,29.92,NW,306,1.0,3.0,71,0.00,,,0.00,VWS V14.01,2013-02-13 01:43:00,
2013-02-12 20:44:00,33.9,25.5,29.92,NW,306,1.0,3.0,71,0.00,,,0.00,VWS V14.01,2013-02-13 01:44:00,
2013-02-12 20:45:00,33.9,25.5,29.92,NW,306,2.0,3.0,71,0.00,,,0.00,VWS V14.01,2013-02-13 01:45:00,
2013-02-12 20:46:00,33.8,25.4,29.92,NW,306,2.0,3.0,71,0.00,,,0.00,VWS V14.01,2013-02-13 01:46:00,
2013-02-12 20:47:00,33.8,25.4,29.92,West,273,5.0,5.0,71,0.00,,,0.00,VWS V14.01,2013-02-13 01:47:00,
2013-02-12 20:48:00,33.8,25.4,29.92,West,274,2.0,5.0,71,0.00,,,0.00,VWS V14.01,2013-02-13 01:48:00,
2013-02-12 20:49:00,33.7,25.3,29.92,West,274,1.0,5.0,71,0.00,,,0.00,VWS V14.01,2013-02-13 01:49:00,
2013-02-12 20:50:00,33.7,25.3,29.92,West,268,2.0,5.0,71,0.00,,,0.00,VWS V14.01,2013-02-13 01:50:00,
2013-02-12 20:51:00,33.7,25.3,29.92,WSW,248,1.0,3.0,71,0.00,,,0.00,VWS V14.01,2013-02-13 01:51:00,
2013-02-12 20:52:00,33.6,25.2,29.92,WSW,248,3.0,3.0,71,0.00,,,0.00,VWS V14.01,2013-02-13 01:52:00,
2013-02-12 20:53:00,33.6,25.2,29.92,WSW,248,0.0,3.0,71,0.00,,,0.00,VWS V14.01,2013-02-13 01:53:00,
2013-02-12 20:54:00,33.6,25.2,29.92,WSW,248,2.0,3.0,71,0.00,,,0.00,VWS V14.01,2013-02-13 01:54:00,
2013-02-12 20:55:00,33.5,25.1,29.92,West,277,0.0,4.0,71,0.00,,,0.00,VWS V14.01,2013-02-13 01:55:00,
2013-02-12 20:56:00,33.5,25.1,29.92,West,277,2.0,4.0,71,0.00,,,0.00,VWS V14.01,2013-02-13 01:56:00,
2013-02-12 20:57:00,33.5,25.1,29.92,West,277,0.0,4.0,71,0.00,,,0.00,VWS V14.01,2013-02-13 01:57:00,
2013-02-12 20:58:00,33.5,25.1,29.92,West,277,0.0,4.0,71,0.00,,,0.00,VWS V14.01,2013-02-13 01:58:00,
2013-02-12 20:59:00,33.5,25.1,29.92,West,277,1.0,4.0,71,0.00,,,0.00,VWS V14.01,2013-02-13 01:59:00,
2013-02-12 21:00:00,33.4,25.4,29.91,West,277,0.0,4.0,72,0.00,,,0.00,VWS V14.01,2013-02-13 02:00:00,
2013-02-12 21:01:00,33.4,25.4,29.91,West,277,0.0,0.0,72,0.00,,,0.00,VWS V14.01,2013-02-13 02:01:00,
2013-02-12 21:02:00,33.4,25.4,29.91,West,267,0.0,4.0,72,0.00,,,0.00,VWS V14.01,2013-02-13 02:02:00,
2013-02-12 21:03:00,33.3,25.3,29.91,West,267,0.0,4.0,72,0.00,,,0.00,VWS V14.01,2013-02-13 02:03:00,
2013-02-12 21:04:00,33.3,25.3,29.91,West,267,0.0,4.0,72,0.00,,,0.00,VWS V14.01,2013-02-13 02:04:00,
2013-02-12 21:05:00,33.3,25.3,29.91,West,267,0.0,4.0,72,0.00,,,0.00,VWS V14.01,2013-02-13 02:05:00,
2013-02-12 21:06:00,33.3,25.3,29.91,West,267,2.0,4.0,72,0.00,,,0.00,VWS V14.01,2013-02-13 02:06:00,
2013-02-12 21:07:00,33.2,25.2,29.91,West,267,0.0,4.0,72,0.00,,,0.00,VWS V14.01,2013-02-13 02:07:00,
2013-02-12 21:08:00,33.2,25.2,29.91,West,266,4.0,4.0,72,0.00,,,0.00,VWS V14.01,2013-02-13 02:08:00,
2013-02-12 21:09:00,33.2,25.2,29.91,WNW,297,0.0,6.0,72,0.00,,,0.00,VWS V14.01,2013-02-13 02:09:00,
2013-02-12 21:10:00,33.1,25.1,29.91,WNW,297,0.0,6.0,72,0.00,,,0.00,VWS V14.01,2013-02-13 02:10:00,
2013-02-12 21:11:00,33.1,25.1,29.91,WNW,297,0.0,0.0,72,0.00,,,0.00,VWS V14.01,2013-02-13 02:11:00,
2013-02-12 21:12:00,33.1,25.1,29.91,WNW,297,0.0,0.0,72,0.00,,,0.00,VWS V14.01,2013-02-13 02:12:00,
2013-02-12 21:13:00,33.0,25.0,29.91,WNW,297,0.0,0.0,72,0.00,,,0.00,VWS V14.01,2013-02-13 02:13:00,
2013-02-12 21:14:00,33.0,25.0,29.91,WNW,297,0.0,0.0,72,0.00,,,0.00,VWS V14.01,2013-02-13 02:14:00,
2013-02-12 21:15:00,33.0,25.0,29.90,WNW,296,3.0,3.0,72,0.00,,,0.00,VWS V14.01,2013-02-13 02:15:00,
2013-02-12 21:16:00,33.0,25.0,29.90,WNW,295,2.0,3.0,72,0.00,,,0.00,VWS V14.01,2013-02-13 02:16:00,
2013-02-12 21:17:00,32.9,24.9,29.90,WNW,295,0.0,3.0,72,0.00,,,0.00,VWS V14.01,2013-02-13 02:17:00,
2013-02-12 21:18:00,32.9,25.2,29.90,WNW,295,0.0,3.0,73,0.00,,,0.00,VWS V14.01,2013-02-13 02:18:00,
2013-02-12 21:19:00,32.9,25.2,29.90,WNW,295,0.0,3.0,73,0.00,,,0.00,VWS V14.01,2013-02-13 02:19:00,
2013-02-12 21:20:00,32.9,25.2,29.90,WNW,295,0.0,3.0,73,0.00,,,0.00,VWS V14.01,2013-02-13 02:20:00,
2013-02-12 21:21:00,32.8,24.8,29.90,WNW,295,0.0,0.0,72,0.00,,,0.00,VWS V14.01,2013-02-13 02:21:00,
2013-02-12 21:22:00,32.8,24.8,29.90,WNW,295,0.0,0.0,72,0.00,,,0.00,VWS V14.01,2013-02-13 02:22:00,
2013-02-12 21:23:00,32.8,24.8,29.90,WNW,295,0.0,0.0,72,0.00,,,0.00,VWS V14.01,2013-02-13 02:23:00,
2013-02-12 21:24:00,32.8,25.1,29.90,WNW,295,0.0,0.0,73,0.00,,,0.00,VWS V14.01,2013-02-13 02:24:00,
2013-02-12 21:25:00,32.7,25.0,29.90,WNW,295,0.0,0.0,73,0.00,,,0.00,VWS V14.01,2013-02-13 02:25:00,
2013-02-12 21:26:00,32.7,25.0,29.90,WNW,295,0.0,0.0,73,0.00,,,0.00,VWS V14.01,2013-02-13 02:26:00,
2013-02-12 21:27:00,32.6,24.9,29.90,WNW,295,0.0,0.0,73,0.00,,,0.00,VWS V14.01,2013-02-13 02:27:00,
2013-02-12 21:28:00,32.6,24.9,29.90,WNW,295,0.0,0.0,73,0.00,,,0.00,VWS V14.01,2013-02-13 02:28:00,
2013-02-12 21:29:00,32.6,24.9,29.90,WNW,295,0.0,0.0,73,0.00,,,0.00,VWS V14.01,2013-02-13 02:29:00,
2013-02-12 21:30:00,32.5,24.8,29.91,WNW,295,0.0,0.0,73,0.00,,,0.00,VWS V14.01,2013-02-13 02:30:00,
2013-02-12 21:31:00,32.5,24.8,29.91,WNW,295,0.0,0.0,73,0.00,,,0.00,VWS V14.01,2013-02-13 02:31:00,
2013-02-12 21:32:00,32.5,24.8,29.91,WNW,295,0.0,0.0,73,0.00,,,0.00,VWS V14.01,2013-02-13 02:32:00,
2013-02-12 21:33:00,32.4,24.7,29.91,WNW,296,0.0,1.0,73,0.00,,,0.00,VWS V14.01,2013-02-13 02:33:00,
2013-02-12 21:34:00,32.4,24.7,29.91,WNW,296,0.0,1.0,73,0.00,,,0.00,VWS V14.01,2013-02-13 02:34:00,
2013-02-12 21:35:00,32.4,24.7,29.91,WNW,293,0.0,2.0,73,0.00,,,0.00,VWS V14.01,2013-02-13 02:35:00,
2013-02-12 21:36:00,32.3,24.6,29.91,WNW,293,0.0,2.0,73,0.00,,,0.00,VWS V14.01,2013-02-13 02:36:00,
2013-02-12 21:37:00,32.3,24.6,29.91,WNW,293,0.0,2.0,73,0.00,,,0.00,VWS V14.01,2013-02-13 02:37:00,
2013-02-12 21:38:00,32.2,24.5,29.91,WNW,286,0.0,3.0,73,0.00,,,0.00,VWS V14.01,2013-02-13 02:38:00,
2013-02-12 21:39:00,32.2,24.9,29.91,NW,306,2.0,4.0,74,0.00,,,0.00,VWS V14.01,2013-02-13 02:39:00,
2013-02-12 21:40:00,32.1,24.8,29.91,NW,306,0.0,4.0,74,0.00,,,0.00,VWS V14.01,2013-02-13 02:40:00,
2013-02-12 21:41:00,32.1,24.8,29.91,NW,306,0.0,0.0,74,0.00,,,0.00,VWS V14.01,2013-02-13 02:41:00,
2013-02-12 21:42:00,32.1,24.8,29.91,NW,306,0.0,0.0,74,0.00,,,0.00,VWS V14.01,2013-02-13 02:42:00,
2013-02-12 21:43:00,32.1,24.8,29.91,NW,306,0.0,1.0,74,0.00,,,0.00,VWS V14.01,2013-02-13 02:43:00,
2013-02-12 21:44:00,32.0,24.7,29.91,NW,306,0.0,2.0,74,0.00,,,0.00,VWS V14.01,2013-02-13 02:44:00,
2013-02-12 21:45:00,32.0,24.7,29.91,NW,306,0.0,2.0,74,0.00,,,0.00,VWS V14.01,2013-02-13 02:45:00,
2013-02-12 21:46:00,31.9,24.6,29.91,WNW,299,0.0,2.0,74,0.00,,,0.00,VWS V14.01,2013-02-13 02:46:00,
2013-02-12 21:47:00,31.9,24.6,29.91,WSW,255,1.0,4.0,74,0.00,,,0.00,VWS V14.01,2013-02-13 02:47:00,
2013-02-12 21:48:00,31.9,24.6,29.91,WSW,257,0.0,4.0,74,0.00,,,0.00,VWS V14.01,2013-02-13 02:48:00,
2013-02-12 21:49:00,31.8,24.5,29.91,WSW,257,1.0,4.0,74,0.00,,,0.00,VWS V14.01,2013-02-13 02:49:00,
2013-02-12 21:50:00,31.8,24.5,29.91,WSW,257,0.0,4.0,74,0.00,,,0.00,VWS V14.01,2013-02-13 02:50:00,
2013-02-12 21:51:00,31.8,24.5,29.91,WSW,257,1.0,1.0,74,0.00,,,0.00,VWS V14.01,2013-02-13 02:51:00,
2013-02-12 21:52:00,31.7,24.4,29.91,WSW,257,0.0,1.0,74,0.00,,,0.00,VWS V14.01,2013-02-13 02:52:00,
2013-02-12 21:53:00,31.7,24.7,29.91,WSW,246,2.0,2.0,75,0.00,,,0.00,VWS V14.01,2013-02-13 02:53:00,
2013-02-12 21:54:00,31.7,24.7,29.91,West,259,0.0,5.0,75,0.00,,,0.00,VWS V14.01,2013-02-13 02:54:00,
2013-02-12 21:55:00,31.7,24.7,29.91,WNW,292,2.0,5.0,75,0.00,,,0.00,VWS V14.01,2013-02-13 02:55:00,
2013-02-12 21:56:00,31.6,24.6,29.91,NW,317,0.0,5.0,75,0.00,,,0.00,VWS V14.01,2013-02-13 02:56:00,
2013-02-12 21:57:00,31.6,24.6,29.91,NW,317,0.0,5.0,75,0.00,,,0.00,VWS V14.01,2013-02-13 02:57:00,
2013-02-12 21:58:00,31.6,24.6,29.91,NW,316,0.0,5.0,75,0.00,,,0.00,VWS V14.01,2013-02-13 02:58:00,
2013-02-12 21:59:00,31.6,24.6,29.91,NW,316,0.0,5.0,75,0.00,,,0.00,VWS V14.01,2013-02-13 02:59:00,
2013-02-12 22:00:00,31.6,24.6,29.90,NW,316,0.0,5.0,75,0.00,,,0.00,VWS V14.01,2013-02-13 03:00:00,
2013-02-12 22:01:00,31.5,24.5,29.90,NW,326,4.0,4.0,75,0.00,,,0.00,VWS V14.01,2013-02-13 03:01:00,
2013-02-12 22:02:00,31.5,24.5,29.90,NW,317,0.0,4.0,75,0.00,,,0.00,VWS V14.01,2013-02-13 03:02:00,
2013-02-12 22:03:00,31.5,24.5,29.90,NW,317,0.0,4.0,75,0.00,,,0.00,VWS V14.01,2013-02-13 03:03:00,
2013-02-12 22:04:00,31.5,24.8,29.90,NW,316,0.0,4.0,76,0.00,,,0.00,VWS V14.01,2013-02-13 03:04:00,
2013-02-12 22:05:00,31.4,24.7,29.90,WNW,296,0.0,4.0,76,0.00,,,0.00,VWS V14.01,2013-02-13 03:05:00,
2013-02-12 22:06:00,31.4,24.7,29.90,WNW,296,0.0,4.0,76,0.00,,,0.00,VWS V14.01,2013-02-13 03:06:00,
2013-02-12 22:07:00,31.4,24.7,29.90,NE,36,0.0,4.0,76,0.00,,,0.00,VWS V14.01,2013-02-13 03:07:00,
2013-02-12 22:08:00,31.4,24.7,29.90,NE,36,0.0,4.0,76,0.00,,,0.00,VWS V14.01,2013-02-13 03:08:00,
2013-02-12 22:09:00,31.3,24.6,29.90,NE,35,0.0,4.0,76,0.00,,,0.00,VWS V14.01,2013-02-13 03:09:00,
2013-02-12 22:10:00,31.3,24.6,29.90,NE,35,0.0,4.0,76,0.00,,,0.00,VWS V14.01,2013-02-13 03:10:00,
2013-02-12 22:11:00,31.2,24.5,29.90,NE,35,0.0,0.0,76,0.00,,,0.00,VWS V14.01,2013-02-13 03:11:00,
2013-02-12 22:12:00,31.2,24.5,29.90,NE,35,0.0,1.0,76,0.00,,,0.00,VWS V14.01,2013-02-13 03:12:00,
2013-02-12 22:13:00,31.2,24.5,29.90,NE,34,0.0,1.0,76,0.00,,,0.00,VWS V14.01,2013-02-13 03:13:00,
2013-02-12 22:14:00,31.2,24.5,29.90,NE,34,0.0,1.0,76,0.00,,,0.00,VWS V14.01,2013-02-13 03:14:00,
2013-02-12 22:15:00,31.1,24.4,29.90,NE,34,1.0,1.0,76,0.00,,,0.00,VWS V14.01,2013-02-13 03:15:00,
2013-02-12 22:16:00,31.1,24.4,29.90,NE,34,2.0,2.0,76,0.00,,,0.00,VWS V14.01,2013-02-13 03:16:00,
2013-02-12 22:17:00,31.1,24.4,29.90,WSW,245,4.0,4.0,76,0.00,,,0.00,VWS V14.01,2013-02-13 03:17:00,
2013-02-12 22:18:00,31.0,24.3,29.90,WSW,245,1.0,4.0,76,0.00,,,0.00,VWS V14.01,2013-02-13 03:18:00,
2013-02-12 22:19:00,31.0,24.3,29.90,WSW,244,1.0,4.0,76,0.00,,,0.00,VWS V14.01,2013-02-13 03:19:00,
2013-02-12 22:20:00,31.0,24.6,29.90,West,265,2.0,4.0,77,0.00,,,0.00,VWS V14.01,2013-02-13 03:20:00,
2013-02-12 22:21:00,31.0,24.6,29.90,West,265,0.0,3.0,77,0.00,,,0.00,VWS V14.01,2013-02-13 03:21:00,
2013-02-12 22:22:00,31.0,24.6,29.90,West,261,3.0,5.0,77,0.00,,,0.00,VWS V14.01,2013-02-13 03:22:00,
2013-02-12 22:23:00,31.0,24.6,29.90,WSW,243,0.0,5.0,77,0.00,,,0.00,VWS V14.01,2013-02-13 03:23:00,
2013-02-12 22:24:00,31.0,24.6,29.90,WSW,243,0.0,5.0,77,0.00,,,0.00,VWS V14.01,2013-02-13 03:24:00,
2013-02-12 22:25:00,31.0,24.6,29.90,WSW,243,0.0,5.0,77,0.00,,,0.00,VWS V14.01,2013-02-13 03:25:00,
2013-02-12 22:26:00,31.0,24.6,29.90,WSW,243,1.0,5.0,77,0.00,,,0.00,VWS V14.01,2013-02-13 03:26:00,
2013-02-12 22:27:00,30.9,24.5,29.90,WSW,243,0.0,5.0,77,0.00,,,0.00,VWS V14.01,2013-02-13 03:27:00,
2013-02-12 22:28:00,30.9,24.5,29.90,WSW,243,0.0,5.0,77,0.00,,,0.00,VWS V14.01,2013-02-13 03:28:00,
2013-02-12 22:29:00,30.9,24.5,29.90,WSW,243,0.0,5.0,77,0.00,,,0.00,VWS V14.01,2013-02-13 03:29:00,
2013-02-12 22:30:00,30.9,24.5,29.90,WSW,243,0.0,5.0,77,0.00,,,0.00,VWS V14.01,2013-02-13 03:30:00,
2013-02-12 22:31:00,30.9,24.5,29.90,WSW,258,0.0,2.0,77,0.00,,,0.00,VWS V14.01,2013-02-13 03:31:00,
2013-02-12 22:32:00,30.9,24.5,29.90,WSW,258,0.0,2.0,77,0.00,,,0.00,VWS V14.01,2013-02-13 03:32:00,
2013-02-12 22:33:00,30.9,24.5,29.90,WSW,258,0.0,2.0,77,0.00,,,0.00,VWS V14.01,2013-02-13 03:33:00,
2013-02-12 22:34:00,30.9,24.5,29.90,WSW,258,0.0,2.0,77,0.00,,,0.00,VWS V14.01,2013-02-13 03:34:00,
2013-02-12 22:35:00,30.8,24.5,29.90,WSW,258,0.0,2.0,77,0.00,,,0.00,VWS V14.01,2013-02-13 03:35:00,
2013-02-12 22:36:00,30.8,24.5,29.90,WSW,258,0.0,2.0,77,0.00,,,0.00,VWS V14.01,2013-02-13 03:36:00,
2013-02-12 22:37:00,30.8,24.5,29.90,WSW,258,0.0,2.0,77,0.00,,,0.00,VWS V14.01,2013-02-13 03:37:00,
2013-02-12 22:38:00,30.8,24.5,29.90,WSW,258,0.0,2.0,77,0.00,,,0.00,VWS V14.01,2013-02-13 03:38:00,
2013-02-12 22:39:00,30.8,24.5,29.90,WSW,258,0.0,2.0,77,0.00,,,0.00,VWS V14.01,2013-02-13 03:39:00,
2013-02-12 22:40:00,30.8,24.5,29.90,WSW,258,0.0,2.0,77,0.00,,,0.00,VWS V14.01,2013-02-13 03:40:00,
2013-02-12 22:41:00,30.7,24.4,29.90,WSW,258,0.0,1.0,77,0.00,,,0.00,VWS V14.01,2013-02-13 03:41:00,
2013-02-12 22:42:00,30.7,24.4,29.90,WSW,258,0.0,1.0,77,0.00,,,0.00,VWS V14.01,2013-02-13 03:42:00,
2013-02-12 22:43:00,30.7,24.4,29.90,WSW,258,0.0,1.0,77,0.00,,,0.00,VWS V14.01,2013-02-13 03:43:00,
2013-02-12 22:44:00,30.7,24.4,29.90,WSW,258,0.0,1.0,77,0.00,,,0.00,VWS V14.01,2013-02-13 03:44:00,
2013-02-12 22:45:00,30.7,24.4,29.90,WSW,258,0.0,1.0,77,0.00,,,0.00,VWS V14.01,2013-02-13 03:45:00,
2013-02-12 22:46:00,30.6,24.3,29.90,WSW,258,0.0,1.0,77,0.00,,,0.00,VWS V14.01,2013-02-13 03:46:00,
2013-02-12 22:47:00,30.6,24.3,29.90,WSW,258,0.0,1.0,77,0.00,,,0.00,VWS V14.01,2013-02-13 03:47:00,
2013-02-12 22:48:00,30.6,24.3,29.90,WSW,258,0.0,1.0,77,0.00,,,0.00,VWS V14.01,2013-02-13 03:48:00,
2013-02-12 22:49:00,30.6,24.3,29.90,WSW,258,1.0,1.0,77,0.00,,,0.00,VWS V14.01,2013-02-13 03:49:00,
2013-02-12 22:50:00,30.6,24.6,29.90,WSW,258,0.0,1.0,78,0.00,,,0.00,VWS V14.01,2013-02-13 03:50:00,
2013-02-12 22:51:00,30.5,24.2,29.90,WSW,258,0.0,1.0,77,0.00,,,0.00,VWS V14.01,2013-02-13 03:51:00,
2013-02-12 22:52:00,30.5,24.2,29.90,WSW,258,0.0,1.0,77,0.00,,,0.00,VWS V14.01,2013-02-13 03:52:00,
2013-02-12 22:53:00,30.5,24.5,29.90,WSW,258,0.0,1.0,78,0.00,,,0.00,VWS V14.01,2013-02-13 03:53:00,
2013-02-12 22:54:00,30.4,24.4,29.90,WSW,258,0.0,1.0,78,0.00,,,0.00,VWS V14.01,2013-02-13 03:54:00,
2013-02-12 22:55:00,30.4,24.4,29.90,WSW,258,0.0,1.0,78,0.00,,,0.00,VWS V14.01,2013-02-13 03:55:00,
2013-02-12 22:56:00,30.4,24.4,29.90,WSW,258,0.0,1.0,78,0.00,,,0.00,VWS V14.01,2013-02-13 03:56:00,
2013-02-12 22:57:00,30.3,24.3,29.90,WSW,258,0.0,1.0,78,0.00,,,0.00,VWS V14.01,2013-02-13 03:57:00,
2013-02-12 22:58:00,30.4,24.4,29.90,WSW,258,0.0,1.0,78,0.00,,,0.00,VWS V14.01,2013-02-13 03:58:00,
2013-02-12 22:59:00,30.3,24.3,29.90,WSW,258,0.0,1.0,78,0.00,,,0.00,VWS V14.01,2013-02-13 03:59:00,
2013-02-12 23:00:00,30.3,24.3,29.91,WSW,258,0.0,1.0,78,0.00,,,0.00,VWS V14.01,2013-02-13 04:00:00,
2013-02-12 23:01:00,30.3,24.3,29.91,WSW,258,0.0,0.0,78,0.00,,,0.00,VWS V14.01,2013-02-13 04:01:00,
2013-02-12 23:02:00,30.3,24.3,29.91,WSW,258,0.0,0.0,78,0.00,,,0.00,VWS V14.01,2013-02-13 04:02:00,
2013-02-12 23:03:00,30.2,24.2,29.91,WSW,258,0.0,0.0,78,0.00,,,0.00,VWS V14.01,2013-02-13 04:03:00,
2013-02-12 23:04:00,30.2,24.2,29.91,WSW,258,0.0,0.0,78,0.00,,,0.00,VWS V14.01,2013-02-13 04:04:00,
2013-02-12 23:05:00,30.2,24.2,29.91,WSW,258,0.0,0.0,78,0.00,,,0.00,VWS V14.01,2013-02-13 04:05:00,
2013-02-12 23:06:00,30.2,24.2,29.91,WSW,258,0.0,0.0,78,0.00,,,0.00,VWS V14.01,2013-02-13 04:06:00,
2013-02-12 23:07:00,30.1,24.1,29.91,WSW,258,0.0,0.0,78,0.00,,,0.00,VWS V14.01,2013-02-13 04:07:00,
2013-02-12 23:08:00,30.1,24.1,29.91,WSW,258,0.0,0.0,78,0.00,,,0.00,VWS V14.01,2013-02-13 04:08:00,
2013-02-12 23:09:00,30.1,24.1,29.91,WSW,258,0.0,0.0,78,0.00,,,0.00,VWS V14.01,2013-02-13 04:09:00,
2013-02-12 23:10:00,30.1,24.1,29.91,WSW,258,0.0,0.0,78,0.00,,,0.00,VWS V14.01,2013-02-13 04:10:00,
2013-02-12 23:11:00,30.1,24.1,29.91,WSW,258,0.0,0.0,78,0.00,,,0.00,VWS V14.01,2013-02-13 04:11:00,
2013-02-12 23:12:00,30.1,24.4,29.91,WSW,258,0.0,0.0,79,0.00,,,0.00,VWS V14.01,2013-02-13 04:12:00,
2013-02-12 23:13:00,30.0,24.3,29.91,WSW,258,0.0,0.0,79,0.00,,,0.00,VWS V14.01,2013-02-13 04:13:00,
2013-02-12 23:14:00,30.0,24.3,29.91,WSW,258,0.0,0.0,79,0.00,,,0.00,VWS V14.01,2013-02-13 04:14:00,
2013-02-12 23:15:00,30.0,24.3,29.92,WSW,258,0.0,0.0,79,0.00,,,0.00,VWS V14.01,2013-02-13 04:15:00,
2013-02-12 23:16:00,29.9,24.2,29.92,WSW,258,0.0,0.0,79,0.00,,,0.00,VWS V14.01,2013-02-13 04:16:00,
2013-02-12 23:17:00,29.9,24.2,29.92,WSW,258,0.0,0.0,79,0.00,,,0.00,VWS V14.01,2013-02-13 04:17:00,
2013-02-12 23:18:00,29.9,24.2,29.92,WSW,258,0.0,0.0,79,0.00,,,0.00,VWS V14.01,2013-02-13 04:18:00,
2013-02-12 23:19:00,29.9,24.2,29.92,WSW,258,0.0,0.0,79,0.00,,,0.00,VWS V14.01,2013-02-13 04:19:00,
2013-02-12 23:20:00,29.8,24.4,29.92,WSW,258,0.0,0.0,80,0.00,,,0.00,VWS V14.01,2013-02-13 04:20:00,
2013-02-12 23:21:00,29.8,24.4,29.92,WSW,258,0.0,0.0,80,0.00,,,0.00,VWS V14.01,2013-02-13 04:21:00,
2013-02-12 23:22:00,29.8,24.4,29.92,WSW,258,0.0,0.0,80,0.00,,,0.00,VWS V14.01,2013-02-13 04:22:00,
2013-02-12 23:23:00,29.8,24.4,29.92,WSW,258,0.0,0.0,80,0.00,,,0.00,VWS V14.01,2013-02-13 04:23:00,
2013-02-12 23:24:00,29.8,24.4,29.92,WSW,258,0.0,0.0,80,0.00,,,0.00,VWS V14.01,2013-02-13 04:24:00,
2013-02-12 23:25:00,29.7,24.3,29.92,WSW,258,0.0,0.0,80,0.00,,,0.00,VWS V14.01,2013-02-13 04:25:00,
2013-02-12 23:26:00,29.7,24.3,29.92,WSW,258,0.0,0.0,80,0.00,,,0.00,VWS V14.01,2013-02-13 04:26:00,
2013-02-12 23:27:00,29.7,24.3,29.92,WSW,258,0.0,0.0,80,0.00,,,0.00,VWS V14.01,2013-02-13 04:27:00,
2013-02-12 23:28:00,29.7,24.3,29.92,WSW,258,0.0,0.0,80,0.00,,,0.00,VWS V14.01,2013-02-13 04:28:00,
2013-02-12 23:29:00,29.7,24.3,29.92,WSW,258,0.0,0.0,80,0.00,,,0.00,VWS V14.01,2013-02-13 04:29:00,
2013-02-12 23:30:00,29.6,24.2,29.92,WSW,258,0.0,0.0,80,0.00,,,0.00,VWS V14.01,2013-02-13 04:30:00,
2013-02-12 23:31:00,29.6,24.2,29.92,WSW,258,0.0,0.0,80,0.00,,,0.00,VWS V14.01,2013-02-13 04:31:00,
2013-02-12 23:32:00,29.6,24.2,29.92,WSW,258,0.0,0.0,80,0.00,,,0.00,VWS V14.01,2013-02-13 04:32:00,
2013-02-12 23:33:00,29.6,24.2,29.92,WSW,258,0.0,0.0,80,0.00,,,0.00,VWS V14.01,2013-02-13 04:33:00,
2013-02-12 23:34:00,29.6,24.2,29.92,WSW,258,0.0,0.0,80,0.00,,,0.00,VWS V14.01,2013-02-13 04:34:00,
2013-02-12 23:35:00,29.6,24.5,29.92,WSW,258,0.0,0.0,81,0.00,,,0.00,VWS V14.01,2013-02-13 04:35:00,
2013-02-12 23:36:00,29.6,24.5,29.92,WSW,258,0.0,0.0,81,0.00,,,0.00,VWS V14.01,2013-02-13 04:36:00,
2013-02-12 23:37:00,29.5,24.1,29.92,WSW,258,0.0,0.0,80,0.00,,,0.00,VWS V14.01,2013-02-13 04:37:00,
2013-02-12 23:38:00,29.5,24.4,29.92,WSW,258,0.0,0.0,81,0.00,,,0.00,VWS V14.01,2013-02-13 04:38:00,
2013-02-12 23:39:00,29.5,24.4,29.92,WSW,258,0.0,0.0,81,0.00,,,0.00,VWS V14.01,2013-02-13 04:39:00,
2013-02-12 23:40:00,29.4,24.3,29.92,WSW,258,0.0,0.0,81,0.00,,,0.00,VWS V14.01,2013-02-13 04:40:00,
2013-02-12 23:41:00,29.5,24.4,29.92,WSW,258,0.0,0.0,81,0.00,,,0.00,VWS V14.01,2013-02-13 04:41:00,
2013-02-12 23:42:00,29.4,24.3,29.92,WSW,258,0.0,0.0,81,0.00,,,0.00,VWS V14.01,2013-02-13 04:42:00,
2013-02-12 23:43:00,29.4,24.3,29.92,WSW,258,0.0,0.0,81,0.00,,,0.00,VWS V14.01,2013-02-13 04:43:00,
2013-02-12 23:44:00,29.4,24.3,29.92,WSW,258,0.0,0.0,81,0.00,,,0.00,VWS V14.01,2013-02-13 04:44:00,
2013-02-12 23:45:00,29.3,24.2,29.92,WSW,258,0.0,0.0,81,0.00,,,0.00,VWS V14.01,2013-02-13 04:45:00,
2013-02-12 23:46:00,29.3,24.2,29.92,WSW,258,0.0,0.0,81,0.00,,,0.00,VWS V14.01,2013-02-13 04:46:00,
2013-02-12 23:47:00,29.3,24.2,29.92,WSW,258,0.0,0.0,81,0.00,,,0.00,VWS V14.01,2013-02-13 04:47:00,
2013-02-12 23:48:00,29.3,24.2,29.92,WSW,258,0.0,0.0,81,0.00,,,0.00,VWS V14.01,2013-02-13 04:48:00,
2013-02-12 23:49:00,29.3,24.2,29.92,WSW,258,0.0,0.0,81,0.00,,,0.00,VWS V14.01,2013-02-13 04:49:00,
2013-02-12 23:50:00,29.3,24.2,29.92,WSW,258,0.0,0.0,81,0.00,,,0.00,VWS V14.01,2013-02-13 04:50:00,
2013-02-12 23:51:00,29.2,24.1,29.92,WSW,258,0.0,0.0,81,0.00,,,0.00,VWS V14.01,2013-02-13 04:51:00,
2013-02-12 23:52:00,29.2,24.1,29.92,WSW,258,0.0,0.0,81,0.00,,,0.00,VWS V14.01,2013-02-13 04:52:00,
2013-02-12 23:53:00,29.2,24.1,29.92,WSW,258,0.0,0.0,81,0.00,,,0.00,VWS V14.01,2013-02-13 04:53:00,
2013-02-12 23:54:00,29.2,24.1,29.92,WSW,258,0.0,0.0,81,0.00,,,0.00,VWS V14.01,2013-02-13 04:54:00,
2013-02-12 23:55:00,29.2,24.1,29.92,WSW,258,0.0,0.0,81,0.00,,,0.00,VWS V14.01,2013-02-13 04:55:00,
2013-02-12 23:56:00,29.2,24.4,29.92,WSW,258,0.0,0.0,82,0.00,,,0.00,VWS V14.01,2013-02-13 04:56:00,
2013-02-12 23:57:00,29.2,24.4,29.92,WSW,258,0.0,0.0,82,0.00,,,0.00,VWS V14.01,2013-02-13 04:57:00,
2013-02-12 23:58:00,29.1,24.3,29.92,WSW,258,0.0,0.0,82,0.00,,,0.00,VWS V14.01,2013-02-13 04:58:00,
2013-02-12 23:59:00,29.1,24.3,29.92,WSW,258,0.0,0.0,82,0.00,,,0.00,VWS V14.01,2013-02-13 04:59:00,